[[{"header":{"parameterUnit":"m.s-1","parameterCategory":1,"la1":31.0,"la2":29.5877,"lo1":-88.7671,"lo2":-86.6584,"dy":0.0162,"dx":0.0185,"nx":115,"ny":88,"refTime":"2025-04-24T06:00:00:Z","depth":0,"parameterNumber":2,"parameterNumberName":"U-component_of_WINDS"},"data":[0.0,0.0,0.0,0.0,0.0,0.0,0.0,0.0,0.0,0.0,0.0,0.0,0.0,0.0,0.0,0.0,0.0,0.0,0.0,0.0,0.0,0.0,0.0,0.0,0.0,0.0,0.0,0.0,0.0,0.0,0.0,0.0,0.0,0.0,0.0,0.0,0.0,0.0,0.0,0.0,0.0,0.0,0.0,0.0,0.0,0.0,0.0,0.0,0.0,0.0,0.0,0.0,0.0,0.0,0.0,0.0,0.0,0.0,0.0,0.0,0.0,0.0,0.0,0.0,0.0,0.0,0.0,0.0,0.0,0.0,0.0,0.0,0.0,0.0,0.0,0.0,0.0,0.0,0.0,0.0,0.0,0.0,0.0,0.0,0.0,0.0,0.0,0.0,0.0,0.0,0.0,0.0,0.0,0.0,0.0,0.0,0.0,0.0,0.0,0.0,0.0,0.0,0.0,0.0,0.0,0.0,0.0,0.0,0.0,0.0,0.0,0.0,0.0,0.0,0.0,0.0,0.0,0.0,0.0,0.0,0.0,0.0,0.0,0.0,0.0,0.0,0.0,0.0,0.0,0.0,0.0,0.0,0.0,0.0,0.0,0.0,0.0,0.0,0.0,0.0,0.0,0.0,0.0,0.0,0.0,0.0,0.0,0.0,0.0,0.0,0.0,0.0,0.0,0.0,0.0,0.0,0.0,0.0,0.0,0.0,0.0,0.0,0.0,0.0,0.0,0.0,0.0,0.0,0.0,0.0,0.0,0.0,0.0,0.0,0.0,0.0,0.0,0.0,0.0,0.0,0.0,0.0,0.0,0.0,0.0,0.0,0.0,0.0,0.0,0.0,0.0,0.0,0.0,0.0,0.0,0.0,0.0,0.0,0.0,0.0,0.0,0.0,0.0,0.0,0.0,0.0,0.0,0.0,0.0,0.0,0.0,0.0,0.0,0.0,0.0,0.0,0.0,0.0,0.0,0.0,0.0,0.0,0.0,0.0,0.0,0.0,0.0,0.0,0.0,0.0,0.0,0.0,0.0,0.0,0.0,0.0,0.0,0.0,0.0,0.0,0.0,0.0,0.0,0.0,0.0,0.0,0.0,0.0,0.0,0.0,0.0,0.0,0.0,0.0,0.0,0.0,0.0,0.0,0.0,0.0,0.0,0.0,0.0,0.0,0.0,0.0,0.0,0.0,0.0,0.0,0.0,0.0,0.0,0.0,0.0,0.0,0.0,0.0,0.0,0.0,0.0,0.0,0.0,0.0,0.0,0.0,0.0,0.0,0.0,0.0,0.0,0.0,0.0,0.0,0.0,0.0,0.0,0.0,0.0,0.0,0.0,0.0,0.0,0.0,0.0,0.0,0.0,0.0,0.0,0.0,0.0,0.0,0.0,0.0,0.0,0.0,0.0,0.0,0.0,0.0,0.0,0.0,0.0,0.0,0.0,0.0,0.0,0.0,0.0,0.0,0.0,0.0,0.0,0.0,0.0,0.0,0.0,0.0,0.0,0.0,0.0,0.0,0.0,0.0,0.0,0.0,0.0,0.0,0.0,0.0,0.0,0.0,0.0,0.0,0.0,0.0,0.0,0.0,0.0,0.0,0.0,0.0,0.0,0.0,0.0,0.0,0.0,0.0,0.0,0.0,0.0,0.0,0.0,0.0,0.0,0.0,0.0,0.0,0.0,0.0,0.0,0.0,0.0,0.0,0.0,0.0,0.0,0.0,0.0,0.0,0.0,0.0,0.0,0.0,0.0,0.0,0.0,0.0,0.0,0.0,0.0,0.0,0.0,0.0,0.0,0.0,0.0,0.0,0.0,0.0,0.0,0.0,0.0,0.0,0.0,0.0,0.0,0.0,0.0,0.0,0.0,0.0,0.0,0.0,0.0,0.0,0.0,0.0,0.0,0.0,0.0,0.0,0.0,0.0,0.0,0.0,0.0,0.0,0.0,0.0,0.0,0.0,0.0,0.0,0.0,0.0,0.0,0.0,0.0,0.0,0.0,0.0,0.0,0.0,0.0,0.0,0.0,0.0,0.0,0.0,0.0,0.0,0.0,0.0,0.0,0.0,0.0,0.0,0.0,0.0,0.0,0.0,0.0,0.0,0.0,0.0,0.0,0.0,0.0,0.0,0.0,0.0,0.0,0.0,0.0,0.0,0.0,0.0,0.0,0.0,0.0,0.0,0.0,0.0,0.0,0.0,0.0,0.0,0.0,0.0,0.0,0.0,0.0,0.0,0.0,0.0,0.0,0.0,0.0,0.0,0.0,0.0,0.0,0.0,0.0,0.0,0.0,0.0,0.0,0.0,0.0,0.0,0.0,0.0,0.0,0.0,0.0,0.0,0.0,0.0,0.0,0.0,0.0,0.0,0.0,0.0,0.0,0.0,0.0,0.0,0.0,0.0,0.0,0.0,0.0,0.0,0.0,0.0,0.0,0.0,0.0,0.0,0.0,0.0,0.0,0.0,0.0,0.0,0.0,0.0,0.0,0.0,0.0,0.0,0.0,0.0,0.0,0.0,0.0,0.0,0.0,0.0,0.0,0.0,0.0,0.0,0.0,0.0,0.0,0.0,0.0,0.0,0.0,0.0,0.0,0.0,0.0,0.0,0.0,0.0,0.0,0.0,0.0,0.0,0.0,0.0,0.0,0.0,0.0,0.0,0.0,0.0,0.0,0.0,0.0,0.0,0.0,0.0,0.0,0.0,0.0,0.0,0.0,0.0,0.0,0.0,0.0,0.0,0.0,0.0,0.0,0.0,0.0,0.0,0.0,0.0,0.0,0.0,0.0,0.0,0.0,0.0,0.0,0.0,0.0,0.0,0.0,0.0,0.0,0.0,0.0,0.0,0.0,0.0,0.0,0.0,0.0,0.0,0.0,0.0,0.0,0.0,0.0,0.0,0.0,0.0,0.0,0.0,0.0,0.0,0.0,0.0,0.0,0.0,0.0,0.0,0.0,0.0,0.0,0.0,0.0,0.0,0.0,0.0,0.0,0.0,0.0,0.0,0.0,0.0,0.0,0.0,0.0,0.0,0.0,0.0,0.0,0.0,0.0,0.0,0.0,0.0,0.0,0.0,0.0,0.0,0.0,0.0,0.0,0.0,0.0,0.0,0.0,0.0,0.0,0.0,0.0,0.0,0.0,0.0,0.0,0.0,0.0,0.0,0.0,0.0,0.0,0.0,0.0,0.0,0.0,0.0,0.0,0.0,0.0,0.0,0.0,0.0,0.0,0.0,0.0,0.0,0.0,0.0,0.0,0.0,0.0,0.0,0.0,0.0,0.0,0.0,0.0,0.0,0.0,0.0,0.0,0.0,0.0,0.0,0.0,0.0,0.0,0.0,0.0,0.0,0.0,0.0,0.0,0.0,0.0,0.0,0.0,0.0,0.0,0.0,0.0,0.0,0.0,0.0,0.0,0.0,0.0,0.0,0.0,0.0,0.0,0.0,0.0,0.0,0.0,0.0,0.0,0.0,0.0,0.0,0.0,0.0,0.0,0.0,0.0,0.0,0.0,0.0,0.0,0.0,0.0,0.0,0.0,0.0,0.0,0.0,0.0,0.0,0.0,0.0,0.0,0.0,0.0,0.0,0.0,0.0,0.0,0.0,0.0,0.0,0.0,0.0,0.0,0.0,0.0,0.0,0.0,0.0,0.0,0.0,0.0,0.0,0.0,0.0,0.0,0.0,0.0,0.0,0.0,0.0,0.0,0.0,0.0,0.0,0.0,0.0,0.0,0.0,0.0,0.0,0.0,0.0,0.0,0.0,0.0,0.0,0.0,0.0,0.0,0.0,0.0,0.0,0.0,0.0,0.0,0.0,0.0,0.0,0.0,0.0,0.0,0.0,0.0,0.0,0.0,0.0,0.0,0.0,0.0,0.0,0.0,0.0,0.0,0.0,0.0,0.0,0.0,0.0,0.0,0.0,0.0,0.0,0.0,0.0,0.0,0.0,0.0,0.0,0.0,0.0,0.0,0.0,0.0,0.0,0.0,0.0,0.0,0.0,0.0,0.0,0.0,0.0,0.0,0.0,0.0,0.0,0.0,0.0,0.0,0.0,0.0,0.0,0.0,0.0,0.0,0.0,0.0,0.0,0.0,0.0,0.0,0.0,0.0,0.0,0.0,0.0,0.0,0.0,0.0,0.0,0.0,0.0,0.0,0.0,0.0,0.0,0.0,0.0,0.0,0.0,0.0,0.0,0.0,0.0,0.0,0.0,0.0,0.0,0.0,0.0,0.0,0.0,0.0,0.0,0.0,0.0,0.0,0.0,0.0,0.0,0.0888,0.0,0.0,0.0,0.0,0.0,0.0,0.0,0.0,0.0,0.0,0.0,0.0,0.0,0.0,0.0,0.0,0.0,0.0,0.0,0.0,0.0,0.0,0.0,0.0,0.0,0.0,0.0,0.0,0.0,0.0,0.0,0.0,0.0,0.0,0.0,0.0,0.0,0.0,0.0,0.0,0.0,0.0,0.0,0.0,0.0,0.0,0.0,0.0,0.0,0.0,0.0,0.0,0.0,0.0,0.0,0.0,0.0,0.0,0.0,0.0,0.0,0.0,0.0,0.0,0.0,0.0,0.0,0.0,0.0,0.0,0.0,0.0,0.0,0.0,0.0,0.0,0.0,0.0,0.0,0.0,0.0,0.0,0.0,0.0,0.0,0.0,0.0,0.0,0.0,0.0,0.0,0.0,0.0,0.0,0.0,0.0,0.0,0.0,0.0,0.0,0.0,0.0,0.0,0.0,0.0,0.0,0.0,0.0,0.0,0.0,0.0807,0.0796,0.0864,0.0888,0.0891,0.0,0.0,0.0,0.0,0.0,0.0,0.0,0.0,0.0,0.0,0.0,0.0,0.0,0.0,0.0,0.0,0.0,0.0,0.0,0.0,0.0,0.0,0.0,0.0,0.0,0.0,0.0,0.0,0.0,0.0,0.0,0.0,0.0,0.0,0.0,0.0,0.0,0.0,0.0,0.0,0.0,0.0,0.0,0.0,0.0,0.0,0.0,0.0,0.0,0.0,0.0,0.0,0.0,0.0,0.0,0.0,0.0,0.0,0.0,0.0,0.0,0.0,0.0,0.0,0.0,0.0,0.0,0.0,0.0,0.0,0.0,0.0,0.0,0.0,0.0,0.0,0.0,0.0,0.0,0.0,0.0,0.0,0.0,0.0,0.0,0.0,0.0,0.0,0.0,0.0,0.0,0.0,0.0,0.0,0.0,0.0,0.0,0.0,0.0,0.0,0.0,0.0,0.0,0.0,0.0,0.0,0.0,0.0,0.0,0.0,0.0,0.0,0.0958,0.0935,0.0956,0.0,0.0,0.0,0.0,0.0,0.0,0.0,0.0,0.0,0.0,0.0,0.0,0.0,0.0,0.0,0.0,0.0,0.0,0.0,0.0,0.0,0.0,0.0,0.0,0.0,0.0,0.0,0.0,0.0,0.0,0.0,0.0,0.0,0.0,0.0,0.0,0.0,0.0,0.0,0.0,0.0,0.0,0.0,0.0,0.0,0.0,0.0,0.0,0.0,0.0,0.0,0.0,0.0,0.0,0.0,0.0,0.0,0.0,0.0,0.0,0.0,0.0,0.0,0.0,0.0,0.0,0.0,0.0,0.0,0.0,0.0,0.0,0.0,0.0,0.0,0.0,0.0,0.0,0.0,0.0,0.0,0.0,0.0,0.0,0.0,0.0,0.0,0.0,0.0,0.0,0.0,0.0,0.0,0.0,0.0,0.0,0.0,0.0,0.0,0.0,0.0,0.0,0.0,0.0,0.0,0.0,0.0,0.0,0.0,0.0,0.0962,0.1074,0.1075,0.0,0.1102,0.0,0.0,0.0,0.0,0.0,0.0,0.0,0.0,0.0,0.0,0.0,0.0,0.0,0.0,0.0,0.0,0.0,0.0,0.0,0.0,0.0,0.0,0.0,0.0,0.0,0.0,0.0,0.0,0.0,0.0,0.0,0.0,0.0,0.0,0.0,0.0,0.0,0.0,0.0,0.0,0.0,0.0,0.0,0.0,0.0,0.0,0.0,0.0,0.0,0.0,0.0,0.0,0.0,0.0,0.0,0.0,0.0,0.0,0.0,0.0,0.0,0.0,0.0,0.0,0.0,0.0,0.0,0.0,0.0,0.0,0.0,0.0,0.0,0.0,0.0,0.0,0.0,0.0,0.0,0.0,0.0,0.0,0.0,0.0,0.0,0.0,0.0,0.0,0.0,0.0,0.0,0.0,0.0,0.0,0.0,0.0,0.0,0.0,0.0,0.0,0.0,0.0,0.0,0.0,0.0,0.0,0.0,0.0,0.0,0.0,0.1051,0.1094,0.1095,0.1095,0.0,0.0,0.0,0.0,0.0,0.0,0.0,0.0,0.0,0.0,0.0,0.0,0.0,0.0,0.0,0.0,0.0,0.0,0.0,0.0,0.0,0.0,0.0,0.0,0.0,0.0,0.0,0.0,0.0,0.0,0.0,0.0,0.0,0.0,0.0,0.0,0.0,0.0,0.0,0.0,0.0,0.0,0.0,0.0,0.0,0.0,0.0,0.0,0.0,0.0,0.0,0.0,0.0,0.0,0.0,0.0,0.0,0.0,0.0,0.0,0.0,0.0,0.0,0.0,0.0,0.0,0.0,0.0,0.0,0.0,0.0,0.0,0.0,0.0,0.0,0.0,0.0,0.0,0.0,0.0,0.0,0.0,0.0,0.0,0.0,0.0,0.0,0.0,0.0,0.0,0.0,0.0,0.0,0.0,0.0,0.0,0.0,0.0,0.0,0.0,0.0,0.0,0.0,0.0,0.0,0.0,0.0,0.0,0.0,0.0,0.1069,0.0,0.1154,0.1159,0.1142,0.1124,0.0,0.0,0.0,0.0,0.0,0.0,0.0,0.0,0.0,0.0,0.0,0.0,0.0,0.0,0.0,0.0,0.0,0.0,0.0,0.0,0.0,0.0,0.0,0.0,0.0,0.0,0.0,0.0,0.0,0.0,0.0,0.0,0.0,0.0,0.0,0.0,0.0,0.0,0.0,0.0,0.0,0.0,0.0,0.0,0.0,0.0,0.0,0.0,0.0,0.0,0.0,0.0,0.0,0.0,0.0,0.0,0.0,0.0,0.0,0.0,0.0,0.0,0.0,0.0,0.0,0.0,0.0,0.0,0.0,0.0,0.0,0.0,0.0,0.0,0.0,0.0,0.0,0.0,0.0,0.0,0.0,0.0,0.0,0.0,0.0,0.0,0.0,0.0,0.0,0.0,0.0,0.0,0.0,0.0,0.0,0.0,0.0,0.0,0.0,0.0,0.0,0.0,0.0,0.0,0.0,0.0,0.0,0.0,0.0,0.1166,0.1167,0.129,0.1278,0.1277,0.0,0.0,0.0,0.0,0.0,0.0,0.0,0.0,0.0,0.0,0.0,0.0,0.0,0.0,0.0,0.0,0.0,0.0,0.0,0.0,0.0,0.0,0.0,0.0,0.0,0.0,0.0,0.0,0.0,0.0,0.0,0.0,0.0,0.0,0.0,0.0,0.0,0.0,0.0,0.0,0.0,0.0,0.0,0.0,0.0,0.0,0.0,0.0,0.0,0.0,0.0,0.0,0.0,0.0,0.0,0.0,0.0,0.0,0.0,0.0,0.0,0.0,0.0,0.0,0.0,0.0,0.0,0.0,0.0,0.0,0.0,0.0,0.0,0.0,0.0,0.0,0.0,0.0,0.0,0.0,0.0,0.0,0.0,0.0,0.0,0.0,0.0,0.0,0.0,0.0,0.0,0.0,0.0,0.0,0.0,0.0,0.0,0.0,0.0,0.0,0.0,0.0,0.0,0.0,0.0,0.0,0.0,0.0,0.0,0.104,0.1077,0.1233,0.1469,0.1331,0.1304,0.0,0.0,0.0,0.0,0.0,0.0,0.0,0.0,0.0,0.0,0.0,0.0,0.0,0.0,0.0,0.0,0.0,0.0,0.0,0.0,0.0,0.0,0.0,0.0,0.0,0.0,0.0,0.0,0.0,0.0,0.0,0.0,0.0,0.0,0.0,0.0,0.0,0.0,0.0,0.0,0.0,0.0,0.0,0.0,0.0,0.0,0.0,0.0,0.0,0.0,0.0,0.0,0.0,0.0,0.0,0.0,0.0,0.0,0.0,0.0,0.0,0.0,0.0,0.0,0.0,0.0,0.0,0.0,0.0,0.0,0.0,0.0,0.0,0.0,0.0,0.0,0.0,0.0,0.0,0.0,0.0,0.0,0.0,0.0,0.0,0.0,0.0,0.0,0.0,0.0,0.0,0.0,0.0,0.0,0.0,0.0,0.0,0.0,0.0,0.0,0.0,0.0,0.0,0.0,0.0,0.0,0.0,0.0,0.0,0.1069,0.0,0.1366,0.0,0.1393,0.135,0.0,0.0,0.0,0.0,0.0,0.0,0.0,0.0,0.0,0.0,0.0,0.0,0.0,0.0,0.0,0.0,0.0,0.0,0.0,0.0,0.0,0.0,0.0,0.0,0.0,0.0,0.0,0.0,0.0,0.0,0.0,0.0,0.0,0.0,0.0,0.0,0.0,0.0,0.0,0.0,0.0,0.0,0.0,0.0,0.0,0.0,0.0,0.0,0.0,0.0,0.0,0.0,0.0,0.0,0.0,0.0,0.0,0.0,0.0,0.0,0.0,0.0,0.0,0.0,0.0,0.0,0.0,0.0,0.0,0.0,0.0,0.0,0.0,0.0,0.0,0.0,0.0,0.0,0.0,0.0,0.0,0.0,0.0,0.0,0.0,0.0,0.0,0.0,0.0,0.0,0.0,0.0,0.0,0.0,0.0,0.0,0.0,0.0,0.0,0.0,0.0,0.0,0.0,0.0,0.0,0.0,0.0,0.0,0.1058,0.1374,0.1574,0.1601,0.1504,0.1489,0.1345,0.0,0.0,0.0,0.0,0.0,0.0,0.0,0.0,0.0,0.0,0.0,0.0,0.0,0.0,0.0,0.0,0.0,0.0,0.0,0.0,0.0,0.0,0.0,0.0,0.0,0.0,0.0,0.0,0.0,0.0,0.0,0.0,0.0,0.0,0.0,0.0,0.0,0.0,0.0,0.0,0.0,0.0,0.0,0.0,0.0,0.0,0.0,0.0,0.0,0.0,0.0,0.0,0.0,0.0,0.0,0.0,0.0,0.0,0.0,0.0,0.0,0.0,0.0,0.0,0.0,0.0,0.0,0.0,0.0,0.0,0.0,0.0,0.0,0.0,0.0,0.0,0.0,0.0,0.0,0.0,0.0,0.0,0.0,0.0,0.0,0.0,0.0,0.0,0.0,0.0,0.0,0.0,0.0,0.0,0.0,0.0,0.0,0.0,0.0,0.0,0.0,0.0,0.0,0.0,0.0,0.0,0.0,0.0,0.0,0.126,0.1364,0.1575,0.1879,0.1414,0.133,0.0,0.0,0.0,0.0,0.0,0.0,0.0,0.0,0.0,0.0,0.0,0.0,0.0,0.0,0.0,0.0,0.0,0.0,0.0,0.0,0.0,0.0,0.0,0.0,0.0,0.0,0.0,0.0,0.0,0.0,0.0,0.0,0.0,0.0,0.0,0.0,0.0,0.0,0.0,0.0,0.0,0.0,0.0,0.0,0.0,0.0,0.0,0.0,0.0,0.0,0.0,0.0,0.0,0.0,0.0,0.0,0.0,0.0,0.0,0.0,0.0,0.0,0.0,0.0,0.0,0.0,0.0,0.0,0.0,0.0,0.0,0.0,0.0,0.0,0.0,0.0,0.0,0.0,0.0,0.0,0.0,0.0,0.0,0.0,0.0,0.0,0.0,0.0,0.0,0.0,0.0,0.0,0.0,0.0,0.0,0.0,0.0,0.0,0.0,0.0,0.0,0.0,0.0,0.0,0.0,0.0,0.0,0.0,0.0,0.1464,0.1548,0.1815,0.228,0.1966,0.1831,0.1948,0.0,0.0,0.0,0.0,0.0,0.0,0.0,0.0,0.0,0.0,0.0,0.0,0.0,0.0,0.0,0.0,0.0,0.0,0.0,0.0,0.0,0.0,0.0,0.0,0.0,0.0,0.0,0.0,0.0,0.0,0.0,0.0,0.0,0.0,0.0,0.0,0.0,0.0,0.0,0.0,0.0,0.0,0.0,0.0,0.0,0.0,0.0,0.0,0.0,0.0,0.0,0.0,0.0,0.0,0.0,0.0,0.0,0.0,0.0,0.0,0.0,0.0,0.0,0.0,0.0,0.0,0.0,0.0,0.0,0.0,0.0,0.0,0.0,0.0,0.0,0.0,0.0,0.0,0.0,0.0,0.0,0.0,0.0,0.0,0.0,0.0,0.0,0.0,0.0,0.0,0.0,0.0,0.0,0.0,0.0,0.0,0.0,0.0,0.0,0.0,0.0,0.0,0.0,0.0,0.0,0.0,0.0,0.0,0.1906,0.2036,0.2231,0.2588,0.2907,0.2746,0.0,0.0,0.0,0.0,0.0,0.0,0.0,0.0,0.0,0.0,0.0,0.0,0.0,0.0,0.0,0.0,0.0,0.0,0.0,0.0,0.0,0.0,0.0,0.0,0.0,0.0,0.0,0.0,0.0,0.0,0.0,0.0,0.0,0.0,0.0,0.0,0.0,0.0,0.0,0.0,0.0,0.0,0.0,0.0,0.0,0.0,0.0,0.0,0.0,0.0,0.0,0.0,0.0,0.0,0.0,0.0,0.0,0.0,0.0,0.0,0.0,0.0,0.0,0.0,0.0,0.0,0.0,0.0,0.0,0.0,0.0,0.0,0.0,0.0,0.0,0.0,0.0,0.0,0.0,0.0,0.0,0.0,0.0,0.0,0.0,0.0,0.0,0.0,0.0,0.0,0.0,0.0,0.0,0.0,0.0,0.0,0.0,0.0,0.0,0.0,0.0,0.0,0.0,0.0,0.0,0.0,0.0,0.0,0.0,0.2121,0.2097,0.2235,0.2513,0.31,0.3076,0.0,0.0,0.0,0.0,0.0,0.0,0.0,0.0,0.0,0.0,0.0,0.0,0.0,0.0,0.0,0.0,0.0,0.0,0.0,0.0,0.0,0.0,0.0,0.0,0.0,0.0,0.0,0.0,0.0,0.0,0.0,0.0,0.0,0.0,0.0,0.0,0.0,0.0,0.0,0.0,0.0,0.0,0.0,0.0,0.0,0.0,0.0,0.0,0.0,0.0,0.0,0.0,0.0,0.0,0.0,0.0,0.0,0.0,0.0,0.0,0.0,0.0,0.0,0.0,0.0,0.0,0.0,0.0,0.0,0.0,0.0,0.0,0.0,0.0,0.0,0.0,0.0,0.0,0.0,0.0,0.0,0.0,0.0,0.0,0.0,0.0,0.0,0.0,0.0,0.0,0.0,0.0,0.0,0.0,0.0,0.0,0.0,0.0,0.0,0.0,0.0,0.0,0.0,0.0,0.0,0.0,0.0,0.0,0.2043,0.2324,0.2181,0.228,0.2618,0.2995,0.3028,0.0,0.0,0.0,0.0,0.0,0.0,0.0,0.0,0.0,0.0,0.0,0.0,0.0,0.0,0.0,0.0,0.0,0.0,0.0,0.0,0.0,0.0,0.0,0.0,0.0,0.0,0.0,0.0,0.0,0.0,0.0,0.0,0.0,0.0,0.0,0.0,0.0,0.0,0.0,0.0,0.0,0.0,0.0,0.0,0.0,0.0,0.0,0.0,0.0,0.0,0.0,0.0,0.0,0.0,0.0,0.0,0.0,0.0,0.0,0.0,0.0,0.0,0.0,0.0,0.0,0.0,0.0,0.0,0.0,0.0,0.0,0.0,0.0,0.0,0.0,0.0,0.0,0.0,0.0,0.0,0.0,0.0,0.0,0.0,0.0,0.0,0.0,0.0,0.0,0.0,0.0,0.0,0.0,0.0,0.0,0.0,0.0,0.0,0.0,0.0,0.0,0.0,0.0,0.0,0.0,0.0,0.0,0.0,0.2131,0.2452,0.2293,0.2391,0.2794,0.2818,0.2781,0.0,0.0,0.0,0.0,0.0,0.0,0.0,0.0,0.0,0.0,0.0,0.0,0.0,0.0,0.0,0.0,0.0,0.0,0.0,0.0,0.0,0.0,0.0,0.0,0.0,0.0,0.0,0.0,0.0,0.0,0.0,0.0,0.0,0.0,0.0,0.0,0.0,0.0,0.0,0.0,0.0,0.0,0.0,0.0,0.0,0.0,0.0,0.0,0.0,0.0,0.0,0.0,0.0,0.0,0.0,0.0,0.0,0.0,0.0,0.0,0.0,0.0,0.0,0.0,0.0,0.0,0.0,0.0,0.0,0.0,0.0,0.0,0.0,0.0,0.0,0.0,0.0,0.0,0.0,0.0,0.0,0.0,0.0,0.0,0.0,0.0,0.0,0.0,0.0,0.0,0.0,0.0,0.0,0.0,0.0,0.0,0.0,0.0,0.0,0.0,0.0,0.0,0.0,0.0,0.0,0.0,0.0,0.0,0.2347,0.2264,0.2662,0.2867,0.2813,0.2818,0.2882,0.0,0.0,0.0,0.0,0.0,0.0,0.0,0.0,0.0,0.0,0.0,0.0,0.0,0.0,0.0,0.0,0.0,0.0,0.0,0.0,0.0,0.0,0.0,0.0,0.0,0.0,0.0,0.0,0.0,0.0,0.0,0.0,0.0,0.0,0.0,0.0,0.0,0.0,0.0,0.0,0.0,0.0,0.0,0.0,0.0,0.0,0.0,0.0,0.3911,0.0,0.0,0.0,0.0,0.0,0.0,0.0,0.0,0.0,0.0,0.0,0.0,0.0,0.0,0.0,0.0,0.0,0.0,0.0,0.0,0.0,0.0,0.0,0.0,0.0,0.0,0.0,0.0,0.0,0.0,0.0,0.0,0.0,0.0,0.0,0.0,0.0,0.0,0.0,0.0,0.0,0.0,0.0,0.0,0.0,0.0,0.0,0.0,0.0,0.0,0.0,0.0,0.0,0.0,0.0,0.0,0.0,0.0,0.0,0.2353,0.2472,0.2741,0.2913,0.2988,0.2958,0.3019,0.0,0.0,0.0,0.0,0.0,0.0,0.0,0.0,0.0,0.0,0.0,0.0,0.0,0.0,0.0,0.0,0.0,0.0,0.0,0.0,0.0,0.0,0.0,0.0,0.0,0.0,0.0,0.0,0.0,0.0,0.0,0.0,0.0,0.0,0.0,0.0,0.0,0.0,0.0,0.0,0.0,0.0,0.0,0.0,0.0,0.0,0.0,0.0,0.0,0.0,0.0,0.0,0.0,0.0,0.0,0.0,0.0,0.0,0.0,0.0,0.0,0.0,0.0,0.0,0.0,0.0,0.0,0.0,0.0,0.0,0.0,0.0,0.0,0.0,0.0,0.0,0.0,0.0,0.0,0.0,0.0,0.0,0.0,0.0,0.0,0.0,0.0,0.0,0.0,0.0,0.0,0.0,0.0,0.0,0.0,0.0,0.0,0.0,0.0,0.0,0.0,0.0,0.0,0.0,0.0,0.0,0.0,0.2337,0.2386,0.2726,0.2713,0.2867,0.3187,0.3181,0.3181,0.3239,0.0,0.0,0.0,0.0,0.0,0.0,0.0,0.0,0.0,0.0,0.0,0.0,0.0,0.0,0.0,0.0,0.0,0.0,0.0,0.0,0.0,0.0,0.0,0.0,0.0,0.0,0.0,0.0,0.0,0.0,0.0,0.0,0.0,0.0,0.0,0.0,0.0,0.0,0.2935,0.41,0.0,0.0,0.0,0.0,0.0,0.0,0.0,0.0,0.4291,0.0,0.0,0.0,0.0,0.0,0.0,0.0,0.0,0.0,0.0,0.0,0.0,0.0,0.0,0.0,0.0,0.0,0.0,0.0,0.0,0.0,0.0,0.0,0.0,0.0,0.0,0.0,0.0,0.0,0.0,0.0,0.0,0.0,0.0,0.0,0.0,0.0,0.0,0.0,0.0,0.0,0.0,0.0,0.0,0.0,0.0,0.0,0.0,0.0,0.0,0.0,0.0,0.0,0.0,0.0,0.0,0.2518,0.2625,0.2642,0.2558,0.2905,0.3122,0.3205,0.3336,0.3439,0.3437,0.0,0.0,0.0,0.0,0.0,0.0,0.0,0.0,0.0,0.0,0.0,0.0,0.0,0.0,0.0,0.0,0.0,0.0,0.0,0.0,0.0,0.0,0.0,0.0,0.0,0.0,0.0,0.0,0.0,0.0,0.0,0.0,0.0,0.0,0.0,0.0,0.0,0.0,0.0,0.4653,0.503,0.0,0.0,0.0,0.0,0.0,0.0,0.0,0.0,0.4207,0.0,0.0,0.0,0.0,0.0,0.0,0.0,0.0,0.0,0.0,0.0,0.0,0.0,0.0,0.0,0.0,0.0,0.0,0.0,0.0,0.0,0.0,0.0,0.0,0.0,0.0,0.0,0.0,0.0,0.0,0.0,0.0,0.0,0.0,0.0,0.0,0.0,0.0,0.0,0.0,0.0,0.0,0.0,0.0,0.0,0.0,0.0,0.0,0.0,0.0,0.0,0.0,0.0,0.0,0.0,0.2617,0.2512,0.2512,0.2667,0.2775,0.295,0.3184,0.3315,0.34,0.0,0.0,0.0,0.0,0.0,0.0,0.0,0.0,0.0,0.0,0.0,0.0,0.0,0.0,0.0,0.0,0.0,0.0,0.0,0.0,0.0,0.0,0.0,0.0,0.0,0.0,0.0,0.0,0.0,0.0,0.0,0.0,0.0,0.0,0.0,0.0,0.0,0.0,0.0,0.0,0.5455,0.573,0.5161,0.0,0.0,0.0,0.0,0.0,0.0,0.4829,0.4425,0.0,0.0,0.0,0.0,0.0,0.0,0.0,0.0,0.0,0.0,0.0,0.0,0.0,0.0,0.0,0.0,0.0,0.0,0.0,0.0,0.0,0.0,0.0,0.0,0.0,0.0,0.0,0.0,0.0,0.0,0.0,0.0,0.0,0.0,0.0,0.0,0.0,0.0,0.0,0.0,0.0,0.0,0.0,0.0,0.0,0.0,0.0,0.0,0.0,0.0,0.0,0.0,0.0,0.0,0.0,0.2754,0.2427,0.2403,0.2707,0.2688,0.2818,0.3205,0.3229,0.3336,0.0,0.0,0.0,0.0,0.0,0.0,0.0,0.0,0.0,0.0,0.0,0.0,0.0,0.0,0.0,0.0,0.0,0.0,0.0,0.0,0.0,0.0,0.0,0.0,0.0,0.0,0.0,0.0,0.0,0.0,0.0,0.0,0.0,0.0,0.0,0.0,0.0,0.0,0.0,0.0,0.0,0.6435,0.5447,0.5765,0.0,0.0,0.0,0.0,0.532,0.5169,0.0,0.0,0.0,0.0,0.0,0.0,0.0,0.0,0.0,0.0,0.0,0.0,0.0,0.0,0.0,0.0,0.0,0.0,0.0,0.0,0.0,0.0,0.0,0.0,0.0,0.0,0.0,0.0,0.0,0.0,0.0,0.0,0.0,0.0,0.0,0.0,0.0,0.0,0.0,0.0,0.0,0.0,0.0,0.0,0.0,0.0,0.0,0.0,0.0,0.0,0.0,0.0,0.0,0.0,0.0,0.0,0.2791,0.2751,0.2664,0.2558,0.2905,0.3122,0.3208,0.3375,0.3485,0.0,0.0,0.0,0.0,0.0,0.0,0.0,0.0,0.0,0.0,0.0,0.0,0.0,0.0,0.0,0.0,0.0,0.0,0.0,0.0,0.0,0.0,0.0,0.0,0.0,0.0,0.0,0.0,0.0,0.0,0.0,0.0,0.0,0.0,0.0,0.0,0.0,0.0,0.0,0.0,0.0,0.6608,0.6049,0.6048,0.6211,0.0,0.0,0.5708,0.5376,0.5709,0.0,0.0,0.0,0.0,0.0,0.0,0.0,0.0,0.0,0.0,0.0,0.0,0.0,0.0,0.0,0.0,0.0,0.0,0.0,0.0,0.0,0.0,0.0,0.0,0.0,0.0,0.0,0.0,0.0,0.0,0.0,0.0,0.0,0.0,0.0,0.0,0.0,0.0,0.0,0.0,0.0,0.0,0.0,0.0,0.0,0.0,0.0,0.0,0.0,0.0,0.0,0.0,0.0,0.0,0.0,0.2363,0.2625,0.2621,0.2582,0.2497,0.2707,0.2926,0.3205,0.3269,0.34,0.0,0.0,0.0,0.0,0.0,0.0,0.0,0.0,0.0,0.0,0.0,0.0,0.0,0.0,0.0,0.0,0.0,0.0,0.0,0.0,0.0,0.0,0.0,0.0,0.0,0.0,0.0,0.0,0.0,0.0,0.0,0.0,0.0,0.0,0.0,0.0,0.0,0.0,0.0,0.0,0.0,0.0,0.6325,0.664,0.0,0.0,0.0,0.6285,0.6061,0.0,0.0,0.0,0.0,0.0,0.0,0.0,0.0,0.0,0.0,0.0,0.0,0.0,0.0,0.0,0.0,0.0,0.0,0.0,0.0,0.0,0.0,0.0,0.0,0.0,0.0,0.0,0.0,0.0,0.0,0.0,0.0,0.0,0.0,0.0,0.0,0.0,0.0,0.0,0.0,0.0,0.0,0.0,0.0,0.0,0.0,0.0,0.0,0.0,0.0,0.0,0.0,0.0,0.0,0.0,0.0,0.0,0.2546,0.2567,0.2615,0.2683,0.2725,0.2948,0.3368,0.3306,0.0,0.0,0.0,0.0,0.0,0.0,0.0,0.0,0.0,0.0,0.0,0.0,0.0,0.0,0.0,0.0,0.0,0.0,0.0,0.0,0.0,0.0,0.0,0.0,0.0,0.0,0.0,0.2003,0.0,0.0,0.0,0.0,0.0,0.0,0.0,0.0,0.0,0.0,0.0,0.0,0.0,0.0,0.6763,0.653,0.6966,0.7153,0.0,0.0,0.682,0.676,0.6651,0.6431,0.0,0.0,0.0,0.0,0.0,0.0,0.0,0.0,0.0,0.0,0.0,0.0,0.0,0.0,0.0,0.0,0.0,0.0,0.0,0.0,0.0,0.0,0.0,0.0,0.0,0.0,0.0,0.0,0.0,0.0,0.0,0.0,0.0,0.0,0.0,0.0,0.0,0.0,0.0,0.0,0.0,0.0,0.0,0.0,0.0,0.0,0.0,0.0,0.0,0.0,0.0,0.0,0.0,0.0,0.0,0.2759,0.2791,0.2916,0.324,0.3301,0.3516,0.3935,0.3649,0.3485,0.0,0.0,0.0,0.0,0.0,0.0,0.0,0.0,0.0,0.0,0.0,0.0,0.0,0.0,0.0,0.0,0.0,0.0,0.0,0.0,0.0,0.0,0.0,0.0,0.0,0.0,0.0,0.0,0.0,0.0,0.0,0.0,0.0,0.0,0.0,0.0,0.0,0.0,0.0,0.0,0.0,0.6916,0.68,0.6827,0.7079,0.0,0.0,0.7174,0.7169,0.7414,0.7192,0.6097,0.0,0.0,0.0,0.0,0.0,0.0,0.0,0.0,0.0,0.0,0.0,0.0,0.0,0.0,0.0,0.0,0.0,0.0,0.0,0.0,0.0,0.0,0.0,0.0,0.0,0.0,0.0,0.0,0.0,0.0,0.0,0.0,0.0,0.0,0.0,0.0,0.0,0.0,0.0,0.0,0.0,0.0,0.0,0.0,0.0,0.0,0.0,0.0,0.0,0.0,0.0,0.0,0.0,0.2417,0.3028,0.3066,0.3165,0.3295,0.3479,0.3635,0.375,0.3622,0.3551,0.0,0.0,0.0,0.0,0.0,0.0,0.0,0.0,0.0,0.0,0.0,0.0,0.0,0.0,0.0,0.0,0.0,0.0,0.0,0.0,0.0,0.0,0.0,0.0,0.0,0.0,0.0,0.0,0.2989,0.304,0.2586,0.0,0.0,0.0,0.0,0.0,0.0,0.0,0.0,0.0,0.0,0.6367,0.6659,0.6972,0.0,0.0,0.7535,0.7601,0.7583,0.7636,0.7378,0.6443,0.5764,0.0,0.0,0.0,0.0,0.0,0.0,0.0,0.0,0.0,0.0,0.0,0.0,0.0,0.0,0.0,0.0,0.0,0.0,0.0,0.0,0.0,0.0,0.0,0.0,0.0,0.0,0.0,0.0,0.0,0.0,0.0,0.0,0.0,0.0,0.0,0.0,0.0,0.0,0.0,0.0,0.0,0.0,0.0,0.0,0.0,0.0,0.0,0.0,0.0,0.0,0.0,0.0,0.2677,0.3159,0.3198,0.331,0.35,0.3642,0.3773,0.3833,0.3764,0.364,0.0,0.0,0.0,0.0,0.0,0.0,0.0,0.0,0.0,0.0,0.0,0.0,0.0,0.0,0.0,0.0,0.0,0.0,0.0,0.0,0.0,0.0,0.0,0.0,0.0,0.0,0.0,0.0,0.3357,0.3335,0.2686,0.0,0.0,0.0,0.0,0.0,0.0,0.0,0.0,0.0,0.0,0.6018,0.6559,0.7022,0.7333,0.7278,0.7642,0.7869,0.7821,0.7778,0.7527,0.688,0.0,0.0,0.0,0.0,0.0,0.0,0.0,0.0,0.0,0.0,0.0,0.0,0.0,0.0,0.0,0.0,0.0,0.0,0.0,0.0,0.0,0.0,0.0,0.0,0.0,0.0,0.0,0.0,0.0,0.0,0.0534,0.0,0.0,0.0,0.0,0.0,0.0,0.0,0.0,0.0,0.0,0.0,0.0,0.0,0.0,0.0,0.0,0.0,0.0,0.0,0.0,0.0,0.0,0.2826,0.3115,0.3062,0.3329,0.3963,0.3879,0.4006,0.4346,0.4122,0.3834,0.3506,0.0,0.0,0.0,0.0,0.0,0.0,0.0,0.0,0.0,0.0,0.0,0.0,0.0,0.0,0.0,0.0,0.0,0.0,0.0,0.0,0.0,0.0,0.0,0.0,0.0,0.0,0.3784,0.3419,0.295,0.0,0.0,0.0,0.0,0.0,0.0,0.0,0.0,0.0,0.0,0.5644,0.6014,0.6614,0.6811,0.7113,0.7593,0.7807,0.7884,0.7827,0.7855,0.7781,0.0,0.0,0.0,0.0,0.0,0.0,0.0,0.0,0.0,0.0,0.0,0.0,0.0,0.0,0.0,0.0,0.0,0.0,0.0,0.0,0.0,0.0,0.0,0.0,0.0,0.0,0.0,0.0183,0.0409,0.0,0.0,0.0,0.0,0.0,0.0,0.0,0.0,0.0,0.0,0.0,0.2544,0.2564,0.0,0.0,0.0,0.0,0.0,0.0,0.0,0.0,0.0,0.0,0.0,0.0,0.2755,0.3286,0.3419,0.3706,0.4199,0.4597,0.4744,0.4671,0.4412,0.3951,0.3263,0.0,0.0,0.0,0.0,0.0,0.0,0.0,0.0,0.0,0.0,0.0,0.0,0.0,0.0,0.0,0.0,0.0,0.0,0.0,0.0,0.0,0.0,0.0,0.0,0.0,0.3653,0.0,0.0,0.0,0.0,0.0,0.0,0.0,0.0,0.0,0.0,0.0,0.514,0.6129,0.6006,0.5956,0.637,0.6934,0.7382,0.0,0.0,0.0,0.0,0.0,0.0,0.0,0.0,0.0,0.0,0.0,0.0,0.0,0.0,0.8171,0.693,0.6424,0.642,0.7207,0.0,0.0,0.0,0.0,0.0,0.0,0.0,0.0,0.0,0.0,0.0,0.0,0.0,0.0,0.0108,0.0,0.0398,0.0,0.0,0.0,0.0,0.0,0.0,0.0,0.0,0.217,0.2298,0.2513,0.2531,0.2527,0.0,0.2805,0.2815,0.0,0.0,0.0,0.0,0.0,0.0,0.0,0.0,0.2918,0.327,0.3567,0.3914,0.427,0.4834,0.5017,0.4811,0.4456,0.3951,0.3269,0.3258,0.3249,0.0,0.0,0.0,0.0,0.0,0.0,0.0,0.0,0.0,0.0,0.0,0.0,0.0,0.0,0.0,0.0,0.0,0.0,0.0,0.0,0.0,0.0,0.0,0.4004,0.0,0.0,0.0,0.0,0.0,0.0,0.0,0.0,0.0,0.4197,0.4524,0.5249,0.6609,0.6395,0.6277,0.6674,0.0,0.0,0.0,0.0,0.0,0.0,0.0,0.8412,0.8664,0.9442,0.9633,0.8566,0.8767,0.9067,0.8911,0.0,0.0,0.7762,0.7499,0.7623,0.8078,0.8043,0.8076,0.8565,0.8787,0.8818,0.0,0.0,0.0,0.0,0.0,0.0,0.0,0.0,-0.0,-0.0,0.0,0.0284,0.0,0.0,0.0,0.0,0.0,0.2068,0.0,0.0,0.2424,0.2421,0.2251,0.2253,0.2243,0.2249,0.2585,0.2712,0.2699,0.2518,0.0,0.0,0.0,0.0,0.0,0.0,0.3255,0.3059,0.3544,0.3914,0.4194,0.4576,0.48,0.4778,0.4292,0.3854,0.3536,0.3556,0.3451,0.3152,0.3603,0.0,0.0,0.0,0.0,0.0,0.0,0.0,0.0,0.0,0.0,0.0,0.0,0.0,0.0,0.0,0.0,0.0,0.0,0.0,0.0,0.3917,0.0,0.0,0.0,0.0,0.0,0.0,0.0,0.0,0.0,0.0,0.4763,0.4819,0.5322,0.6755,0.0,0.0,0.0,0.0,0.7362,0.7689,0.8523,0.9033,0.874,0.8676,0.8862,0.9421,0.0,0.0,0.9175,0.9277,0.9404,0.9036,0.9313,0.9458,0.9201,0.8973,0.8911,0.9035,0.8973,0.9082,0.9489,0.9887,1.001,-0.0915,0.0,0.0,0.0,0.0,-0.0,-0.0,-0.0,-0.0,-0.0,-0.0,0.0234,0.0,0.0,0.0,0.0,0.0,0.0,0.241,0.2552,0.2598,0.2737,0.2866,0.283,0.2834,0.2827,0.2798,0.2758,0.2762,0.2506,0.2561,0.291,0.0,0.0,0.0,0.0,0.3255,0.3549,0.3595,0.3794,0.4207,0.4578,0.4803,0.4782,0.4479,0.4142,0.3877,0.3634,0.3515,0.3448,0.3547,0.0,0.0,0.0,0.0,0.0,0.0,0.0,0.0,0.0,0.0,0.0,0.0,0.0,0.0,0.0,0.0,0.0,0.0,0.0,0.361,0.3902,0.3921,0.0,0.0,0.0,0.0,0.0,0.0,0.0,0.0,0.0,0.5436,0.5097,0.5432,0.0,0.0,0.7843,0.7638,0.7874,0.8155,0.8438,0.8988,0.0,0.9845,0.9823,0.987,1.0094,1.0583,1.0704,1.0084,1.0078,1.0086,0.9993,1.0046,1.017,1.0303,0.9777,0.9386,0.939,0.9472,0.9879,1.0768,1.095,1.0944,-0.1664,-0.0645,-0.0185,-0.0,-0.0,-0.0,-0.0,-0.0,-0.0,0.0102,0.0286,0.0406,0.0421,0.0377,0.0886,0.0,0.0,0.0,0.2368,0.2856,0.2677,0.2768,0.3075,0.312,0.312,0.3073,0.3015,0.2965,0.2888,0.2806,0.2972,0.3368,0.0,0.0,0.3101,0.3121,0.3231,0.3441,0.3527,0.3724,0.4008,0.4511,0.4803,0.4788,0.4638,0.4389,0.4012,0.382,0.3662,0.3563,0.352,0.3569,0.0,0.0,0.0,0.0,0.0,0.0,0.0,0.0,0.0,0.0,0.0,0.2486,0.0,0.0,0.0,0.0,0.2499,0.3003,0.3816,0.3907,0.0,0.0,0.0,0.0,0.0,0.0,0.0,0.398,0.4617,0.5327,0.5948,0.5534,0.5776,0.7359,0.8173,0.8416,0.7823,0.0,0.8367,0.8471,0.9042,0.9593,0.9869,1.0273,1.0554,1.0592,1.0782,1.0787,1.0467,1.0254,1.0186,1.0385,1.0433,1.0548,1.084,1.0459,1.0253,1.0547,1.0697,1.1067,1.1752,1.1733,1.1754,-0.2294,-0.1731,-0.0683,-0.0,-0.0,-0.0,-0.0,-0.0,-0.0,0.0227,0.0629,0.0675,0.0587,0.0439,0.1077,0.0,0.2114,0.1826,0.2174,0.306,0.2592,0.2676,0.3158,0.3159,0.3117,0.3161,0.3268,0.3218,0.3137,0.3243,0.3356,0.344,0.3122,0.2892,0.2808,0.3135,0.3216,0.3011,0.3438,0.3686,0.3746,0.4412,0.4812,0.4854,0.4801,0.4525,0.4056,0.3978,0.383,0.3526,0.3509,0.3509,0.3506,0.0,0.0,0.0,0.0,0.0,0.0,0.0,0.0,0.0,0.0,0.0,0.0,0.0,0.0,0.0,0.3148,0.0,0.3907,0.3933,0.0,0.0,0.0,0.4337,0.433,0.4625,0.4913,0.5054,0.0,0.0,0.6378,0.6189,0.6346,0.7459,0.8365,0.8685,0.8168,0.8146,0.8179,0.816,0.8873,0.9399,0.9469,1.0196,1.0766,1.0728,1.0822,1.0727,1.043,1.0048,0.9941,1.0419,1.0494,1.0576,1.0858,1.1018,1.1391,1.2052,1.2126,1.2105,1.2182,1.2193,1.214,-0.2738,-0.2603,-0.2343,-0.1378,-0.0,-0.0,-0.0,-0.0,-0.0,0.0079,0.0207,0.0552,0.0656,0.0618,0.0724,0.1029,0.146,0.1462,0.1933,0.2675,0.2597,0.2898,0.3468,0.3512,0.3471,0.3463,0.3353,0.3297,0.3249,0.3176,0.322,0.3331,0.3257,0.3314,0.3532,0.3469,0.3556,0.3718,0.3451,0.3562,0.4081,0.4543,0.4935,0.5174,0.474,0.4442,0.4299,0.3864,0.3579,0.3513,0.3509,0.3509,0.3509,0.3647,0.0,0.0,0.0,0.0,0.0,0.0,0.0,0.0,0.0,0.3034,0.2449,0.0,0.3376,0.0,0.3428,0.3907,0.3911,0.4318,0.0,0.0,0.4496,0.4694,0.4697,0.4975,0.5103,0.4879,0.5312,0.6076,0.7219,0.7309,0.7362,0.7662,0.7868,0.8173,0.8663,0.8496,0.8464,0.8833,0.9011,0.9332,0.9878,1.0244,1.0371,1.0259,1.0337,1.038,1.0196,1.0229,1.0321,1.0526,1.056,1.0733,1.1065,1.1455,1.1772,1.2011,1.1514,1.1207,1.181,1.1779,1.1654,-0.3259,-0.3121,-0.3028,-0.2353,-0.1367,-0.0848,-0.0381,-0.0,-0.0,-0.0,-0.0,0.0259,0.0474,0.0603,0.0646,0.0903,0.1328,0.1179,0.1561,0.2372,0.2372,0.271,0.3304,0.3488,0.358,0.3578,0.3492,0.3453,0.3405,0.3364,0.3363,0.3488,0.3485,0.3606,0.3831,0.3637,0.3668,0.3845,0.3489,0.3666,0.43,0.4468,0.4762,0.5271,0.4963,0.4673,0.4409,0.4064,0.3772,0.3505,0.3509,0.3509,0.3506,0.3689,0.3496,0.0,0.0,0.0,0.0,0.0,0.0,0.0,0.0,0.0,0.0,0.0,0.382,0.3629,0.3786,0.4007,0.4269,0.46,0.4709,0.4544,0.4961,0.5242,0.5242,0.5656,0.5758,0.5297,0.5901,0.6734,0.7591,0.7674,0.7704,0.7679,0.7821,0.8047,0.8487,0.8594,0.8737,0.8931,0.8971,0.9141,0.969,0.9734,0.9769,0.9955,1.0071,1.0159,1.0107,1.0794,1.1232,1.0785,1.0802,1.0992,1.1207,1.1426,1.1679,1.1652,1.1328,1.1284,1.2115,1.2053,1.1907,-0.3621,-0.337,-0.3217,-0.312,-0.3011,-0.2063,-0.1182,-0.0364,-0.0091,-0.0,-0.0,-0.0,0.0144,0.0433,0.0626,0.0962,0.1389,0.0928,0.1184,0.1997,0.2077,0.2384,0.2922,0.3361,0.358,0.358,0.358,0.358,0.358,0.358,0.3619,0.37,0.3699,0.3744,0.3869,0.3717,0.3629,0.3702,0.3704,0.3949,0.4545,0.4484,0.4684,0.5235,0.5199,0.49,0.4319,0.4261,0.3993,0.3503,0.3485,0.3509,0.3548,0.3727,0.3848,0.0,0.3472,0.0,0.0,0.0,0.0,0.0,0.0,0.0,0.0,0.3727,0.4053,0.4485,0.4302,0.4323,0.4751,0.4877,0.4921,0.4942,0.5473,0.5857,0.5915,0.6367,0.6502,0.6039,0.665,0.724,0.7646,0.7674,0.7674,0.7701,0.8002,0.8201,0.8263,0.8639,0.8886,0.8756,0.8895,0.9056,0.9096,0.9056,0.9247,0.9801,0.9871,0.9935,1.0186,1.1338,1.1969,1.1076,1.1063,1.1261,1.1271,1.1309,1.1309,1.1318,1.1384,1.1688,1.2405,1.2377,1.2283,-0.3625,-0.337,-0.337,-0.3272,-0.3166,-0.2973,-0.276,-0.2468,-0.0739,-0.0,-0.0,-0.0,0.005,0.015,0.0649,0.0898,0.0898,0.0842,0.1086,0.1626,0.2004,0.2441,0.29,0.3407,0.358,0.358,0.358,0.358,0.358,0.358,0.358,0.3622,0.3622,0.3663,0.3741,0.0,0.0,0.0,0.4389,0.479,0.4923,0.5366,0.5467,0.5215,0.4695,0.0,0.3693,0.3448,0.3309,0.3251,0.3421,0.0,0.0,0.0,0.0,0.0,0.0,0.0,0.0,0.0,0.0,0.0,0.4522,0.4317,0.3849,0.3877,0.4141,0.4694,0.5161,0.5247,0.4839,0.53,0.5607,0.5643,0.5973,0.627,0.6526,0.664,0.6713,0.6834,0.7014,0.7279,0.7594,0.7674,0.7697,0.7713,0.816,0.8561,0.8798,0.8777,0.8805,0.889,0.898,0.9016,0.9016,0.9041,0.9241,0.9527,0.9397,0.9598,1.0427,1.106,1.1549,1.1174,1.1269,1.1314,1.1309,1.1272,1.1272,1.1272,1.1628,1.2072,1.246,1.2027,1.1528,-0.398,0.0,-0.3715,-0.3609,0.0,-0.3451,-0.34,-0.329,-0.2149,-0.1007,-0.0,-0.0,-0.0,-0.0,0.0311,0.057,0.088,0.0814,0.0908,0.1209,0.1926,0.2397,0.2685,0.3448,0.3758,0.3687,0.3683,0.3648,0.3581,0.358,0.358,0.358,0.358,0.3624,0.3661,0.3699,0.3754,0.3886,0.4282,0.4587,0.4766,0.4993,0.5022,0.4836,0.4337,0.0,0.0,0.0,0.0,0.0,0.0,0.0,0.0,0.0,0.0,0.3731,0.3882,0.4249,0.4743,0.451,0.448,0.4785,0.5107,0.4995,0.4248,0.4278,0.4612,0.522,0.5627,0.578,0.5745,0.6042,0.6265,0.6271,0.6548,0.6812,0.6924,0.7088,0.7226,0.7368,0.7393,0.7481,0.7686,0.7674,0.7708,0.7724,0.816,0.861,0.8921,0.8924,0.8895,0.8971,0.9016,0.9114,0.935,0.9504,0.9572,0.9785,0.9698,0.9856,1.0547,1.1015,1.1279,1.1321,1.1528,1.1628,1.1326,1.1272,1.1272,1.1326,1.1528,1.175,1.1885,1.1731,1.1528,-0.4353,-0.4136,-0.4078,-0.3912,-0.3742,-0.3638,-0.3585,-0.3627,0.0,0.0,0.0,-0.0,-0.0,-0.0,-0.0,0.0269,0.0697,0.073,0.0771,0.0874,0.1786,0.2339,0.2442,0.3378,0.384,0.3793,0.3835,0.3719,0.3583,0.358,0.358,0.358,0.358,0.358,0.358,0.3704,0.3836,0.4058,0.4095,0.4265,0.4573,0.4548,0.4508,0.449,0.4041,0.3733,0.366,0.365,0.3556,0.3341,0.3363,0.3392,0.3484,0.3782,0.3931,0.3845,0.4399,0.4815,0.4962,0.4925,0.4919,0.5052,0.5612,0.5604,0.4781,0.4876,0.5231,0.5842,0.6029,0.6303,0.6662,0.6834,0.6869,0.6815,0.703,0.7201,0.7281,0.7499,0.7686,0.7674,0.7693,0.767,0.7712,0.7674,0.7712,0.7746,0.8115,0.8557,0.8889,0.8973,0.8975,0.9016,0.902,0.9183,0.9662,1.0124,1.0241,1.0211,1.0156,1.0268,1.0717,1.1043,1.126,1.1301,1.1673,1.1673,1.1372,1.1272,1.1272,1.1272,1.1272,1.1272,1.1322,1.1578,1.1628,-0.4296,-0.4022,-0.4021,-0.3856,-0.3638,-0.3581,-0.3585,-0.3583,-0.3557,-0.221,-0.0,-0.0,-0.0,-0.0,-0.0,0.0056,0.0167,0.0499,0.0719,0.0883,0.1444,0.2004,0.253,0.3012,0.3448,0.3799,0.379,0.3717,0.3593,0.3578,0.358,0.358,0.358,0.358,0.3624,0.3796,0.3882,0.3928,0.4426,0.4758,0.4916,0.5316,0.5144,0.4428,0.3693,0.3209,0.3056,0.3024,0.3055,0.305,0.3162,0.3287,0.3406,0.348,0.3963,0.4918,0.4981,0.5162,0.5622,0.5402,0.5469,0.605,0.6402,0.6284,0.5705,0.566,0.5835,0.6269,0.6969,0.724,0.6848,0.7201,0.7425,0.7183,0.7203,0.7335,0.755,0.7679,0.7674,0.7674,0.7674,0.7674,0.7674,0.7674,0.7697,0.7754,0.8152,0.8541,0.8916,0.8984,0.9016,0.9016,0.9016,0.9234,0.983,1.06,1.0857,1.0629,1.0343,1.0384,1.1047,1.124,1.1292,1.1267,1.1427,1.1372,1.1272,1.1272,1.1272,1.1272,1.1272,1.1272,1.1272,1.1372,1.1372,-0.4406,-0.4244,-0.4136,-0.397,-0.3803,-0.3694,-0.3585,-0.3585,-0.3588,-0.2632,-0.1007,-0.028,-0.0,-0.0,-0.0,-0.0,-0.0,0.0336,0.0617,0.0952,0.1432,0.1858,0.213,0.2633,0.2952,0.3045,0.3038,0.2945,0.2827,0.3081,0.3214,0.3214,0.3442,0.358,0.3622,0.3707,0.3834,0.3882,0.432,0.4581,0.4618,0.483,0.4653,0.4042,0.3473,0.3151,0.3054,0.305,0.3075,0.3086,0.3185,0.3227,0.3281,0.3537,0.4174,0.5219,0.5205,0.5498,0.6253,0.6151,0.6208,0.6512,0.6789,0.6863,0.6515,0.6365,0.6491,0.7026,0.7499,0.7598,0.7298,0.7506,0.7631,0.7492,0.7452,0.7513,0.7682,0.7674,0.7674,0.7674,0.7674,0.7674,0.7674,0.7674,0.7708,0.7731,0.8269,0.8782,0.8992,0.9024,0.9069,0.9277,0.9133,0.9414,1.0129,1.0809,1.1148,1.1036,1.0891,1.0901,1.125,1.1272,1.1272,1.1272,1.1272,1.1272,1.1272,1.1272,1.1272,1.1272,1.1272,1.1272,1.1272,1.1272,1.1272,-0.4463,-0.441,-0.4247,-0.4084,-0.3913,-0.3692,-0.3585,-0.3585,-0.3585,-0.3079,-0.207,-0.0672,-0.0,-0.0,-0.0,-0.0,-0.0,0.028,0.0561,0.0897,0.1401,0.1678,0.1846,0.2292,0.2481,0.2436,0.2418,0.2323,0.2162,0.2499,0.2767,0.2943,0.3352,0.358,0.358,0.366,0.3744,0.388,0.4142,0.4274,0.4316,0.4322,0.412,0.3768,0.3481,0.3292,0.3306,0.3291,0.3271,0.3269,0.323,0.321,0.321,0.3534,0.4217,0.5173,0.5438,0.5829,0.6601,0.6774,0.6811,0.6822,0.7117,0.7306,0.7218,0.706,0.7121,0.7624,0.7701,0.7708,0.7682,0.7697,0.7674,0.7674,0.7674,0.7663,0.767,0.7674,0.7674,0.7674,0.7674,0.7674,0.7674,0.7674,0.7757,0.7968,0.8507,0.8987,0.909,0.9112,0.9324,0.9589,0.9525,0.9666,1.0574,1.1023,1.1283,1.1272,1.1259,1.1246,1.1272,1.1272,1.1272,1.1272,1.1272,1.1272,1.1272,1.1272,1.1272,1.1272,1.1272,1.1272,1.1272,1.1272,1.1272,-0.441,-0.4249,-0.4193,-0.3973,-0.3638,-0.3581,-0.3585,-0.3585,-0.3585,-0.3585,-0.3135,-0.1008,-0.0,-0.0,-0.0,-0.0,-0.0,0.028,0.0561,0.0897,0.0953,0.1288,0.1734,0.1846,0.2052,0.2334,0.2368,0.2179,0.2016,0.2145,0.2454,0.2898,0.3352,0.358,0.3624,0.366,0.3699,0.3699,0.3972,0.4194,0.4308,0.4282,0.4181,0.3992,0.377,0.3669,0.3627,0.3541,0.3462,0.3446,0.3305,0.3214,0.321,0.3241,0.3877,0.5179,0.5782,0.6281,0.6596,0.6933,0.7142,0.7168,0.747,0.7646,0.7635,0.7579,0.7631,0.7708,0.7674,0.7674,0.7674,0.7674,0.7674,0.7674,0.7674,0.7674,0.7674,0.7674,0.7674,0.7674,0.7674,0.7674,0.7674,0.771,0.7877,0.8226,0.877,0.9211,0.941,0.9504,0.9782,1.0258,1.022,1.0177,1.069,1.1036,1.1238,1.1272,1.1272,1.1272,1.1272,1.1272,1.1272,1.1272,1.1272,1.1272,1.1272,1.1272,1.1272,1.1272,1.1272,1.1272,1.1272,1.1272,1.1272,-0.4465,-0.4358,-0.4363,-0.4084,-0.3631,-0.358,-0.3585,-0.3585,-0.3585,-0.3585,-0.3473,-0.2517,-0.1343,-0.0,-0.0,-0.0,-0.0,0.0112,0.0449,0.0841,0.0897,0.1066,0.1232,0.1288,0.1351,0.1468,0.146,0.1405,0.1316,0.1567,0.2234,0.317,0.326,0.3306,0.3578,0.366,0.3699,0.3699,0.3882,0.406,0.4186,0.4254,0.4208,0.402,0.4028,0.3929,0.371,0.3629,0.3597,0.3632,0.3523,0.3388,0.322,0.321,0.3459,0.4119,0.5713,0.6695,0.6772,0.7173,0.7422,0.7477,0.7635,0.7674,0.7674,0.7674,0.7674,0.7674,0.7674,0.7674,0.7674,0.7674,0.7674,0.7674,0.7674,0.7674,0.7674,0.7674,0.7674,0.7674,0.7674,0.7677,0.7686,0.7704,0.7898,0.8461,0.9121,0.9659,0.9692,0.979,1.0105,1.0501,1.0467,1.0587,1.0942,1.1156,1.1263,1.1272,1.1272,1.1272,1.1272,1.1272,1.1272,1.1272,1.1272,1.1272,1.1272,1.1272,1.1272,1.1272,1.1272,1.1272,1.1272,1.1272,1.1272,-0.4462,-0.4465,-0.4418,-0.4135,-0.3683,-0.3635,-0.3585,-0.3585,-0.3585,-0.3585,-0.3585,-0.3585,-0.2631,-0.1065,-0.0336,-0.0,-0.0,-0.0,0.0224,0.0673,0.0785,0.0897,0.0897,0.0897,0.087,0.0825,0.081,0.0776,0.077,0.1165,0.1879,0.2681,0.2855,0.3078,0.3396,0.3571,0.3658,0.3704,0.379,0.3926,0.406,0.4192,0.4217,0.4103,0.4219,0.415,0.3892,0.3804,0.3776,0.3776,0.373,0.3587,0.3344,0.3322,0.3364,0.3634,0.5397,0.6635,0.671,0.6987,0.7227,0.7409,0.7503,0.7545,0.7587,0.7632,0.7674,0.7674,0.7674,0.7674,0.7674,0.7674,0.7674,0.7674,0.7674,0.7674,0.7674,0.7674,0.7674,0.7674,0.781,0.7891,0.7932,0.784,0.7925,0.8614,0.9526,1.0162,0.9972,1.0124,1.0395,1.0801,1.0788,1.0886,1.1203,1.1267,1.1272,1.1272,1.1272,1.1272,1.1272,1.1272,1.1272,1.1272,1.1272,1.1272,1.1272,1.1272,1.1272,1.1272,1.1272,1.1272,1.1272,1.1272,1.1272,-0.4462,-0.446,-0.4187,-0.3965,-0.3853,-0.3692,-0.3585,-0.3585,-0.3585,-0.3585,-0.3585,-0.3585,-0.3532,-0.3144,-0.1064,-0.0,-0.0,-0.0,-0.0,-0.0,0.0617,0.0897,0.0897,0.0897,0.0881,0.0899,0.0822,0.078,0.0724,0.1123,0.1165,0.0984,0.2185,0.2898,0.3033,0.3396,0.3622,0.3622,0.366,0.3744,0.3926,0.4156,0.428,0.425,0.4303,0.4287,0.4217,0.4087,0.4004,0.3965,0.3812,0.37,0.3679,0.3677,0.3836,0.4268,0.501,0.5751,0.6186,0.6371,0.6507,0.6768,0.7076,0.7255,0.7297,0.7548,0.7674,0.7674,0.7674,0.7674,0.7759,0.7737,0.7677,0.7674,0.7674,0.7674,0.7674,0.7748,0.7677,0.7717,0.7986,0.8268,0.8579,0.8078,0.8259,0.8898,0.9834,1.0382,1.0348,1.0502,1.0804,1.1083,1.1195,1.1242,1.1272,1.1272,1.1272,1.1272,1.1272,1.1272,1.1272,1.1272,1.1272,1.1272,1.1272,1.1272,1.1272,1.1272,1.1272,1.1272,1.1272,1.1272,1.1272,1.1272,1.1272,-0.4462,-0.4463,-0.4245,-0.4022,-0.3909,-0.3801,-0.3691,-0.3585,-0.3585,-0.3585,-0.3585,-0.3585,-0.3585,-0.3532,-0.1903,-0.0728,-0.0,-0.0,-0.0,-0.0,0.0224,0.0505,0.0841,0.0897,0.0881,0.0907,0.0893,0.0806,0.0754,0.0935,0.092,0.0853,0.152,0.2233,0.281,0.3078,0.3304,0.3578,0.3621,0.3661,0.379,0.3974,0.411,0.4152,0.423,0.432,0.432,0.4211,0.4183,0.4183,0.4116,0.4081,0.4081,0.4083,0.4132,0.4341,0.4923,0.5567,0.617,0.6261,0.6304,0.6513,0.695,0.7167,0.7251,0.7507,0.7674,0.7674,0.7674,0.781,0.8019,0.7891,0.7677,0.7674,0.7677,0.7695,0.7759,0.7887,0.7953,0.7847,0.8169,0.8612,0.8827,0.8895,0.8984,0.9107,0.9615,1.0071,1.0428,1.0673,1.0968,1.117,1.1272,1.1272,1.1272,1.1272,1.1272,1.1272,1.1272,1.1272,1.1272,1.1272,1.1272,1.1272,1.1272,1.1272,1.1272,1.1272,1.1272,1.1272,1.1272,1.1272,1.1272,1.1272,1.1272,-0.4462,-0.4463,-0.4302,-0.4079,-0.3909,-0.3852,-0.3744,-0.3585,-0.3585,-0.3585,-0.3585,-0.3585,-0.3585,-0.3474,-0.2745,-0.1456,-0.0,-0.0,-0.0,-0.0,-0.0,0.0336,0.0841,0.0897,0.0886,0.0867,0.0909,0.0826,0.0735,0.0778,0.0767,0.0747,0.1212,0.1757,0.2376,0.273,0.3083,0.3364,0.3532,0.3663,0.3748,0.388,0.4018,0.4148,0.4276,0.432,0.432,0.432,0.432,0.432,0.432,0.432,0.432,0.432,0.432,0.4364,0.4668,0.5145,0.5696,0.5795,0.5924,0.6179,0.6614,0.6872,0.6911,0.7374,0.7628,0.7674,0.7685,0.7953,0.8535,0.8516,0.8216,0.7982,0.7964,0.7975,0.7905,0.8162,0.8264,0.8286,0.8666,0.9021,0.919,0.9442,0.9479,0.9332,0.9647,1.0064,1.0458,1.0824,1.1074,1.1276,1.1272,1.1272,1.1272,1.1272,1.1272,1.1272,1.1272,1.1272,1.1272,1.1272,1.1272,1.1272,1.1272,1.1272,1.1272,1.1272,1.1272,1.1272,1.1272,1.1272,1.1272,1.1272,1.1272,-0.4462,-0.4463,-0.4301,-0.4135,-0.4021,-0.3907,-0.3745,-0.364,-0.3638,-0.364,-0.3584,-0.3585,-0.3585,-0.3585,-0.3422,-0.2242,-0.0,-0.0,-0.0,-0.0,-0.0,-0.0,0.0785,0.0841,0.0897,0.0892,0.0867,0.0838,0.0809,0.0807,0.0805,0.0854,0.1198,0.147,0.1571,0.2412,0.2876,0.303,0.3363,0.3667,0.388,0.3836,0.3966,0.4232,0.432,0.432,0.432,0.432,0.432,0.432,0.432,0.432,0.432,0.432,0.432,0.432,0.4316,0.4491,0.4712,0.4978,0.5331,0.5844,0.6099,0.6355,0.6565,0.7118,0.7628,0.7674,0.7891,0.8286,0.9288,0.9453,0.9091,0.841,0.8418,0.8454,0.8334,0.8491,0.8769,0.8955,0.9292,0.957,0.9603,0.9599,0.9585,0.9629,1.002,1.036,1.0466,1.082,1.1221,1.1272,1.1272,1.1272,1.1272,1.1272,1.1272,1.1272,1.1272,1.1272,1.1272,1.1272,1.1272,1.1272,1.1272,1.1272,1.1272,1.1272,1.1272,1.1272,1.1272,1.1272,1.1272,1.1272,1.1272,-0.4462,-0.4462,-0.4462,-0.4301,-0.4135,-0.4079,-0.3967,-0.3742,-0.3744,-0.369,-0.364,-0.3585,-0.3585,-0.3585,-0.3588,-0.2744,-0.1231,-0.0,-0.0,-0.0,-0.0,-0.0,0.0336,0.0729,0.0897,0.0896,0.0888,0.0867,0.0843,0.0838,0.088,0.0912,0.096,0.1204,0.1536,0.212,0.254,0.293,0.3353,0.3665,0.3746,0.3836,0.397,0.4148,0.4232,0.432,0.432,0.432,0.432,0.432,0.432,0.432,0.432,0.432,0.432,0.432,0.432,0.4318,0.4447,0.4803,0.5412,0.6136,0.6264,0.648,0.6781,0.6956,0.7258,0.7712,0.8469,0.9259,0.9515,0.9618,0.9296,0.8612,0.8626,0.8688,0.8615,0.8769,0.9058,0.9361,0.9541,0.961,0.9618,0.9618,0.9618,0.9673,1.0121,1.0451,1.0419,1.0765,1.112,1.1272,1.1272,1.1272,1.1272,1.1272,1.1272,1.1272,1.1272,1.1272,1.1272,1.1272,1.1272,1.1272,1.1272,1.1272,1.1272,1.1272,1.1272,1.1272,1.1272,1.1272,1.1272,1.1272,1.1272,-0.4462,-0.4462,-0.4462,-0.4353,-0.4193,-0.4193,-0.4022,-0.385,-0.3795,-0.3745,-0.364,-0.3585,-0.3585,-0.3585,-0.3585,-0.3193,-0.2352,-0.0,-0.0,-0.0,-0.0,-0.0,-0.0,0.0505,0.0785,0.0897,0.0897,0.0888,0.087,0.0868,0.086,0.0897,0.084,0.0939,0.1288,0.1708,0.2208,0.2621,0.3152,0.355,0.3741,0.3898,0.4036,0.416,0.4232,0.4276,0.432,0.432,0.432,0.432,0.432,0.432,0.432,0.432,0.432,0.432,0.432,0.432,0.4364,0.4764,0.5285,0.5962,0.6053,0.6324,0.6869,0.6958,0.7308,0.776,0.8814,0.9618,0.961,0.9618,0.942,0.9094,0.9047,0.9032,0.9051,0.9146,0.931,0.9541,0.9614,0.9618,0.9618,0.9618,0.9618,0.9673,1.0118,1.0458,1.0474,1.0765,1.107,1.1272,1.1272,1.1272,1.1272,1.1272,1.1272,1.1272,1.1272,1.1272,1.1272,1.1272,1.1272,1.1272,1.1272,1.1272,1.1272,1.1272,1.1272,1.1272,1.1272,1.1272,1.1272,1.1272,1.1272,-0.4462,-0.4462,-0.4462,-0.4408,-0.4247,-0.4249,-0.4079,-0.3852,-0.385,-0.3742,-0.3638,-0.3583,-0.3585,-0.3585,-0.3585,-0.3531,-0.3199,-0.0,-0.0,-0.0,-0.0,-0.0,-0.0,0.028,0.0561,0.0841,0.0897,0.0896,0.0892,0.0893,0.0897,0.089,0.0887,0.0882,0.1018,0.1383,0.1843,0.2201,0.2766,0.3278,0.3776,0.397,0.4159,0.4274,0.4311,0.43,0.432,0.432,0.432,0.432,0.432,0.432,0.432,0.432,0.432,0.432,0.432,0.432,0.4408,0.4721,0.5113,0.5453,0.5682,0.5999,0.6672,0.7237,0.7656,0.7916,0.8726,0.9354,0.9406,0.9462,0.9429,0.9555,0.9456,0.9519,0.9592,0.9574,0.9581,0.9596,0.9618,0.9618,0.9618,0.9618,0.9618,0.9669,1.0039,1.0253,1.0573,1.082,1.1171,1.1272,1.1272,1.1272,1.1272,1.1272,1.1272,1.1272,1.1272,1.1272,1.1272,1.1272,1.1272,1.1272,1.1272,1.1272,1.1272,1.1272,1.1272,1.1272,1.1272,1.1272,1.1272,1.1272,1.1272,-0.4462,-0.4462,-0.4462,-0.4463,-0.4408,-0.4408,-0.4301,-0.4079,-0.3965,-0.3856,-0.3745,-0.3638,-0.3585,-0.3585,-0.3585,-0.3585,-0.3193,-0.2015,-0.0728,-0.0,-0.0,-0.0,-0.0,0.0056,0.0393,0.0841,0.0897,0.0897,0.0897,0.0897,0.0897,0.0897,0.0897,0.0894,0.0939,0.1347,0.1635,0.1804,0.2226,0.2846,0.3524,0.3675,0.3926,0.4403,0.4431,0.4406,0.4338,0.432,0.432,0.432,0.432,0.432,0.432,0.432,0.432,0.432,0.432,0.432,0.4408,0.4764,0.52,0.5626,0.5696,0.6045,0.6871,0.7314,0.7895,0.8305,0.8274,0.8193,0.8778,0.8886,0.8893,0.9162,0.9465,0.9618,0.9618,0.9618,0.9618,0.9618,0.9618,0.9618,0.9618,0.9618,0.9618,0.9614,0.9762,1.0123,1.051,1.0824,1.112,1.1272,1.1272,1.1272,1.1272,1.1272,1.1272,1.1272,1.1272,1.1272,1.1272,1.1272,1.1272,1.1272,1.1272,1.1272,1.1272,1.1272,1.1272,1.1272,1.1272,1.1272,1.1272,1.1272,1.1272,-0.4462,-0.4462,-0.4462,-0.4462,-0.4462,-0.4462,-0.4411,-0.419,-0.4078,-0.3909,-0.3798,-0.3637,-0.3585,-0.3585,-0.3585,-0.3585,-0.3473,-0.2854,-0.1623,-0.0,-0.0,-0.0,-0.0,0.0112,0.0336,0.0673,0.0841,0.0897,0.0897,0.0897,0.0897,0.0897,0.0897,0.0897,0.0895,0.1156,0.1401,0.1597,0.1894,0.2445,0.3325,0.3516,0.3923,0.4405,0.4558,0.457,0.4418,0.439,0.4359,0.4298,0.432,0.432,0.432,0.432,0.432,0.432,0.432,0.432,0.4408,0.4762,0.5113,0.5479,0.5657,0.6251,0.6867,0.7264,0.7844,0.827,0.8195,0.8383,0.8666,0.8834,0.8995,0.9256,0.9465,0.9618,0.9618,0.9618,0.9618,0.9618,0.9618,0.9618,0.9618,0.9618,0.9618,0.9614,0.9599,1.0024,1.0454,1.0714,1.0972,1.1171,1.1272,1.1272,1.1272,1.1272,1.1272,1.1272,1.1272,1.1272,1.1272,1.1272,1.1272,1.1272,1.1272,1.1272,1.1272,1.1272,1.1272,1.1272,1.1272,1.1272,1.1272,1.1272,1.1272,-0.4462,-0.4462,-0.4462,-0.4462,-0.4462,-0.4462,-0.441,-0.4247,-0.4079,-0.3964,-0.3798,-0.3692,-0.364,-0.3585,-0.3585,-0.3585,-0.3585,-0.3471,-0.2014,-0.0,-0.0,-0.0,-0.0,0.0336,0.0505,0.0561,0.0785,0.0841,0.0897,0.0897,0.0897,0.0897,0.0897,0.0897,0.0897,0.0951,0.1156,0.157,0.1753,0.2428,0.3285,0.3677,0.4077,0.4617,0.4734,0.4668,0.4562,0.4517,0.4497,0.4315,0.4328,0.432,0.432,0.432,0.432,0.432,0.432,0.432,0.4364,0.4716,0.5006,0.5181,0.5643,0.6239,0.6806,0.7154,0.7448,0.7945,0.8817,0.8827,0.9037,0.9305,0.9305,0.9305,0.9406,0.9562,0.9566,0.9566,0.9618,0.9618,0.9618,0.9618,0.9618,0.9618,0.9618,0.9618,0.9658,0.9925,1.0352,1.0612,1.0918,1.1221,1.1272,1.1272,1.1272,1.1272,1.1272,1.1272,1.1272,1.1272,1.1272,1.1272,1.1272,1.1272,1.1272,1.1272,1.1272,1.1272,1.1272,1.1272,1.1272,1.1272,1.1272,1.1272,1.1272,-0.4462,-0.4462,-0.4462,-0.4462,-0.4462,-0.4462,-0.4463,-0.441,-0.4247,-0.4078,-0.3965,-0.3799,-0.3691,-0.3585,-0.3585,-0.3585,-0.3585,-0.3474,-0.2294,-0.0,-0.0,-0.0,-0.0,0.0505,0.0729,0.0785,0.0841,0.0897,0.0897,0.0897,0.0897,0.0897,0.0897,0.0897,0.0897,0.0897,0.1174,0.1663,0.1785,0.2494,0.355,0.3868,0.4274,0.4876,0.4901,0.4804,0.4767,0.4749,0.4662,0.4501,0.4355,0.432,0.432,0.432,0.432,0.432,0.432,0.432,0.4368,0.4558,0.4874,0.526,0.5631,0.6058,0.6656,0.68,0.7115,0.7532,0.7717,0.8249,0.9194,0.9208,0.9099,0.8995,0.9305,0.9514,0.9263,0.9409,0.9566,0.9618,0.9618,0.9618,0.9618,0.9618,0.9618,0.9618,0.9721,0.9932,1.0198,1.0565,1.0871,1.1226,1.1272,1.1272,1.1272,1.1272,1.1272,1.1272,1.1272,1.1272,1.1272,1.1272,1.1272,1.1272,1.1272,1.1272,1.1272,1.1272,1.1272,1.1272,1.1272,1.1272,1.1272,1.1272,1.1272,-0.4462,-0.4462,-0.4462,-0.4462,-0.4462,-0.4462,-0.4462,-0.4463,-0.4302,-0.4135,-0.3965,-0.3852,-0.3747,-0.3583,-0.3585,-0.3585,-0.3585,-0.3585,-0.2631,-0.0,-0.0,-0.0,-0.0,0.0449,0.0729,0.0841,0.0897,0.0897,0.0897,0.0897,0.0897,0.0897,0.0897,0.0897,0.0897,0.0897,0.1233,0.1677,0.1847,0.2514,0.3678,0.395,0.4376,0.5004,0.5106,0.5029,0.4946,0.4936,0.4838,0.4654,0.443,0.4324,0.4322,0.4322,0.4322,0.432,0.432,0.4329,0.441,0.4632,0.4983,0.5415,0.5755,0.6178,0.66,0.6781,0.6957,0.7247,0.7402,0.7771,0.9298,0.9256,0.8945,0.9096,0.9302,0.9517,0.9364,0.9465,0.9618,0.9618,0.9618,0.9618,0.9618,0.9618,0.9618,0.9618,0.9618,0.9829,1.0253,1.0569,1.0824,1.1124,1.1226,1.1272,1.1272,1.1272,1.1272,1.1272,1.1272,1.1272,1.1272,1.1272,1.1272,1.1272,1.1272,1.1272,1.1272,1.1272,1.1272,1.1272,1.1272,1.1272,1.1272,1.1272,1.1272,-0.4462,-0.4462,-0.4462,-0.4462,-0.4462,-0.4462,-0.4462,-0.4462,-0.4301,-0.4135,-0.3965,-0.3852,-0.3745,-0.364,-0.3585,-0.3585,-0.3585,-0.3585,-0.2855,-0.2073,-0.056,-0.0,-0.0,0.028,0.0617,0.0841,0.0897,0.0897,0.0897,0.0897,0.0897,0.0897,0.0897,0.0897,0.0897,0.0897,0.1177,0.1734,0.1791,0.2459,0.3573,0.3901,0.4393,0.505,0.5257,0.5189,0.5145,0.5108,0.5037,0.4849,0.4583,0.448,0.4404,0.4355,0.43,0.4351,0.4343,0.4436,0.4503,0.4798,0.518,0.562,0.6031,0.6422,0.6717,0.6939,0.7082,0.7117,0.7241,0.761,0.8977,0.9222,0.9166,0.9309,0.9458,0.9562,0.9562,0.951,0.9618,0.9618,0.9618,0.9618,0.9618,0.9618,0.9618,0.9618,0.9618,0.9777,1.0201,1.0569,1.0824,1.1074,1.1221,1.1272,1.1272,1.1272,1.1272,1.1272,1.1272,1.1272,1.1272,1.1272,1.1272,1.1272,1.1272,1.1272,1.1272,1.1272,1.1272,1.1272,1.1272,1.1272,1.1272,1.1272,1.1272,-0.4462,-0.4462,-0.4462,-0.4462,-0.4462,-0.4462,-0.4462,-0.4465,-0.4302,-0.4135,-0.3965,-0.3852,-0.3745,-0.364,-0.3585,-0.3585,-0.3585,-0.3585,-0.3475,-0.2805,-0.1233,-0.0,-0.0,0.0224,0.0561,0.0785,0.0897,0.0897,0.0897,0.0897,0.0897,0.0897,0.0897,0.0897,0.0897,0.0897,0.1177,0.1734,0.1846,0.2514,0.3516,0.3961,0.4348,0.5075,0.5242,0.5275,0.5261,0.5239,0.5222,0.5066,0.5072,0.4985,0.4792,0.4719,0.4595,0.4467,0.4548,0.4639,0.4625,0.4939,0.5388,0.5855,0.6218,0.659,0.6916,0.705,0.7077,0.7136,0.7136,0.7295,0.7509,0.849,0.9036,0.8959,0.9152,0.9465,0.9316,0.9417,0.9618,0.9618,0.9618,0.9618,0.9618,0.9618,0.9618,0.9618,0.9618,0.9825,1.0297,1.0565,1.0773,1.1023,1.1272,1.1272,1.1272,1.1272,1.1272,1.1272,1.1272,1.1272,1.1272,1.1272,1.1272,1.1272,1.1272,1.1272,1.1272,1.1272,1.1272,1.1272,1.1272,1.1272,1.1272,1.1272,1.1272,-0.4462,-0.4462,-0.4462,-0.4462,-0.4462,-0.4462,-0.4462,-0.4462,-0.4301,-0.4135,-0.3965,-0.3853,-0.3747,-0.364,-0.3585,-0.3585,-0.3585,-0.3587,-0.3591,-0.3144,-0.1793,-0.0504,-0.0,-0.0,0.0505,0.0729,0.0785,0.0841,0.0897,0.0897,0.0897,0.0897,0.0897,0.0897,0.0897,0.0897,0.1233,0.1679,0.1846,0.2458,0.3685,0.4073,0.4682,0.4961,0.513,0.5242,0.5301,0.5301,0.5263,0.5259,0.5249,0.5191,0.5088,0.5008,0.4956,0.4851,0.4816,0.483,0.4865,0.5168,0.5591,0.6027,0.6382,0.6696,0.6993,0.7079,0.7136,0.7136,0.7136,0.7136,0.719,0.794,0.8309,0.8742,0.9106,0.9263,0.9364,0.9514,0.9566,0.9618,0.9618,0.9618,0.9618,0.9618,0.9618,0.9618,0.9618,0.9928,1.0293,1.051,1.0671,1.1023,1.1272,1.1272,1.1272,1.1272,1.1272,1.1272,1.1272,1.1272,1.1272,1.1272,1.1272,1.1272,1.1272,1.1272,1.1272,1.1272,1.1272,1.1272,1.1272,1.1272,1.1272,1.1272,1.1272,-0.4462,-0.4462,-0.4462,-0.4462,-0.4462,-0.4462,-0.4462,-0.4463,-0.4247,-0.4079,-0.3967,-0.3856,-0.369,-0.364,-0.3585,-0.3585,-0.3585,-0.3585,-0.3589,-0.3365,-0.2295,-0.1119,-0.0,-0.0,0.0336,0.0785,0.0673,0.0673,0.0841,0.0897,0.0897,0.0897,0.0897,0.0897,0.0897,0.0897,0.1232,0.1456,0.1679,0.2292,0.3404,0.4403,0.4903,0.5071,0.5071,0.5185,0.5299,0.5301,0.5301,0.5285,0.5295,0.5293,0.5299,0.5299,0.5299,0.5253,0.5066,0.5023,0.5079,0.5387,0.5719,0.6161,0.6524,0.6807,0.7025,0.7136,0.7136,0.7136,0.7136,0.7136,0.713,0.716,0.7691,0.8355,0.8847,0.911,0.9309,0.9458,0.9566,0.9618,0.9618,0.9618,0.9618,0.9618,0.9618,0.9618,0.9618,0.9814,1.0182,1.0407,1.0671,1.1074,1.1272,1.1272,1.1272,1.1272,1.1272,1.1272,1.1272,1.1272,1.1272,1.1272,1.1272,1.1272,1.1272,1.1272,1.1272,1.1272,1.1272,1.1272,1.1272,1.1272,1.1272,1.1272,1.1272,-0.4462,-0.4462,-0.4462,-0.4462,-0.4462,-0.4462,-0.4462,-0.4462,-0.4189,-0.4021,-0.3965,-0.3749,-0.3638,-0.3584,-0.3585,-0.3585,-0.3585,-0.3585,-0.3585,-0.3418,-0.2463,-0.1287,-0.0,-0.0,-0.0,0.0785,0.0617,0.0617,0.0841,0.0897,0.0897,0.0897,0.0897,0.0897,0.0897,0.0897,0.0897,0.1009,0.1066,0.1623,0.2847,0.4015,0.4625,0.4903,0.5014,0.513,0.5299,0.5301,0.5301,0.5301,0.5301,0.5301,0.5301,0.5301,0.5301,0.5295,0.5243,0.5177,0.5147,0.5479,0.5831,0.6204,0.6537,0.6812,0.7028,0.7136,0.7136,0.7136,0.7136,0.7136,0.713,0.7106,0.7424,0.7919,0.8524,0.8794,0.9106,0.9305,0.9465,0.951,0.951,0.9562,0.9618,0.9618,0.9618,0.9618,0.9666,0.9865,1.0174,1.0454,1.0722,1.112,1.1272,1.1272,1.1272,1.1272,1.1272,1.1272,1.1272,1.1272,1.1272,1.1272,1.1272,1.1272,1.1272,1.1272,1.1272,1.1272,1.1272,1.1272,1.1272,1.1272,1.1272,1.1272,1.1272,-0.4462,-0.4462,-0.4462,-0.4462,-0.4462,-0.4462,-0.4462,-0.4408,-0.4132,-0.4021,-0.3967,-0.3694,-0.3585,-0.3585,-0.3585,-0.3585,-0.3585,-0.3585,-0.3585,-0.3585,-0.2911,-0.179,-0.0,-0.0,-0.0,0.0673,0.0785,0.0785,0.0897,0.0897,0.0897,0.0897,0.0897,0.0897,0.0897,0.0897,0.0897,0.1009,0.1233,0.1679,0.2403,0.3347,0.4179,0.4398,0.4787,0.5071,0.5244,0.5301,0.5301,0.5301,0.5301,0.5301,0.5301,0.5301,0.5301,0.5301,0.5299,0.5255,0.5263,0.5588,0.588,0.6213,0.6539,0.6812,0.7028,0.7136,0.7136,0.7136,0.7136,0.7136,0.7136,0.7122,0.7337,0.7714,0.8146,0.8365,0.8689,0.9057,0.926,0.9305,0.9402,0.951,0.9618,0.9618,0.9618,0.9618,0.9721,0.9928,1.0336,1.0757,1.1019,1.1221,1.1272,1.1272,1.1272,1.1272,1.1272,1.1272,1.1272,1.1272,1.1272,1.1272,1.1272,1.1272,1.1272,1.1272,1.1272,1.1272,1.1272,1.1272,1.1272,1.1272,1.1272,1.1272,1.1272,-0.4627,-0.4462,-0.4462,-0.4462,-0.4462,-0.4462,-0.4462,-0.4462,-0.4133,-0.4021,-0.3967,-0.3748,-0.3637,-0.3583,-0.3585,-0.3585,-0.3585,-0.3585,-0.3585,-0.3585,-0.3417,-0.2575,-0.0,-0.0,0.028,0.0785,0.0841,0.0897,0.0897,0.0897,0.0897,0.0897,0.0897,0.0897,0.0897,0.0897,0.0897,0.0953,0.1456,0.1734,0.2069,0.2847,0.3512,0.401,0.4453,0.4901,0.5244,0.5301,0.5301,0.5301,0.5301,0.5301,0.5301,0.5301,0.5301,0.5301,0.5301,0.5297,0.5334,0.5513,0.5841,0.6216,0.6593,0.692,0.7028,0.7136,0.7136,0.7136,0.7136,0.7136,0.7139,0.7252,0.7467,0.7619,0.7827,0.799,0.8259,0.8682,0.9152,0.9406,0.9506,0.9562,0.9618,0.9618,0.9618,0.9618,0.9777,1.0043,1.045,1.0964,1.1171,1.1272,1.1272,1.1272,1.1272,1.1272,1.1272,1.1272,1.1272,1.1272,1.1272,1.1272,1.1272,1.1272,1.1272,1.1272,1.1272,1.1272,1.1272,1.1272,1.1272,1.1272,1.1272,1.1272,1.1272,-0.4952,-0.4462,-0.4462,-0.4462,-0.4462,-0.4462,-0.4462,-0.4462,-0.4132,-0.4078,-0.4078,-0.391,-0.3691,-0.364,-0.3585,-0.3585,-0.3585,-0.3585,-0.3585,-0.3585,-0.353,-0.3307,-0.2353,-0.1176,-0.0,0.0336,0.0673,0.0897,0.0897,0.0897,0.0897,0.0897,0.0897,0.0897,0.0897,0.0897,0.0897,0.1009,0.14,0.1679,0.1846,0.2402,0.3067,0.3732,0.4064,0.4457,0.5244,0.5244,0.5301,0.5301,0.5301,0.5301,0.5301,0.5301,0.5301,0.5301,0.5301,0.5301,0.5356,0.5409,0.5677,0.6159,0.6645,0.7028,0.7082,0.7136,0.7136,0.7136,0.7136,0.7136,0.7362,0.7702,0.7809,0.7681,0.7723,0.799,0.8259,0.8521,0.8939,0.9402,0.9558,0.9614,0.9618,0.9618,0.9618,0.9618,1.0181,1.0451,1.0612,1.1015,1.1171,1.1272,1.1272,1.1272,1.1272,1.1272,1.1272,1.1272,1.1272,1.1272,1.1272,1.1272,1.1272,1.1272,1.1272,1.1272,1.1272,1.1272,1.1272,1.1272,1.1272,1.1272,1.1272,1.1272,1.1272,-0.5007,-0.4519,-0.4462,-0.4462,-0.4462,-0.4462,-0.4462,-0.4463,-0.4245,-0.4078,-0.3964,-0.3853,-0.3747,-0.364,-0.3585,-0.3585,-0.3585,-0.3585,-0.3585,-0.3585,-0.3587,-0.3588,-0.2913,-0.2128,-0.0952,-0.0448,0.028,0.0897,0.0897,0.0841,0.0897,0.0897,0.0897,0.0897,0.0897,0.0897,0.0897,0.0953,0.1121,0.1232,0.1401,0.1791,0.2347,0.2681,0.3454,0.39,0.4515,0.4798,0.502,0.5242,0.5301,0.5301,0.5301,0.5301,0.5301,0.5301,0.5301,0.5301,0.5299,0.5354,0.5567,0.6159,0.6701,0.7136,0.7136,0.7136,0.7136,0.7136,0.7136,0.7136,0.7195,0.7812,0.8146,0.7791,0.7723,0.7993,0.8259,0.8524,0.8732,0.9197,0.9458,0.9618,0.9618,0.9618,0.9618,0.9673,1.0347,1.0847,1.09,1.1019,1.1221,1.1272,1.1272,1.1272,1.1272,1.1272,1.1272,1.1272,1.1272,1.1272,1.1272,1.1272,1.1272,1.1272,1.1272,1.1272,1.1272,1.1272,1.1272,1.1272,1.1272,1.1272,1.1272,1.1272,1.1272,-0.5062,-0.4734,-0.4574,-0.4462,-0.4462,-0.4462,-0.4462,-0.4463,-0.4302,-0.4022,-0.3795,-0.3852,-0.3745,-0.364,-0.3585,-0.3585,-0.3585,-0.3585,-0.3585,-0.3585,-0.3585,-0.3585,-0.3302,-0.274,-0.1903,-0.1233,-0.0449,0.0224,0.0729,0.0785,0.0841,0.0841,0.0897,0.0897,0.0897,0.0897,0.0897,0.0897,0.0897,0.0897,0.1009,0.1289,0.1902,0.2124,0.262,0.3454,0.4181,0.4688,0.4969,0.5189,0.5301,0.5301,0.5301,0.5301,0.5301,0.5301,0.5301,0.5301,0.5354,0.5567,0.5727,0.6209,0.6758,0.7028,0.7136,0.7136,0.7136,0.7136,0.7136,0.7136,0.7139,0.7586,0.7916,0.7619,0.7937,0.8206,0.8312,0.8524,0.8679,0.8939,0.9253,0.9618,0.9618,0.9618,0.9725,0.9777,1.0269,1.0707,1.0891,1.1019,1.1221,1.1272,1.1272,1.1272,1.1272,1.1272,1.1272,1.1272,1.1272,1.1272,1.1272,1.1272,1.1272,1.1272,1.1272,1.1272,1.1272,1.1272,1.1272,1.1272,1.1272,1.1272,1.1272,1.1272,1.1272,-0.5334,-0.5224,-0.4734,-0.4462,-0.4462,-0.4462,-0.4462,-0.4463,-0.4302,-0.4078,-0.3852,-0.3909,-0.3856,-0.364,-0.3641,-0.3585,-0.3585,-0.3585,-0.3585,-0.3585,-0.3585,-0.3585,-0.3585,-0.3247,-0.2687,-0.1626,-0.0785,-0.0168,0.0449,0.0561,0.0673,0.0841,0.0897,0.0897,0.0897,0.0897,0.0897,0.0897,0.0897,0.0897,0.0897,0.1009,0.1511,0.1956,0.2063,0.2843,0.385,0.4463,0.4745,0.5077,0.5244,0.5301,0.5301,0.5301,0.5301,0.5301,0.5301,0.5301,0.5354,0.5837,0.6102,0.6263,0.6758,0.7082,0.7136,0.7136,0.7136,0.7136,0.7136,0.7136,0.7136,0.7246,0.7518,0.7836,0.8206,0.8573,0.8679,0.8784,0.8991,0.9096,0.9357,0.9618,0.9618,0.9618,0.9781,0.994,1.0257,1.0565,1.082,1.1023,1.1272,1.1272,1.1272,1.1272,1.1272,1.1272,1.1272,1.1272,1.1272,1.1272,1.1272,1.1272,1.1272,1.1272,1.1272,1.1272,1.1272,1.1272,1.1272,1.1272,1.1272,1.1272,1.1272,1.1272,1.1272,-0.5664,-0.5277,-0.4736,-0.4462,-0.4462,-0.4462,-0.4462,-0.4462,-0.4406,-0.4299,-0.4078,-0.4022,-0.3912,-0.3747,-0.3638,-0.3585,-0.3585,-0.3585,-0.3585,-0.3585,-0.3585,-0.3585,-0.3585,-0.353,-0.325,-0.2519,-0.1567,-0.0449,0.0393,0.0449,0.0673,0.0841,0.0897,0.0897,0.0897,0.0897,0.0897,0.0897,0.0897,0.0897,0.0897,0.0897,0.1177,0.1735,0.1788,0.2513,0.3574,0.4019,0.4465,0.491,0.5077,0.5244,0.5301,0.5301,0.5301,0.5301,0.5301,0.5301,0.5462,0.5782,0.6154,0.6374,0.6701,0.7082,0.7136,0.7136,0.7136,0.7136,0.7136,0.7136,0.7136,0.7687,0.8068,0.8318,0.8682,0.9096,0.9305,0.9305,0.9406,0.9406,0.9562,0.9618,0.9618,0.9666,0.9777,1.0054,1.0427,1.062,1.082,1.1074,1.1272,1.1272,1.1272,1.1272,1.1272,1.1272,1.1272,1.1272,1.1272,1.1272,1.1272,1.1272,1.1272,1.1272,1.1272,1.1272,1.1272,1.1272,1.1272,1.1272,1.1322,1.1322,1.1322,1.1322,1.1272,-0.6154,-0.555,-0.478,-0.4618,-0.4734,-0.4574,-0.4462,-0.4462,-0.4462,-0.441,-0.4192,-0.4079,-0.3965,-0.3798,-0.3745,-0.3638,-0.3585,-0.3585,-0.3585,-0.3585,-0.3585,-0.3585,-0.3585,-0.3587,-0.3535,-0.3084,-0.2186,-0.0953,0.0336,0.0393,0.0617,0.0841,0.0897,0.0897,0.0897,0.0897,0.0897,0.0897,0.0897,0.0897,0.0897,0.0953,0.1122,0.1569,0.2015,0.2631,0.3076,0.3576,0.4078,0.4577,0.491,0.5187,0.5244,0.5301,0.5301,0.5301,0.5301,0.5301,0.5462,0.5889,0.6154,0.6209,0.6756,0.7082,0.7136,0.7136,0.7136,0.7136,0.7136,0.7136,0.7246,0.7907,0.8115,0.8312,0.8735,0.9148,0.9562,0.9562,0.9562,0.9562,0.9614,0.9618,0.9618,0.9666,0.9769,1.0158,1.0545,1.0738,1.0926,1.112,1.1272,1.1272,1.1272,1.1272,1.1272,1.1272,1.1272,1.1272,1.1272,1.1272,1.1272,1.1272,1.1272,1.1272,1.1272,1.1272,1.1272,1.1272,1.1326,1.1322,1.1368,1.1368,1.1372,1.1372,1.1423,-0.6756,-0.6095,-0.4982,-0.4822,-0.5222,-0.4901,-0.4625,-0.4517,-0.4517,-0.441,-0.4193,-0.4192,-0.4022,-0.3852,-0.3798,-0.3691,-0.3638,-0.3585,-0.3585,-0.3585,-0.3585,-0.3585,-0.3585,-0.3587,-0.3592,-0.3603,-0.3042,-0.174,0.0056,0.0505,0.0673,0.0841,0.0897,0.0897,0.0897,0.0897,0.0897,0.0897,0.0897,0.0897,0.0897,0.0897,0.1289,0.1736,0.2351,0.2799,0.319,0.347,0.3912,0.4354,0.4689,0.4967,0.5189,0.5301,0.5301,0.5301,0.5301,0.5301,0.5407,0.5887,0.6154,0.6263,0.6753,0.7025,0.7136,0.7136,0.7136,0.7136,0.7136,0.7136,0.7246,0.7408,0.7622,0.7993,0.8474,0.8942,0.9462,0.9618,0.9618,0.9618,0.9618,0.9618,0.9618,0.9666,0.9773,1.032,1.0656,1.0916,1.1103,1.1171,1.1272,1.1272,1.1272,1.1272,1.1272,1.1272,1.1272,1.1272,1.1272,1.1272,1.1272,1.1272,1.1272,1.1272,1.1272,1.1272,1.1272,1.1326,1.1326,1.1322,1.141,1.1477,1.1482,1.1578,1.1628,-0.6974,-0.6694,-0.5126,-0.5021,-0.5875,-0.5773,-0.55,-0.5064,-0.4682,-0.4463,-0.441,-0.4133,-0.4021,-0.3909,-0.3747,-0.3637,-0.364,-0.3585,-0.3585,-0.3585,-0.3585,-0.3585,-0.3585,-0.3587,-0.3589,-0.3483,-0.3206,-0.2361,-0.0841,0.0056,0.0729,0.0897,0.0897,0.0897,0.0897,0.0897,0.0897,0.0897,0.0897,0.0897,0.0897,0.0897,0.14,0.2014,0.252,0.2969,0.3246,0.3359,0.3745,0.4133,0.4522,0.4855,0.5246,0.5301,0.5301,0.5301,0.5301,0.5301,0.5405,0.5887,0.6209,0.6317,0.6756,0.7025,0.7136,0.7136,0.7136,0.7136,0.7136,0.7136,0.7136,0.7244,0.7619,0.8099,0.8527,0.8942,0.9409,0.9618,0.9618,0.9618,0.9618,0.9618,0.9618,0.9618,0.9832,1.0379,1.0814,1.1082,1.1222,1.1289,1.1272,1.1272,1.1272,1.1272,1.1272,1.1272,1.1272,1.1272,1.1272,1.1272,1.1272,1.1272,1.1272,1.1272,1.1272,1.1272,1.1272,1.1326,1.1331,1.136,1.1397,1.1523,1.1641,1.1737,1.1828,-0.7209,-0.6966,-0.6239,-0.6246,-0.6766,-0.6652,-0.6209,-0.5605,-0.5062,-0.4736,-0.4462,-0.4187,-0.4078,-0.3965,-0.3801,-0.3637,-0.3585,-0.3585,-0.3585,-0.3585,-0.3585,-0.3585,-0.3585,-0.3473,-0.2854,-0.269,-0.2075,-0.1291,-0.0561,-0.0056,0.0561,0.0897,0.0897,0.0897,0.0897,0.0897,0.0897,0.0897,0.0897,0.0897,0.0897,0.0897,0.14,0.1959,0.2467,0.2914,0.3188,0.3245,0.3577,0.4132,0.4632,0.4857,0.5246,0.5301,0.5301,0.5301,0.5301,0.5301,0.5407,0.5887,0.61,0.6372,0.6756,0.7028,0.7136,0.7136,0.7136,0.7136,0.7136,0.7136,0.7136,0.719,0.7726,0.8315,0.8629,0.8998,0.9309,0.9566,0.9618,0.9618,0.9618,0.9618,0.9618,0.9618,0.9832,1.0379,1.0869,1.1141,1.1272,1.1285,1.1272,1.1272,1.1272,1.1272,1.1272,1.1272,1.1272,1.1272,1.1272,1.1272,1.1272,1.1272,1.1272,1.1272,1.1272,1.1272,1.1272,1.1326,1.1326,1.1405,1.1547,1.1669,1.1787,1.1882,1.1932,-0.7407,-0.7213,-0.7713,-0.7728,-0.7788,-0.7368,-0.681,-0.6204,-0.5605,-0.5062,-0.4574,-0.4244,-0.4079,-0.3965,-0.3801,-0.369,-0.364,-0.3585,-0.3585,-0.3585,-0.3585,-0.3585,-0.3585,-0.353,-0.2911,-0.1175,-0.0168,-0.0449,0.0224,0.0505,0.0505,0.0841,0.0897,0.0897,0.0897,0.0897,0.0897,0.0897,0.0897,0.0897,0.0897,0.0897,0.1066,0.1571,0.2189,0.2862,0.2964,0.3128,0.3463,0.4242,0.4745,0.4912,0.5134,0.5301,0.5301,0.5301,0.5301,0.5301,0.5462,0.5887,0.6157,0.6428,0.6756,0.7028,0.7136,0.7136,0.7136,0.7136,0.7136,0.7241,0.7241,0.7509,0.7993,0.8421,0.8742,0.9103,0.9406,0.9614,0.9618,0.9618,0.9618,0.9618,0.9618,0.9618,0.9832,1.0431,1.0886,1.1213,1.1272,1.1276,1.1272,1.1272,1.1272,1.1272,1.1272,1.1272,1.1272,1.1272,1.1272,1.1272,1.1272,1.1272,1.1272,1.1272,1.1272,1.1272,1.1272,1.1377,1.1473,1.1569,1.1665,1.1819,1.1977,1.213,1.222,-0.7406,-0.7502,-0.777,-0.7916,-0.7916,-0.7741,-0.7357,-0.6864,-0.6211,-0.5447,-0.4574,-0.4242,-0.4022,-0.4022,-0.3802,-0.3637,-0.3638,-0.364,-0.3585,-0.3585,-0.3585,-0.3585,-0.3585,-0.3585,-0.3083,-0.2354,-0.1289,-0.0,0.0224,0.028,0.0224,0.028,0.0561,0.0841,0.0897,0.0897,0.0897,0.0897,0.0897,0.0897,0.0897,0.1009,0.1178,0.1457,0.196,0.2293,0.2567,0.3016,0.3627,0.4351,0.4577,0.491,0.5244,0.5301,0.5301,0.5301,0.5301,0.5301,0.546,0.5834,0.6159,0.6436,0.6763,0.6974,0.7136,0.7136,0.7136,0.7136,0.7136,0.7295,0.756,0.7937,0.8206,0.853,0.8854,0.9204,0.9558,0.9562,0.9618,0.9618,0.9618,0.9618,0.9618,0.9725,0.9991,1.0391,1.097,1.1294,1.1272,1.1272,1.1272,1.1272,1.1272,1.1272,1.1272,1.1272,1.1272,1.1272,1.1272,1.1272,1.1272,1.1272,1.1272,1.1272,1.1272,1.1322,1.1423,1.1619,1.1719,1.1814,1.2103,1.2349,1.2417,1.2524,1.2608,-0.7227,-0.7446,-0.7659,-0.7849,-0.7889,-0.7904,-0.7574,-0.7082,-0.6756,-0.5939,-0.4846,-0.4353,-0.4079,-0.4078,-0.3859,-0.3691,-0.3691,-0.3691,-0.3638,-0.364,-0.3585,-0.3585,-0.3585,-0.3585,-0.353,-0.0,-0.0,-0.0,-0.0,0.0112,0.0112,0.0112,0.0505,0.0729,0.0841,0.0897,0.0897,0.0897,0.0897,0.0897,0.0897,0.0953,0.1009,0.1232,0.1399,0.1732,0.2344,0.2847,0.3569,0.4291,0.4739,0.502,0.5244,0.5301,0.5301,0.5301,0.5301,0.5301,0.546,0.5729,0.6107,0.6327,0.649,0.6645,0.6869,0.6869,0.7082,0.7136,0.7136,0.7241,0.814,0.862,0.8682,0.8956,0.9008,0.9159,0.9462,0.9614,0.9618,0.9618,0.9618,0.9618,0.9618,0.9618,0.9884,1.0272,1.0855,1.1281,1.1268,1.1272,1.1272,1.1272,1.1272,1.1272,1.1272,1.1272,1.1272,1.1272,1.1272,1.1322,1.1322,1.1322,1.1272,1.1368,1.1418,1.1377,1.1528,1.1814,1.2053,1.2089,1.2526,1.2962,1.2987,1.3012,1.3185,-0.6994,-0.7176,-0.748,-0.7677,-0.7838,-0.7889,-0.7628,-0.7249,-0.7085,-0.6537,-0.5553,-0.4737,-0.4356,-0.4192,-0.4078,-0.3909,-0.3852,-0.3798,-0.369,-0.3638,-0.3585,-0.3585,-0.3585,-0.3585,-0.3585,-0.3081,-0.0,-0.0,-0.0,-0.0,0.0056,0.0112,0.028,0.0561,0.0785,0.0897,0.0897,0.0897,0.0897,0.0897,0.0897,0.0897,0.0953,0.0897,0.0953,0.1289,0.1957,0.2733,0.3454,0.4122,0.4847,0.5132,0.5299,0.5301,0.5301,0.5301,0.5301,0.5301,0.5409,0.5629,0.5786,0.5891,0.6048,0.632,0.6544,0.6761,0.7028,0.7136,0.7136,0.756,0.8458,0.9145,0.9155,0.9215,0.9215,0.9215,0.9417,0.9618,0.9618,0.9618,0.9618,0.9618,0.9618,0.9618,0.9836,1.0272,1.0652,1.101,1.1315,1.1289,1.1272,1.1272,1.1272,1.1272,1.1272,1.1272,1.1272,1.1272,1.1272,1.1322,1.1372,1.1372,1.1469,1.161,1.1665,1.1573,1.1764,1.2103,1.2236,1.2472,1.3198,1.3642,1.3415,1.3483,1.3852,-0.6777,-0.6921,-0.7391,-0.7631,-0.7659,-0.7805,-0.7842,-0.7684,-0.7303,-0.6915,-0.648,-0.5553,-0.4791,-0.4247,-0.4078,-0.3909,-0.3852,-0.3852,-0.3744,-0.3638,-0.3585,-0.3585,-0.3585,-0.3585,-0.3585,-0.325,-0.2692,-0.0,-0.0,-0.0,0.0224,0.0561,0.0393,0.0561,0.0841,0.0897,0.0897,0.0897,0.0897,0.0897,0.0897,0.0897,0.0897,0.0897,0.0897,0.1289,0.1901,0.2676,0.3341,0.4064,0.4791,0.5187,0.5301,0.5301,0.5301,0.5301,0.5301,0.5301,0.5411,0.5576,0.5679,0.557,0.5834,0.6209,0.6485,0.6812,0.6972,0.7082,0.7241,0.7667,0.8461,0.9194,0.9462,0.9465,0.9465,0.9465,0.9566,0.9618,0.9618,0.9618,0.9618,0.9618,0.9618,0.9669,0.9821,1.0269,1.0843,1.1196,1.1297,1.128,1.1272,1.1272,1.1272,1.1272,1.1272,1.1272,1.1272,1.1272,1.1322,1.1423,1.1523,1.1573,1.1669,1.1999,1.1909,1.1819,1.2058,1.2584,1.2677,1.3011,1.3878,1.4321,1.4046,1.3947,1.4269]},{"header":{"parameterUnit":"m.s-1","parameterCategory":1,"la1":31.0,"la2":29.5877,"lo1":-88.7671,"lo2":-86.6584,"dy":0.0162,"dx":0.0185,"nx":115,"ny":88,"refTime":"2025-04-24T06:00:00:Z","depth":0,"parameterNumber":3,"parameterNumberName":"V-component_of_WINDS"},"data":[0.0,0.0,0.0,0.0,0.0,0.0,0.0,0.0,0.0,0.0,0.0,0.0,0.0,0.0,0.0,0.0,0.0,0.0,0.0,0.0,0.0,0.0,0.0,0.0,0.0,0.0,0.0,0.0,0.0,0.0,0.0,0.0,0.0,0.0,0.0,0.0,0.0,0.0,0.0,0.0,0.0,0.0,0.0,0.0,0.0,0.0,0.0,0.0,0.0,0.0,0.0,0.0,0.0,0.0,0.0,0.0,0.0,0.0,0.0,0.0,0.0,0.0,0.0,0.0,0.0,0.0,0.0,0.0,0.0,0.0,0.0,0.0,0.0,0.0,0.0,0.0,0.0,0.0,0.0,0.0,0.0,0.0,0.0,0.0,0.0,0.0,0.0,0.0,0.0,0.0,0.0,0.0,0.0,0.0,0.0,0.0,0.0,0.0,0.0,0.0,0.0,0.0,0.0,0.0,0.0,0.0,0.0,0.0,0.0,0.0,0.0,0.0,0.0,0.0,0.0,0.0,0.0,0.0,0.0,0.0,0.0,0.0,0.0,0.0,0.0,0.0,0.0,0.0,0.0,0.0,0.0,0.0,0.0,0.0,0.0,0.0,0.0,0.0,0.0,0.0,0.0,0.0,0.0,0.0,0.0,0.0,0.0,0.0,0.0,0.0,0.0,0.0,0.0,0.0,0.0,0.0,0.0,0.0,0.0,0.0,0.0,0.0,0.0,0.0,0.0,0.0,0.0,0.0,0.0,0.0,0.0,0.0,0.0,0.0,0.0,0.0,0.0,0.0,0.0,0.0,0.0,0.0,0.0,0.0,0.0,0.0,0.0,0.0,0.0,0.0,0.0,0.0,0.0,0.0,0.0,0.0,0.0,0.0,0.0,0.0,0.0,0.0,0.0,0.0,0.0,0.0,0.0,0.0,0.0,0.0,0.0,0.0,0.0,0.0,0.0,0.0,0.0,0.0,0.0,0.0,0.0,0.0,0.0,0.0,0.0,0.0,0.0,0.0,0.0,0.0,0.0,0.0,0.0,0.0,0.0,0.0,0.0,0.0,0.0,0.0,0.0,0.0,0.0,0.0,0.0,0.0,0.0,0.0,0.0,0.0,0.0,0.0,0.0,0.0,0.0,0.0,0.0,0.0,0.0,0.0,0.0,0.0,0.0,0.0,0.0,0.0,0.0,0.0,0.0,0.0,0.0,0.0,0.0,0.0,0.0,0.0,0.0,0.0,0.0,0.0,0.0,0.0,0.0,0.0,0.0,0.0,0.0,0.0,0.0,0.0,0.0,0.0,0.0,0.0,0.0,0.0,0.0,0.0,0.0,0.0,0.0,0.0,0.0,0.0,0.0,0.0,0.0,0.0,0.0,0.0,0.0,0.0,0.0,0.0,0.0,0.0,0.0,0.0,0.0,0.0,0.0,0.0,0.0,0.0,0.0,0.0,0.0,0.0,0.0,0.0,0.0,0.0,0.0,0.0,0.0,0.0,0.0,0.0,0.0,0.0,0.0,0.0,0.0,0.0,0.0,0.0,0.0,0.0,0.0,0.0,0.0,0.0,0.0,0.0,0.0,0.0,0.0,0.0,0.0,0.0,0.0,0.0,0.0,0.0,0.0,0.0,0.0,0.0,0.0,0.0,0.0,0.0,0.0,0.0,0.0,0.0,0.0,0.0,0.0,0.0,0.0,0.0,0.0,0.0,0.0,0.0,0.0,0.0,0.0,0.0,0.0,0.0,0.0,0.0,0.0,0.0,0.0,0.0,0.0,0.0,0.0,0.0,0.0,0.0,0.0,0.0,0.0,0.0,0.0,0.0,0.0,0.0,0.0,0.0,0.0,0.0,0.0,0.0,0.0,0.0,0.0,0.0,0.0,0.0,0.0,0.0,0.0,0.0,0.0,0.0,0.0,0.0,0.0,0.0,0.0,0.0,0.0,0.0,0.0,0.0,0.0,0.0,0.0,0.0,0.0,0.0,0.0,0.0,0.0,0.0,0.0,0.0,0.0,0.0,0.0,0.0,0.0,0.0,0.0,0.0,0.0,0.0,0.0,0.0,0.0,0.0,0.0,0.0,0.0,0.0,0.0,0.0,0.0,0.0,0.0,0.0,0.0,0.0,0.0,0.0,0.0,0.0,0.0,0.0,0.0,0.0,0.0,0.0,0.0,0.0,0.0,0.0,0.0,0.0,0.0,0.0,0.0,0.0,0.0,0.0,0.0,0.0,0.0,0.0,0.0,0.0,0.0,0.0,0.0,0.0,0.0,0.0,0.0,0.0,0.0,0.0,0.0,0.0,0.0,0.0,0.0,0.0,0.0,0.0,0.0,0.0,0.0,0.0,0.0,0.0,0.0,0.0,0.0,0.0,0.0,0.0,0.0,0.0,0.0,0.0,0.0,0.0,0.0,0.0,0.0,0.0,0.0,0.0,0.0,0.0,0.0,0.0,0.0,0.0,0.0,0.0,0.0,0.0,0.0,0.0,0.0,0.0,0.0,0.0,0.0,0.0,0.0,0.0,0.0,0.0,0.0,0.0,0.0,0.0,0.0,0.0,0.0,0.0,0.0,0.0,0.0,0.0,0.0,0.0,0.0,0.0,0.0,0.0,0.0,0.0,0.0,0.0,0.0,0.0,0.0,0.0,0.0,0.0,0.0,0.0,0.0,0.0,0.0,0.0,0.0,0.0,0.0,0.0,0.0,0.0,0.0,0.0,0.0,0.0,0.0,0.0,0.0,0.0,0.0,0.0,0.0,0.0,0.0,0.0,0.0,0.0,0.0,0.0,0.0,0.0,0.0,0.0,0.0,0.0,0.0,0.0,0.0,0.0,0.0,0.0,0.0,0.0,0.0,0.0,0.0,0.0,0.0,0.0,0.0,0.0,0.0,0.0,0.0,0.0,0.0,0.0,0.0,0.0,0.0,0.0,0.0,0.0,0.0,0.0,0.0,0.0,0.0,0.0,0.0,0.0,0.0,0.0,0.0,0.0,0.0,0.0,0.0,0.0,0.0,0.0,0.0,0.0,0.0,0.0,0.0,0.0,0.0,0.0,0.0,0.0,0.0,0.0,0.0,0.0,0.0,0.0,0.0,0.0,0.0,0.0,0.0,0.0,0.0,0.0,0.0,0.0,0.0,0.0,0.0,0.0,0.0,0.0,0.0,0.0,0.0,0.0,0.0,0.0,0.0,0.0,0.0,0.0,0.0,0.0,0.0,0.0,0.0,0.0,0.0,0.0,0.0,0.0,0.0,0.0,0.0,0.0,0.0,0.0,0.0,0.0,0.0,0.0,0.0,0.0,0.0,0.0,0.0,0.0,0.0,0.0,0.0,0.0,0.0,0.0,0.0,0.0,0.0,0.0,0.0,0.0,0.0,0.0,0.0,0.0,0.0,0.0,0.0,0.0,0.0,0.0,0.0,0.0,0.0,0.0,0.0,0.0,0.0,0.0,0.0,0.0,0.0,0.0,0.0,0.0,0.0,0.0,0.0,0.0,0.0,0.0,0.0,0.0,0.0,0.0,0.0,0.0,0.0,0.0,0.0,0.0,0.0,0.0,0.0,0.0,0.0,0.0,0.0,0.0,0.0,0.0,0.0,0.0,0.0,0.0,0.0,0.0,0.0,0.0,0.0,0.0,0.0,0.0,0.0,0.0,0.0,0.0,0.0,0.0,0.0,0.0,0.0,0.0,0.0,0.0,0.0,0.0,0.0,0.0,0.0,0.0,0.0,0.0,0.0,0.0,0.0,0.0,0.0,0.0,0.0,0.0,0.0,0.0,0.0,0.0,0.0,0.0,0.0,0.0,0.0,0.0,0.0,0.0,0.0,0.0,0.0,0.0,0.0,0.0,0.0,0.0,0.0,0.0,0.0,0.0,0.0,0.0,0.0,0.0,0.0,0.0,0.0,0.0,0.0,0.0,0.0,0.0,0.0,0.0,0.0,0.0,0.0,0.0,0.0,0.0,0.0,0.0,0.0,0.0,0.0,0.0,0.0,0.0,0.0,0.0,0.0,0.0,0.0,0.0,0.0,0.0,0.0,0.0,0.0,0.0,0.0,0.0,0.0,0.0,0.0,0.0,0.0,0.0,0.0,0.0,0.0,0.0,0.0,0.0,0.0,0.0,0.0,0.0,0.0,0.0,0.0,0.0,0.0,0.0,0.0,0.0,0.0,0.0,0.0,0.0,0.0,0.0,0.0,0.0,0.0,0.0,0.0,0.0,0.0,0.0,0.0,0.0,0.0,0.0,0.0,0.0,0.0,0.0,0.0,0.0,0.0,0.0,-0.5099,0.0,0.0,0.0,0.0,0.0,0.0,0.0,0.0,0.0,0.0,0.0,0.0,0.0,0.0,0.0,0.0,0.0,0.0,0.0,0.0,0.0,0.0,0.0,0.0,0.0,0.0,0.0,0.0,0.0,0.0,0.0,0.0,0.0,0.0,0.0,0.0,0.0,0.0,0.0,0.0,0.0,0.0,0.0,0.0,0.0,0.0,0.0,0.0,0.0,0.0,0.0,0.0,0.0,0.0,0.0,0.0,0.0,0.0,0.0,0.0,0.0,0.0,0.0,0.0,0.0,0.0,0.0,0.0,0.0,0.0,0.0,0.0,0.0,0.0,0.0,0.0,0.0,0.0,0.0,0.0,0.0,0.0,0.0,0.0,0.0,0.0,0.0,0.0,0.0,0.0,0.0,0.0,0.0,0.0,0.0,0.0,0.0,0.0,0.0,0.0,0.0,0.0,0.0,0.0,0.0,0.0,0.0,0.0,0.0,0.0,-0.5093,-0.5095,-0.5093,-0.5099,-0.5118,0.0,0.0,0.0,0.0,0.0,0.0,0.0,0.0,0.0,0.0,0.0,0.0,0.0,0.0,0.0,0.0,0.0,0.0,0.0,0.0,0.0,0.0,0.0,0.0,0.0,0.0,0.0,0.0,0.0,0.0,0.0,0.0,0.0,0.0,0.0,0.0,0.0,0.0,0.0,0.0,0.0,0.0,0.0,0.0,0.0,0.0,0.0,0.0,0.0,0.0,0.0,0.0,0.0,0.0,0.0,0.0,0.0,0.0,0.0,0.0,0.0,0.0,0.0,0.0,0.0,0.0,0.0,0.0,0.0,0.0,0.0,0.0,0.0,0.0,0.0,0.0,0.0,0.0,0.0,0.0,0.0,0.0,0.0,0.0,0.0,0.0,0.0,0.0,0.0,0.0,0.0,0.0,0.0,0.0,0.0,0.0,0.0,0.0,0.0,0.0,0.0,0.0,0.0,0.0,0.0,0.0,0.0,0.0,0.0,0.0,0.0,0.0,-0.5364,-0.5368,-0.5424,0.0,0.0,0.0,0.0,0.0,0.0,0.0,0.0,0.0,0.0,0.0,0.0,0.0,0.0,0.0,0.0,0.0,0.0,0.0,0.0,0.0,0.0,0.0,0.0,0.0,0.0,0.0,0.0,0.0,0.0,0.0,0.0,0.0,0.0,0.0,0.0,0.0,0.0,0.0,0.0,0.0,0.0,0.0,0.0,0.0,0.0,0.0,0.0,0.0,0.0,0.0,0.0,0.0,0.0,0.0,0.0,0.0,0.0,0.0,0.0,0.0,0.0,0.0,0.0,0.0,0.0,0.0,0.0,0.0,0.0,0.0,0.0,0.0,0.0,0.0,0.0,0.0,0.0,0.0,0.0,0.0,0.0,0.0,0.0,0.0,0.0,0.0,0.0,0.0,0.0,0.0,0.0,0.0,0.0,0.0,0.0,0.0,0.0,0.0,0.0,0.0,0.0,0.0,0.0,0.0,0.0,0.0,0.0,0.0,0.0,-0.5453,-0.6167,-0.6177,0.0,-0.6251,0.0,0.0,0.0,0.0,0.0,0.0,0.0,0.0,0.0,0.0,0.0,0.0,0.0,0.0,0.0,0.0,0.0,0.0,0.0,0.0,0.0,0.0,0.0,0.0,0.0,0.0,0.0,0.0,0.0,0.0,0.0,0.0,0.0,0.0,0.0,0.0,0.0,0.0,0.0,0.0,0.0,0.0,0.0,0.0,0.0,0.0,0.0,0.0,0.0,0.0,0.0,0.0,0.0,0.0,0.0,0.0,0.0,0.0,0.0,0.0,0.0,0.0,0.0,0.0,0.0,0.0,0.0,0.0,0.0,0.0,0.0,0.0,0.0,0.0,0.0,0.0,0.0,0.0,0.0,0.0,0.0,0.0,0.0,0.0,0.0,0.0,0.0,0.0,0.0,0.0,0.0,0.0,0.0,0.0,0.0,0.0,0.0,0.0,0.0,0.0,0.0,0.0,0.0,0.0,0.0,0.0,0.0,0.0,0.0,0.0,-0.5963,-0.6282,-0.6292,-0.6292,0.0,0.0,0.0,0.0,0.0,0.0,0.0,0.0,0.0,0.0,0.0,0.0,0.0,0.0,0.0,0.0,0.0,0.0,0.0,0.0,0.0,0.0,0.0,0.0,0.0,0.0,0.0,0.0,0.0,0.0,0.0,0.0,0.0,0.0,0.0,0.0,0.0,0.0,0.0,0.0,0.0,0.0,0.0,0.0,0.0,0.0,0.0,0.0,0.0,0.0,0.0,0.0,0.0,0.0,0.0,0.0,0.0,0.0,0.0,0.0,0.0,0.0,0.0,0.0,0.0,0.0,0.0,0.0,0.0,0.0,0.0,0.0,0.0,0.0,0.0,0.0,0.0,0.0,0.0,0.0,0.0,0.0,0.0,0.0,0.0,0.0,0.0,0.0,0.0,0.0,0.0,0.0,0.0,0.0,0.0,0.0,0.0,0.0,0.0,0.0,0.0,0.0,0.0,0.0,0.0,0.0,0.0,0.0,0.0,0.0,-0.6138,0.0,-0.6629,-0.6658,-0.6561,-0.6297,0.0,0.0,0.0,0.0,0.0,0.0,0.0,0.0,0.0,0.0,0.0,0.0,0.0,0.0,0.0,0.0,0.0,0.0,0.0,0.0,0.0,0.0,0.0,0.0,0.0,0.0,0.0,0.0,0.0,0.0,0.0,0.0,0.0,0.0,0.0,0.0,0.0,0.0,0.0,0.0,0.0,0.0,0.0,0.0,0.0,0.0,0.0,0.0,0.0,0.0,0.0,0.0,0.0,0.0,0.0,0.0,0.0,0.0,0.0,0.0,0.0,0.0,0.0,0.0,0.0,0.0,0.0,0.0,0.0,0.0,0.0,0.0,0.0,0.0,0.0,0.0,0.0,0.0,0.0,0.0,0.0,0.0,0.0,0.0,0.0,0.0,0.0,0.0,0.0,0.0,0.0,0.0,0.0,0.0,0.0,0.0,0.0,0.0,0.0,0.0,0.0,0.0,0.0,0.0,0.0,0.0,0.0,0.0,0.0,-0.6696,-0.6706,-0.7507,-0.7539,-0.7152,0.0,0.0,0.0,0.0,0.0,0.0,0.0,0.0,0.0,0.0,0.0,0.0,0.0,0.0,0.0,0.0,0.0,0.0,0.0,0.0,0.0,0.0,0.0,0.0,0.0,0.0,0.0,0.0,0.0,0.0,0.0,0.0,0.0,0.0,0.0,0.0,0.0,0.0,0.0,0.0,0.0,0.0,0.0,0.0,0.0,0.0,0.0,0.0,0.0,0.0,0.0,0.0,0.0,0.0,0.0,0.0,0.0,0.0,0.0,0.0,0.0,0.0,0.0,0.0,0.0,0.0,0.0,0.0,0.0,0.0,0.0,0.0,0.0,0.0,0.0,0.0,0.0,0.0,0.0,0.0,0.0,0.0,0.0,0.0,0.0,0.0,0.0,0.0,0.0,0.0,0.0,0.0,0.0,0.0,0.0,0.0,0.0,0.0,0.0,0.0,0.0,0.0,0.0,0.0,0.0,0.0,0.0,0.0,0.0,-0.5975,-0.6186,-0.6992,-0.8329,-0.7361,-0.6869,0.0,0.0,0.0,0.0,0.0,0.0,0.0,0.0,0.0,0.0,0.0,0.0,0.0,0.0,0.0,0.0,0.0,0.0,0.0,0.0,0.0,0.0,0.0,0.0,0.0,0.0,0.0,0.0,0.0,0.0,0.0,0.0,0.0,0.0,0.0,0.0,0.0,0.0,0.0,0.0,0.0,0.0,0.0,0.0,0.0,0.0,0.0,0.0,0.0,0.0,0.0,0.0,0.0,0.0,0.0,0.0,0.0,0.0,0.0,0.0,0.0,0.0,0.0,0.0,0.0,0.0,0.0,0.0,0.0,0.0,0.0,0.0,0.0,0.0,0.0,0.0,0.0,0.0,0.0,0.0,0.0,0.0,0.0,0.0,0.0,0.0,0.0,0.0,0.0,0.0,0.0,0.0,0.0,0.0,0.0,0.0,0.0,0.0,0.0,0.0,0.0,0.0,0.0,0.0,0.0,0.0,0.0,0.0,0.0,-0.591,0.0,-0.7553,0.0,-0.734,-0.6711,0.0,0.0,0.0,0.0,0.0,0.0,0.0,0.0,0.0,0.0,0.0,0.0,0.0,0.0,0.0,0.0,0.0,0.0,0.0,0.0,0.0,0.0,0.0,0.0,0.0,0.0,0.0,0.0,0.0,0.0,0.0,0.0,0.0,0.0,0.0,0.0,0.0,0.0,0.0,0.0,0.0,0.0,0.0,0.0,0.0,0.0,0.0,0.0,0.0,0.0,0.0,0.0,0.0,0.0,0.0,0.0,0.0,0.0,0.0,0.0,0.0,0.0,0.0,0.0,0.0,0.0,0.0,0.0,0.0,0.0,0.0,0.0,0.0,0.0,0.0,0.0,0.0,0.0,0.0,0.0,0.0,0.0,0.0,0.0,0.0,0.0,0.0,0.0,0.0,0.0,0.0,0.0,0.0,0.0,0.0,0.0,0.0,0.0,0.0,0.0,0.0,0.0,0.0,0.0,0.0,0.0,0.0,0.0,-0.5922,-0.7502,-0.8289,-0.8334,-0.7647,-0.757,-0.6762,0.0,0.0,0.0,0.0,0.0,0.0,0.0,0.0,0.0,0.0,0.0,0.0,0.0,0.0,0.0,0.0,0.0,0.0,0.0,0.0,0.0,0.0,0.0,0.0,0.0,0.0,0.0,0.0,0.0,0.0,0.0,0.0,0.0,0.0,0.0,0.0,0.0,0.0,0.0,0.0,0.0,0.0,0.0,0.0,0.0,0.0,0.0,0.0,0.0,0.0,0.0,0.0,0.0,0.0,0.0,0.0,0.0,0.0,0.0,0.0,0.0,0.0,0.0,0.0,0.0,0.0,0.0,0.0,0.0,0.0,0.0,0.0,0.0,0.0,0.0,0.0,0.0,0.0,0.0,0.0,0.0,0.0,0.0,0.0,0.0,0.0,0.0,0.0,0.0,0.0,0.0,0.0,0.0,0.0,0.0,0.0,0.0,0.0,0.0,0.0,0.0,0.0,0.0,0.0,0.0,0.0,0.0,0.0,0.0,-0.6719,-0.7544,-0.81,-0.8306,-0.7276,-0.6685,0.0,0.0,0.0,0.0,0.0,0.0,0.0,0.0,0.0,0.0,0.0,0.0,0.0,0.0,0.0,0.0,0.0,0.0,0.0,0.0,0.0,0.0,0.0,0.0,0.0,0.0,0.0,0.0,0.0,0.0,0.0,0.0,0.0,0.0,0.0,0.0,0.0,0.0,0.0,0.0,0.0,0.0,0.0,0.0,0.0,0.0,0.0,0.0,0.0,0.0,0.0,0.0,0.0,0.0,0.0,0.0,0.0,0.0,0.0,0.0,0.0,0.0,0.0,0.0,0.0,0.0,0.0,0.0,0.0,0.0,0.0,0.0,0.0,0.0,0.0,0.0,0.0,0.0,0.0,0.0,0.0,0.0,0.0,0.0,0.0,0.0,0.0,0.0,0.0,0.0,0.0,0.0,0.0,0.0,0.0,0.0,0.0,0.0,0.0,0.0,0.0,0.0,0.0,0.0,0.0,0.0,0.0,0.0,0.0,-0.7276,-0.8056,-0.854,-0.866,-0.7672,-0.7081,-0.6908,0.0,0.0,0.0,0.0,0.0,0.0,0.0,0.0,0.0,0.0,0.0,0.0,0.0,0.0,0.0,0.0,0.0,0.0,0.0,0.0,0.0,0.0,0.0,0.0,0.0,0.0,0.0,0.0,0.0,0.0,0.0,0.0,0.0,0.0,0.0,0.0,0.0,0.0,0.0,0.0,0.0,0.0,0.0,0.0,0.0,0.0,0.0,0.0,0.0,0.0,0.0,0.0,0.0,0.0,0.0,0.0,0.0,0.0,0.0,0.0,0.0,0.0,0.0,0.0,0.0,0.0,0.0,0.0,0.0,0.0,0.0,0.0,0.0,0.0,0.0,0.0,0.0,0.0,0.0,0.0,0.0,0.0,0.0,0.0,0.0,0.0,0.0,0.0,0.0,0.0,0.0,0.0,0.0,0.0,0.0,0.0,0.0,0.0,0.0,0.0,0.0,0.0,0.0,0.0,0.0,0.0,0.0,0.0,-0.878,-0.9581,-0.9568,-0.8736,-0.8625,-0.7864,0.0,0.0,0.0,0.0,0.0,0.0,0.0,0.0,0.0,0.0,0.0,0.0,0.0,0.0,0.0,0.0,0.0,0.0,0.0,0.0,0.0,0.0,0.0,0.0,0.0,0.0,0.0,0.0,0.0,0.0,0.0,0.0,0.0,0.0,0.0,0.0,0.0,0.0,0.0,0.0,0.0,0.0,0.0,0.0,0.0,0.0,0.0,0.0,0.0,0.0,0.0,0.0,0.0,0.0,0.0,0.0,0.0,0.0,0.0,0.0,0.0,0.0,0.0,0.0,0.0,0.0,0.0,0.0,0.0,0.0,0.0,0.0,0.0,0.0,0.0,0.0,0.0,0.0,0.0,0.0,0.0,0.0,0.0,0.0,0.0,0.0,0.0,0.0,0.0,0.0,0.0,0.0,0.0,0.0,0.0,0.0,0.0,0.0,0.0,0.0,0.0,0.0,0.0,0.0,0.0,0.0,0.0,0.0,0.0,-0.8751,-0.9558,-0.9877,-0.9629,-0.9003,-0.8452,0.0,0.0,0.0,0.0,0.0,0.0,0.0,0.0,0.0,0.0,0.0,0.0,0.0,0.0,0.0,0.0,0.0,0.0,0.0,0.0,0.0,0.0,0.0,0.0,0.0,0.0,0.0,0.0,0.0,0.0,0.0,0.0,0.0,0.0,0.0,0.0,0.0,0.0,0.0,0.0,0.0,0.0,0.0,0.0,0.0,0.0,0.0,0.0,0.0,0.0,0.0,0.0,0.0,0.0,0.0,0.0,0.0,0.0,0.0,0.0,0.0,0.0,0.0,0.0,0.0,0.0,0.0,0.0,0.0,0.0,0.0,0.0,0.0,0.0,0.0,0.0,0.0,0.0,0.0,0.0,0.0,0.0,0.0,0.0,0.0,0.0,0.0,0.0,0.0,0.0,0.0,0.0,0.0,0.0,0.0,0.0,0.0,0.0,0.0,0.0,0.0,0.0,0.0,0.0,0.0,0.0,0.0,0.0,-0.8939,-0.9234,-0.9739,-0.9977,-0.9944,-0.9428,-0.8986,0.0,0.0,0.0,0.0,0.0,0.0,0.0,0.0,0.0,0.0,0.0,0.0,0.0,0.0,0.0,0.0,0.0,0.0,0.0,0.0,0.0,0.0,0.0,0.0,0.0,0.0,0.0,0.0,0.0,0.0,0.0,0.0,0.0,0.0,0.0,0.0,0.0,0.0,0.0,0.0,0.0,0.0,0.0,0.0,0.0,0.0,0.0,0.0,0.0,0.0,0.0,0.0,0.0,0.0,0.0,0.0,0.0,0.0,0.0,0.0,0.0,0.0,0.0,0.0,0.0,0.0,0.0,0.0,0.0,0.0,0.0,0.0,0.0,0.0,0.0,0.0,0.0,0.0,0.0,0.0,0.0,0.0,0.0,0.0,0.0,0.0,0.0,0.0,0.0,0.0,0.0,0.0,0.0,0.0,0.0,0.0,0.0,0.0,0.0,0.0,0.0,0.0,0.0,0.0,0.0,0.0,0.0,0.0,-0.923,-0.9836,-0.9934,-0.9961,-0.9906,-0.9829,-0.9463,0.0,0.0,0.0,0.0,0.0,0.0,0.0,0.0,0.0,0.0,0.0,0.0,0.0,0.0,0.0,0.0,0.0,0.0,0.0,0.0,0.0,0.0,0.0,0.0,0.0,0.0,0.0,0.0,0.0,0.0,0.0,0.0,0.0,0.0,0.0,0.0,0.0,0.0,0.0,0.0,0.0,0.0,0.0,0.0,0.0,0.0,0.0,0.0,0.0,0.0,0.0,0.0,0.0,0.0,0.0,0.0,0.0,0.0,0.0,0.0,0.0,0.0,0.0,0.0,0.0,0.0,0.0,0.0,0.0,0.0,0.0,0.0,0.0,0.0,0.0,0.0,0.0,0.0,0.0,0.0,0.0,0.0,0.0,0.0,0.0,0.0,0.0,0.0,0.0,0.0,0.0,0.0,0.0,0.0,0.0,0.0,0.0,0.0,0.0,0.0,0.0,0.0,0.0,0.0,0.0,0.0,0.0,0.0,-0.95,-0.8997,-0.9599,-0.9916,-0.9891,-0.9829,-0.9729,0.0,0.0,0.0,0.0,0.0,0.0,0.0,0.0,0.0,0.0,0.0,0.0,0.0,0.0,0.0,0.0,0.0,0.0,0.0,0.0,0.0,0.0,0.0,0.0,0.0,0.0,0.0,0.0,0.0,0.0,0.0,0.0,0.0,0.0,0.0,0.0,0.0,0.0,0.0,0.0,0.0,0.0,0.0,0.0,0.0,0.0,0.0,0.0,-0.6707,0.0,0.0,0.0,0.0,0.0,0.0,0.0,0.0,0.0,0.0,0.0,0.0,0.0,0.0,0.0,0.0,0.0,0.0,0.0,0.0,0.0,0.0,0.0,0.0,0.0,0.0,0.0,0.0,0.0,0.0,0.0,0.0,0.0,0.0,0.0,0.0,0.0,0.0,0.0,0.0,0.0,0.0,0.0,0.0,0.0,0.0,0.0,0.0,0.0,0.0,0.0,0.0,0.0,0.0,0.0,0.0,0.0,0.0,0.0,-0.98,-0.9306,-0.9719,-0.9913,-0.985,-0.9828,-0.9799,0.0,0.0,0.0,0.0,0.0,0.0,0.0,0.0,0.0,0.0,0.0,0.0,0.0,0.0,0.0,0.0,0.0,0.0,0.0,0.0,0.0,0.0,0.0,0.0,0.0,0.0,0.0,0.0,0.0,0.0,0.0,0.0,0.0,0.0,0.0,0.0,0.0,0.0,0.0,0.0,0.0,0.0,0.0,0.0,0.0,0.0,0.0,0.0,0.0,0.0,0.0,0.0,0.0,0.0,0.0,0.0,0.0,0.0,0.0,0.0,0.0,0.0,0.0,0.0,0.0,0.0,0.0,0.0,0.0,0.0,0.0,0.0,0.0,0.0,0.0,0.0,0.0,0.0,0.0,0.0,0.0,0.0,0.0,0.0,0.0,0.0,0.0,0.0,0.0,0.0,0.0,0.0,0.0,0.0,0.0,0.0,0.0,0.0,0.0,0.0,0.0,0.0,0.0,0.0,0.0,0.0,0.0,-0.9643,-1.0033,-0.9915,-0.9949,-0.9916,-0.9808,-0.9789,-0.9789,-0.975,0.0,0.0,0.0,0.0,0.0,0.0,0.0,0.0,0.0,0.0,0.0,0.0,0.0,0.0,0.0,0.0,0.0,0.0,0.0,0.0,0.0,0.0,0.0,0.0,0.0,0.0,0.0,0.0,0.0,0.0,0.0,0.0,0.0,0.0,0.0,0.0,0.0,0.0,-0.671,-0.7961,0.0,0.0,0.0,0.0,0.0,0.0,0.0,0.0,-0.6968,0.0,0.0,0.0,0.0,0.0,0.0,0.0,0.0,0.0,0.0,0.0,0.0,0.0,0.0,0.0,0.0,0.0,0.0,0.0,0.0,0.0,0.0,0.0,0.0,0.0,0.0,0.0,0.0,0.0,0.0,0.0,0.0,0.0,0.0,0.0,0.0,0.0,0.0,0.0,0.0,0.0,0.0,0.0,0.0,0.0,0.0,0.0,0.0,0.0,0.0,0.0,0.0,0.0,0.0,0.0,0.0,-0.9738,-0.9882,-0.9948,-0.998,-0.9885,-0.9828,-0.9791,-0.9758,-0.9712,-0.964,0.0,0.0,0.0,0.0,0.0,0.0,0.0,0.0,0.0,0.0,0.0,0.0,0.0,0.0,0.0,0.0,0.0,0.0,0.0,0.0,0.0,0.0,0.0,0.0,0.0,0.0,0.0,0.0,0.0,0.0,0.0,0.0,0.0,0.0,0.0,0.0,0.0,0.0,0.0,-0.8352,-0.8891,0.0,0.0,0.0,0.0,0.0,0.0,0.0,0.0,-0.6733,0.0,0.0,0.0,0.0,0.0,0.0,0.0,0.0,0.0,0.0,0.0,0.0,0.0,0.0,0.0,0.0,0.0,0.0,0.0,0.0,0.0,0.0,0.0,0.0,0.0,0.0,0.0,0.0,0.0,0.0,0.0,0.0,0.0,0.0,0.0,0.0,0.0,0.0,0.0,0.0,0.0,0.0,0.0,0.0,0.0,0.0,0.0,0.0,0.0,0.0,0.0,0.0,0.0,0.0,0.0,-0.9854,-0.9982,-0.9982,-0.9952,-0.9922,-0.9881,-0.9798,-0.9765,-0.9736,0.0,0.0,0.0,0.0,0.0,0.0,0.0,0.0,0.0,0.0,0.0,0.0,0.0,0.0,0.0,0.0,0.0,0.0,0.0,0.0,0.0,0.0,0.0,0.0,0.0,0.0,0.0,0.0,0.0,0.0,0.0,0.0,0.0,0.0,0.0,0.0,0.0,0.0,0.0,0.0,-0.8946,-0.9259,-0.8939,0.0,0.0,0.0,0.0,0.0,0.0,-0.7841,-0.7081,0.0,0.0,0.0,0.0,0.0,0.0,0.0,0.0,0.0,0.0,0.0,0.0,0.0,0.0,0.0,0.0,0.0,0.0,0.0,0.0,0.0,0.0,0.0,0.0,0.0,0.0,0.0,0.0,0.0,0.0,0.0,0.0,0.0,0.0,0.0,0.0,0.0,0.0,0.0,0.0,0.0,0.0,0.0,0.0,0.0,0.0,0.0,0.0,0.0,0.0,0.0,0.0,0.0,0.0,0.0,-0.9847,-1.0013,-1.0009,-0.9931,-0.9946,-0.991,-0.9791,-0.9794,-0.9758,0.0,0.0,0.0,0.0,0.0,0.0,0.0,0.0,0.0,0.0,0.0,0.0,0.0,0.0,0.0,0.0,0.0,0.0,0.0,0.0,0.0,0.0,0.0,0.0,0.0,0.0,0.0,0.0,0.0,0.0,0.0,0.0,0.0,0.0,0.0,0.0,0.0,0.0,0.0,0.0,0.0,-0.963,-0.9156,-0.9547,0.0,0.0,0.0,0.0,-0.8811,-0.8435,0.0,0.0,0.0,0.0,0.0,0.0,0.0,0.0,0.0,0.0,0.0,0.0,0.0,0.0,0.0,0.0,0.0,0.0,0.0,0.0,0.0,0.0,0.0,0.0,0.0,0.0,0.0,0.0,0.0,0.0,0.0,0.0,0.0,0.0,0.0,0.0,0.0,0.0,0.0,0.0,0.0,0.0,0.0,0.0,0.0,0.0,0.0,0.0,0.0,0.0,0.0,0.0,0.0,0.0,0.0,0.0,-0.9816,-0.9919,-0.9942,-0.998,-0.9885,-0.9828,-0.9801,-0.9734,-0.9706,0.0,0.0,0.0,0.0,0.0,0.0,0.0,0.0,0.0,0.0,0.0,0.0,0.0,0.0,0.0,0.0,0.0,0.0,0.0,0.0,0.0,0.0,0.0,0.0,0.0,0.0,0.0,0.0,0.0,0.0,0.0,0.0,0.0,0.0,0.0,0.0,0.0,0.0,0.0,0.0,0.0,-0.9843,-0.9728,-0.982,-1.0087,0.0,0.0,-0.9547,-0.8903,-0.9455,0.0,0.0,0.0,0.0,0.0,0.0,0.0,0.0,0.0,0.0,0.0,0.0,0.0,0.0,0.0,0.0,0.0,0.0,0.0,0.0,0.0,0.0,0.0,0.0,0.0,0.0,0.0,0.0,0.0,0.0,0.0,0.0,0.0,0.0,0.0,0.0,0.0,0.0,0.0,0.0,0.0,0.0,0.0,0.0,0.0,0.0,0.0,0.0,0.0,0.0,0.0,0.0,0.0,0.0,0.0,-0.8242,-0.9882,-0.9954,-0.9984,-1.0016,-0.9931,-0.9878,-0.9791,-0.977,-0.9736,0.0,0.0,0.0,0.0,0.0,0.0,0.0,0.0,0.0,0.0,0.0,0.0,0.0,0.0,0.0,0.0,0.0,0.0,0.0,0.0,0.0,0.0,0.0,0.0,0.0,0.0,0.0,0.0,0.0,0.0,0.0,0.0,0.0,0.0,0.0,0.0,0.0,0.0,0.0,0.0,0.0,0.0,-1.0073,-1.0625,0.0,0.0,0.0,-1.0408,-1.0087,0.0,0.0,0.0,0.0,0.0,0.0,0.0,0.0,0.0,0.0,0.0,0.0,0.0,0.0,0.0,0.0,0.0,0.0,0.0,0.0,0.0,0.0,0.0,0.0,0.0,0.0,0.0,0.0,0.0,0.0,0.0,0.0,0.0,0.0,0.0,0.0,0.0,0.0,0.0,0.0,0.0,0.0,0.0,0.0,0.0,0.0,0.0,0.0,0.0,0.0,0.0,0.0,0.0,0.0,0.0,0.0,0.0,-0.9933,-1.02,-1.0298,-1.0281,-1.0259,-1.0198,-1.0067,-0.9881,0.0,0.0,0.0,0.0,0.0,0.0,0.0,0.0,0.0,0.0,0.0,0.0,0.0,0.0,0.0,0.0,0.0,0.0,0.0,0.0,0.0,0.0,0.0,0.0,0.0,0.0,0.0,-0.4719,0.0,0.0,0.0,0.0,0.0,0.0,0.0,0.0,0.0,0.0,0.0,0.0,0.0,0.0,-1.0928,-1.0762,-1.1536,-1.1846,0.0,0.0,-1.1294,-1.1307,-1.1179,-1.081,0.0,0.0,0.0,0.0,0.0,0.0,0.0,0.0,0.0,0.0,0.0,0.0,0.0,0.0,0.0,0.0,0.0,0.0,0.0,0.0,0.0,0.0,0.0,0.0,0.0,0.0,0.0,0.0,0.0,0.0,0.0,0.0,0.0,0.0,0.0,0.0,0.0,0.0,0.0,0.0,0.0,0.0,0.0,0.0,0.0,0.0,0.0,0.0,0.0,0.0,0.0,0.0,0.0,0.0,0.0,-0.9866,-1.0696,-1.1078,-1.1028,-1.0969,-1.0902,-1.081,-1.0093,-0.9706,0.0,0.0,0.0,0.0,0.0,0.0,0.0,0.0,0.0,0.0,0.0,0.0,0.0,0.0,0.0,0.0,0.0,0.0,0.0,0.0,0.0,0.0,0.0,0.0,0.0,0.0,0.0,0.0,0.0,0.0,0.0,0.0,0.0,0.0,0.0,0.0,0.0,0.0,0.0,0.0,0.0,-1.1453,-1.2142,-1.2316,-1.2511,0.0,0.0,-1.2118,-1.2109,-1.2713,-1.2458,-1.0247,0.0,0.0,0.0,0.0,0.0,0.0,0.0,0.0,0.0,0.0,0.0,0.0,0.0,0.0,0.0,0.0,0.0,0.0,0.0,0.0,0.0,0.0,0.0,0.0,0.0,0.0,0.0,0.0,0.0,0.0,0.0,0.0,0.0,0.0,0.0,0.0,0.0,0.0,0.0,0.0,0.0,0.0,0.0,0.0,0.0,0.0,0.0,0.0,0.0,0.0,0.0,0.0,0.0,-0.8226,-0.9827,-1.0692,-1.1131,-1.1124,-1.1558,-1.153,-1.0968,-1.0671,-1.0242,0.0,0.0,0.0,0.0,0.0,0.0,0.0,0.0,0.0,0.0,0.0,0.0,0.0,0.0,0.0,0.0,0.0,0.0,0.0,0.0,0.0,0.0,0.0,0.0,0.0,0.0,0.0,0.0,-0.6061,-0.6199,-0.5421,0.0,0.0,0.0,0.0,0.0,0.0,0.0,0.0,0.0,0.0,-1.2363,-1.3212,-1.3182,0.0,0.0,-1.3117,-1.2841,-1.2874,-1.316,-1.2779,-1.0939,-0.9593,0.0,0.0,0.0,0.0,0.0,0.0,0.0,0.0,0.0,0.0,0.0,0.0,0.0,0.0,0.0,0.0,0.0,0.0,0.0,0.0,0.0,0.0,0.0,0.0,0.0,0.0,0.0,0.0,0.0,0.0,0.0,0.0,0.0,0.0,0.0,0.0,0.0,0.0,0.0,0.0,0.0,0.0,0.0,0.0,0.0,0.0,0.0,0.0,0.0,0.0,0.0,0.0,-0.8556,-1.0175,-1.1061,-1.1638,-1.1817,-1.2396,-1.2244,-1.1373,-1.1088,-1.0572,0.0,0.0,0.0,0.0,0.0,0.0,0.0,0.0,0.0,0.0,0.0,0.0,0.0,0.0,0.0,0.0,0.0,0.0,0.0,0.0,0.0,0.0,0.0,0.0,0.0,0.0,0.0,0.0,-0.6696,-0.6652,-0.5568,0.0,0.0,0.0,0.0,0.0,0.0,0.0,0.0,0.0,0.0,-1.2979,-1.375,-1.3707,-1.3576,-1.3616,-1.3371,-1.3227,-1.3278,-1.3337,-1.2907,-1.1622,0.0,0.0,0.0,0.0,0.0,0.0,0.0,0.0,0.0,0.0,0.0,0.0,0.0,0.0,0.0,0.0,0.0,0.0,0.0,0.0,0.0,0.0,0.0,0.0,0.0,0.0,0.0,0.0,0.0,0.0,-0.5187,0.0,0.0,0.0,0.0,0.0,0.0,0.0,0.0,0.0,0.0,0.0,0.0,0.0,0.0,0.0,0.0,0.0,0.0,0.0,0.0,0.0,0.0,-0.9389,-1.1044,-1.1948,-1.2756,-1.338,-1.3527,-1.3102,-1.2105,-1.1324,-1.0535,-0.9698,0.0,0.0,0.0,0.0,0.0,0.0,0.0,0.0,0.0,0.0,0.0,0.0,0.0,0.0,0.0,0.0,0.0,0.0,0.0,0.0,0.0,0.0,0.0,0.0,0.0,0.0,-0.6588,-0.6043,-0.5433,0.0,0.0,0.0,0.0,0.0,0.0,0.0,0.0,0.0,0.0,-1.2752,-1.3121,-1.3713,-1.3812,-1.3736,-1.3488,-1.332,-1.3252,-1.3354,-1.3269,-1.295,0.0,0.0,0.0,0.0,0.0,0.0,0.0,0.0,0.0,0.0,0.0,0.0,0.0,0.0,0.0,0.0,0.0,0.0,0.0,0.0,0.0,0.0,0.0,0.0,0.0,0.0,0.0,-0.8406,-0.8134,0.0,0.0,0.0,0.0,0.0,0.0,0.0,0.0,0.0,0.0,0.0,-1.1719,-1.1685,0.0,0.0,0.0,0.0,0.0,0.0,0.0,0.0,0.0,0.0,0.0,0.0,-0.945,-1.1004,-1.1922,-1.2713,-1.3421,-1.3939,-1.3776,-1.2922,-1.2122,-1.0783,-0.8903,0.0,0.0,0.0,0.0,0.0,0.0,0.0,0.0,0.0,0.0,0.0,0.0,0.0,0.0,0.0,0.0,0.0,0.0,0.0,0.0,0.0,0.0,0.0,0.0,0.0,-0.7247,0.0,0.0,0.0,0.0,0.0,0.0,0.0,0.0,0.0,0.0,0.0,-1.1821,-1.3219,-1.3649,-1.3863,-1.3978,-1.4296,-1.4488,0.0,0.0,0.0,0.0,0.0,0.0,0.0,0.0,0.0,0.0,0.0,0.0,0.0,0.0,-1.3399,-1.1943,-1.0905,-1.0737,-1.2234,0.0,0.0,0.0,0.0,0.0,0.0,0.0,0.0,0.0,0.0,0.0,0.0,0.0,0.0,-0.9902,0.0,-0.9591,0.0,0.0,0.0,0.0,0.0,0.0,0.0,0.0,-1.1854,-1.2396,-1.2633,-1.258,-1.2561,0.0,-1.2271,-1.1396,0.0,0.0,0.0,0.0,0.0,0.0,0.0,0.0,-1.0176,-1.1497,-1.2337,-1.311,-1.3859,-1.4344,-1.4167,-1.3308,-1.2242,-1.0783,-0.8922,-0.8832,-0.869,0.0,0.0,0.0,0.0,0.0,0.0,0.0,0.0,0.0,0.0,0.0,0.0,0.0,0.0,0.0,0.0,0.0,0.0,0.0,0.0,0.0,0.0,0.0,-0.8119,0.0,0.0,0.0,0.0,0.0,0.0,0.0,0.0,0.0,-1.0259,-1.1411,-1.2751,-1.4255,-1.4363,-1.4436,-1.4816,0.0,0.0,0.0,0.0,0.0,0.0,0.0,-1.421,-1.4708,-1.5483,-1.5491,-1.3775,-1.4098,-1.451,-1.4261,0.0,0.0,-1.3177,-1.2481,-1.244,-1.3511,-1.319,-1.2987,-1.3706,-1.4062,-1.4112,0.0,0.0,0.0,0.0,0.0,0.0,0.0,0.0,-1.1699,-1.1699,0.0,-1.0856,0.0,0.0,0.0,0.0,0.0,-1.1882,0.0,0.0,-1.3574,-1.3555,-1.2931,-1.294,-1.2882,-1.2921,-1.3614,-1.348,-1.2565,-1.0101,0.0,0.0,0.0,0.0,0.0,0.0,-1.1542,-1.2502,-1.3225,-1.3994,-1.4747,-1.4736,-1.4242,-1.3309,-1.1792,-1.059,-0.9781,-0.9638,-0.9229,-0.8486,-0.9087,0.0,0.0,0.0,0.0,0.0,0.0,0.0,0.0,0.0,0.0,0.0,0.0,0.0,0.0,0.0,0.0,0.0,0.0,0.0,0.0,-0.8646,0.0,0.0,0.0,0.0,0.0,0.0,0.0,0.0,0.0,0.0,-1.1789,-1.2638,-1.3773,-1.5443,0.0,0.0,0.0,0.0,-1.5434,-1.6121,-1.5863,-1.5646,-1.5767,-1.5814,-1.5744,-1.545,0.0,0.0,-1.4683,-1.4919,-1.5197,-1.446,-1.4977,-1.5209,-1.4725,-1.436,-1.4261,-1.4529,-1.443,-1.4534,-1.5259,-1.5977,-1.6097,-1.3964,0.0,0.0,0.0,0.0,-1.2422,-1.3213,-1.4268,-1.3643,-1.375,-1.4258,-1.3396,0.0,0.0,0.0,0.0,0.0,0.0,-1.3329,-1.4474,-1.4734,-1.5324,-1.6253,-1.6259,-1.6279,-1.624,-1.5283,-1.4704,-1.4376,-1.2455,-1.0985,-1.0066,0.0,0.0,0.0,0.0,-1.2473,-1.3244,-1.3535,-1.4037,-1.4794,-1.4745,-1.4251,-1.3318,-1.2306,-1.1379,-1.0581,-0.9984,-0.9528,-0.9283,-0.9486,0.0,0.0,0.0,0.0,0.0,0.0,0.0,0.0,0.0,0.0,0.0,0.0,0.0,0.0,0.0,0.0,0.0,0.0,0.0,-0.8768,-0.925,-0.9072,0.0,0.0,0.0,0.0,0.0,0.0,0.0,0.0,0.0,-1.3455,-1.3816,-1.4337,0.0,0.0,-1.608,-1.6286,-1.6509,-1.6721,-1.6832,-1.7175,0.0,-1.7139,-1.7186,-1.7181,-1.7051,-1.7269,-1.7298,-1.6783,-1.6856,-1.6953,-1.6713,-1.6886,-1.6926,-1.665,-1.5723,-1.5242,-1.5628,-1.5841,-1.628,-1.7316,-1.7869,-1.8124,-1.6174,-1.4771,-1.4139,-1.3887,-1.3926,-1.4277,-1.498,-1.5869,-1.5352,-1.5615,-1.6374,-1.5522,-1.4848,-1.439,-1.3986,0.0,0.0,0.0,-1.495,-1.6195,-1.6216,-1.6765,-1.7664,-1.7696,-1.7696,-1.7654,-1.6673,-1.6196,-1.617,-1.5142,-1.4134,-1.314,0.0,0.0,-1.1675,-1.2517,-1.3204,-1.3675,-1.4016,-1.4399,-1.4829,-1.4755,-1.4251,-1.3336,-1.283,-1.2058,-1.0948,-1.0426,-0.9995,-0.9657,-0.9672,-0.9675,0.0,0.0,0.0,0.0,0.0,0.0,0.0,0.0,0.0,0.0,0.0,-0.6115,0.0,0.0,0.0,0.0,-0.5888,-0.7434,-0.9328,-0.9491,0.0,0.0,0.0,0.0,0.0,0.0,0.0,-0.9851,-1.15,-1.3267,-1.4723,-1.531,-1.5762,-1.6243,-1.6483,-1.6788,-1.7265,0.0,-1.7443,-1.7761,-1.8036,-1.8137,-1.7988,-1.7794,-1.7652,-1.7629,-1.7594,-1.7602,-1.7681,-1.776,-1.7912,-1.8169,-1.8254,-1.8087,-1.7604,-1.7321,-1.732,-1.7553,-1.7714,-1.806,-1.8808,-1.9336,-1.9756,-1.8028,-1.7973,-1.646,-1.5752,-1.5693,-1.6475,-1.6855,-1.6894,-1.6826,-1.7303,-1.8026,-1.7184,-1.6806,-1.6752,-1.5901,0.0,-1.6614,-1.6678,-1.7089,-1.7805,-1.7879,-1.7907,-1.7907,-1.7917,-1.7905,-1.7927,-1.7848,-1.7797,-1.7792,-1.7713,-1.7265,-1.6361,-1.4082,-1.2912,-1.2931,-1.3578,-1.393,-1.4016,-1.4601,-1.4923,-1.4887,-1.4775,-1.4279,-1.3427,-1.328,-1.2518,-1.1067,-1.0857,-1.0453,-0.9753,-0.9707,-0.9707,-0.9698,0.0,0.0,0.0,0.0,0.0,0.0,0.0,0.0,0.0,0.0,0.0,0.0,0.0,0.0,0.0,-0.7744,0.0,-0.9491,-0.9554,0.0,0.0,0.0,-1.0802,-1.0784,-1.1518,-1.216,-1.2588,0.0,0.0,-1.5887,-1.7004,-1.7675,-1.7787,-1.7151,-1.7232,-1.8673,-1.8084,-1.7844,-1.8655,-1.85,-1.8249,-1.8191,-1.7839,-1.7569,-1.7592,-1.7661,-1.7764,-1.7884,-1.8034,-1.8405,-1.909,-1.9227,-1.8981,-1.7982,-1.918,-2.0237,-1.9862,-1.9691,-1.9658,-1.9782,-2.0393,-2.0922,-1.9792,-1.9771,-1.943,-1.8543,-1.7402,-1.7607,-1.8066,-1.8603,-1.7978,-1.8164,-1.8934,-1.8077,-1.7683,-1.7684,-1.7465,-1.744,-1.7576,-1.7596,-1.8012,-1.8736,-1.8776,-1.9108,-1.9667,-1.9669,-1.9686,-1.9638,-1.9013,-1.8696,-1.8665,-1.8013,-1.7588,-1.7339,-1.6757,-1.6108,-1.5451,-1.5645,-1.5716,-1.5638,-1.5249,-1.4983,-1.484,-1.4746,-1.4537,-1.4215,-1.3022,-1.2205,-1.181,-1.0617,-0.99,-0.9717,-0.9707,-0.9707,-0.9707,-0.9625,0.0,0.0,0.0,0.0,0.0,0.0,0.0,0.0,0.0,-0.7463,-0.6099,0.0,-0.8305,0.0,-0.8379,-0.9491,-0.95,-1.0049,0.0,0.0,-1.1128,-1.1617,-1.1626,-1.2314,-1.2631,-1.2153,-1.3147,-1.504,-1.798,-1.8554,-1.869,-1.8612,-1.8536,-1.8574,-1.8792,-1.8643,-1.8465,-1.8519,-1.8476,-1.8316,-1.8005,-1.7833,-1.7783,-1.7859,-1.7904,-1.8161,-1.8877,-1.9037,-1.9309,-2.0007,-2.0177,-2.0185,-2.0273,-2.0559,-2.102,-2.1669,-2.1096,-2.0428,-2.0875,-2.125,-2.1575,-2.1483,-2.1523,-2.1546,-2.106,-2.0178,-1.9425,-1.9381,-1.9775,-1.9307,-1.9404,-1.9863,-1.9783,-1.9731,-1.9737,-1.9735,-1.9696,-1.9613,-1.9271,-1.9302,-1.9672,-1.9672,-1.9914,-2.0289,-2.0298,-2.0302,-2.0292,-1.9802,-1.9581,-1.9559,-1.9081,-1.8833,-1.882,-1.8801,-1.8549,-1.8025,-1.7297,-1.6892,-1.6822,-1.6071,-1.557,-1.5377,-1.4962,-1.4656,-1.4481,-1.3637,-1.2838,-1.2113,-1.1241,-1.0433,-0.9761,-0.9707,-0.9707,-0.9698,-0.9609,-0.8762,0.0,0.0,0.0,0.0,0.0,0.0,0.0,0.0,0.0,0.0,0.0,-0.9337,-0.8982,-0.9928,-1.0575,-1.0567,-1.0969,-1.123,-1.1246,-1.2278,-1.2975,-1.2975,-1.3998,-1.4252,-1.3111,-1.4605,-1.6564,-1.8788,-1.9113,-1.9069,-1.9005,-1.9,-1.8958,-1.8841,-1.8749,-1.8629,-1.8515,-1.8496,-1.8434,-1.8129,-1.8117,-1.8087,-1.8052,-1.8356,-1.8809,-1.9312,-1.9675,-2.0158,-2.094,-2.1086,-2.1229,-2.1877,-2.195,-2.2082,-2.2504,-2.2232,-2.1793,-2.1857,-2.1969,-2.216,-2.286,-2.2888,-2.289,-2.2923,-2.2869,-2.1424,-2.0816,-2.0827,-2.083,-2.0869,-2.0977,-2.1719,-2.205,-2.2046,-2.2061,-2.203,-2.1919,-2.1249,-2.0855,-2.0744,-2.0628,-2.0526,-2.0466,-2.0359,-2.0302,-2.0302,-2.0302,-2.0302,-2.0302,-2.0302,-2.0265,-2.0211,-2.0201,-2.0203,-2.0139,-1.8687,-1.7838,-1.7603,-1.6884,-1.6447,-1.6251,-1.5385,-1.4855,-1.4681,-1.4382,-1.3555,-1.2197,-1.2032,-1.1277,-0.9824,-0.9706,-0.9707,-0.9683,-0.9584,-0.9525,0.0,-0.8593,0.0,0.0,0.0,0.0,0.0,0.0,0.0,0.0,-0.9111,-0.9969,-1.1101,-1.182,-1.2123,-1.1909,-1.1996,-1.2104,-1.2233,-1.3546,-1.4496,-1.4641,-1.5859,-1.6195,-1.4854,-1.6356,-1.7919,-1.8924,-1.9113,-1.9113,-1.906,-1.8967,-1.8861,-1.878,-1.8632,-1.8526,-1.8566,-1.8544,-1.8465,-1.8445,-1.8465,-1.8447,-1.8336,-1.8862,-1.9499,-1.9777,-2.0245,-2.0942,-2.1856,-2.1949,-2.2101,-2.2981,-2.306,-2.306,-2.3077,-2.2958,-2.2815,-2.2612,-2.256,-2.2623,-2.2888,-2.2888,-2.2888,-2.2922,-2.2888,-2.2579,-2.2478,-2.2531,-2.2586,-2.2656,-2.2715,-2.2832,-2.2871,-2.2861,-2.2872,-2.2853,-2.2844,-2.2699,-2.2611,-2.2549,-2.1812,-2.1424,-2.1307,-2.0639,-2.0302,-2.0302,-2.0302,-2.0302,-2.0302,-2.0302,-2.0302,-2.0285,-2.0285,-2.0257,-2.0184,0.0,0.0,0.0,-1.7283,-1.7126,-1.7027,-1.6154,-1.5655,-1.5586,-1.3731,0.0,-1.2269,-1.1639,-1.0824,-0.9859,-0.9728,0.0,0.0,0.0,0.0,0.0,0.0,0.0,0.0,0.0,0.0,0.0,-1.1191,-1.0684,-0.9409,-0.9419,-1.0123,-1.1617,-1.3018,-1.332,-1.2053,-1.2486,-1.313,-1.3793,-1.4692,-1.5519,-1.6153,-1.6539,-1.672,-1.6914,-1.7252,-1.7903,-1.8913,-1.9113,-1.9051,-1.8971,-1.8878,-1.8786,-1.8654,-1.861,-1.8565,-1.8535,-1.8513,-1.8485,-1.8485,-1.8538,-1.8842,-1.9213,-1.9483,-2.0123,-2.1143,-2.1359,-2.172,-2.2658,-2.2851,-2.2818,-2.306,-2.3111,-2.3111,-2.3111,-2.2944,-2.2824,-2.2949,-2.2981,-2.2995,-2.4107,0.0,-2.414,-2.4146,0.0,-2.4169,-2.4196,-2.4172,-2.3388,-2.3074,-2.3174,-2.3574,-2.375,-2.374,-2.3738,-2.3753,-2.3724,-2.3306,-2.3107,-2.3074,-2.2584,-2.2333,-2.227,-2.177,-2.1312,-2.0908,-2.0889,-2.0687,-2.0312,-2.0302,-2.0302,-2.0302,-2.0302,-2.0294,-2.0248,-2.0201,-1.9774,-1.8891,-1.8365,-1.8059,-1.7942,-1.6722,-1.6049,-1.5943,-1.441,0.0,0.0,0.0,0.0,0.0,0.0,0.0,0.0,0.0,0.0,-1.0758,-1.0382,-1.0322,-1.0652,-1.0689,-1.1019,-1.1843,-1.264,-1.2285,-1.0449,-1.0521,-1.1344,-1.2921,-1.3841,-1.4306,-1.431,-1.4409,-1.476,-1.5424,-1.6208,-1.6859,-1.7246,-1.7654,-1.7998,-1.8236,-1.8299,-1.8516,-1.9024,-1.9113,-1.9078,-1.8998,-1.8878,-1.8785,-1.8704,-1.8605,-1.8544,-1.8496,-1.8485,-1.8687,-1.917,-1.9486,-1.9735,-2.0174,-2.0562,-2.1135,-2.1867,-2.2094,-2.2377,-2.2956,-2.2995,-2.2944,-2.3095,-2.3111,-2.3111,-2.3095,-2.2995,-2.2937,-2.3076,-2.3023,-2.2995,-2.5332,-2.5398,-2.5387,-2.5414,-2.5419,-2.5484,-2.5511,-2.5406,0.0,0.0,0.0,-2.4316,-2.4639,-2.4619,-2.4639,-2.4637,-2.457,-2.3885,-2.3562,-2.3548,-2.334,-2.3232,-2.3231,-2.2946,-2.2348,-2.1514,-2.1477,-2.1091,-2.0321,-2.0302,-2.0302,-2.0302,-2.0302,-2.0302,-2.0302,-2.023,-2.0205,-2.0172,-1.9476,-1.904,-1.8868,-1.7273,-1.6393,-1.6328,-1.5215,-1.4306,-1.3659,-1.3621,-1.3272,-1.247,-1.2232,-1.1543,-1.0337,-1.1904,-1.2758,-1.2478,-1.2252,-1.2147,-1.213,-1.2113,-1.2252,-1.2504,-1.389,-1.3872,-1.1834,-1.207,-1.2948,-1.446,-1.4922,-1.5601,-1.6593,-1.6397,-1.6382,-1.6869,-1.7509,-1.7935,-1.8134,-1.8678,-1.9024,-1.9113,-1.9042,-1.9104,-1.9087,-1.9113,-1.9087,-1.9052,-1.8887,-1.8777,-1.8741,-1.8603,-1.8505,-1.8485,-1.8494,-1.8827,-1.981,-2.0758,-2.1114,-2.1053,-2.1534,-2.202,-2.2218,-2.2516,-2.2833,-2.3042,-2.291,-2.291,-2.3061,-2.3111,-2.3111,-2.3111,-2.3111,-2.3111,-2.3086,-2.297,-2.2944,-2.5332,-2.5396,-2.5387,-2.5422,-2.5484,-2.5482,-2.5511,-2.5492,-2.5308,-2.5265,-2.5342,-2.5459,-2.5508,-2.5527,-2.5518,-2.5527,-2.5507,-2.5386,-2.5332,-2.5297,-2.4489,-2.4116,-2.4067,-2.3273,-2.2402,-2.1543,-2.1495,-2.1081,-2.0379,-2.0292,-2.0302,-2.0302,-2.0302,-2.0302,-2.0294,-2.0233,-2.0207,-2.0208,-1.9964,-1.9818,-1.9719,-1.8092,-1.7227,-1.7122,-1.5092,-1.3902,-1.3786,-1.3783,-1.3366,-1.2585,-1.3833,-1.3824,-1.2179,-1.2341,-1.2962,-1.3985,-1.3234,-1.2776,-1.3007,-1.2962,-1.3536,-1.4882,-1.5845,-1.5651,-1.4031,-1.3923,-1.4442,-1.5615,-1.7249,-1.7919,-1.695,-1.7068,-1.7387,-1.7668,-1.7828,-1.8154,-1.8805,-1.9005,-1.9113,-1.9113,-1.9113,-1.9113,-1.9113,-1.9113,-1.9051,-1.8954,-1.8861,-1.8741,-1.8588,-1.8522,-1.8485,-1.8485,-1.8485,-1.8933,-2.0043,-2.1613,-2.2259,-2.1914,-2.1931,-2.2268,-2.2775,-2.2919,-2.3025,-2.3102,-2.3045,-2.3061,-2.3111,-2.3111,-2.3111,-2.3111,-2.3111,-2.3111,-2.3111,-2.3061,-2.3061,-2.5313,-2.536,-2.5398,-2.5424,-2.545,-2.5476,-2.5511,-2.5511,-2.553,-2.5578,-2.5634,-2.5672,-2.5693,-2.5693,-2.5693,-2.5693,-2.5693,-2.5701,-2.5696,-2.5666,-2.5223,-2.4999,-2.4968,-2.4537,-2.3615,-2.2372,-2.2323,-2.1636,-2.044,-2.0314,-2.0294,-2.0294,-2.0296,-2.0302,-2.0285,-2.0249,-2.0196,-2.0207,-2.0108,-2.004,-2.0001,-1.8844,-1.7992,-1.7508,-1.5994,-1.4985,-1.4526,-1.4507,-1.4312,-1.392,-1.4668,-1.4709,-1.3935,-1.3802,-1.398,-1.4437,-1.4016,-1.3956,-1.4468,-1.4851,-1.5366,-1.6117,-1.6911,-1.6986,-1.6126,-1.5755,-1.6167,-1.75,-1.8562,-1.8806,-1.8064,-1.8232,-1.8423,-1.8544,-1.856,-1.8714,-1.9014,-1.9113,-1.9113,-1.9113,-1.9113,-1.9113,-1.9113,-1.9113,-1.9078,-1.9016,-1.8905,-1.8727,-1.854,-1.8502,-1.8698,-1.902,-1.883,-1.9301,-2.0767,-2.2163,-2.2856,-2.2628,-2.2579,-2.2726,-2.3067,-2.3111,-2.3111,-2.3111,-2.3111,-2.3111,-2.3111,-2.3111,-2.3111,-2.3111,-2.3111,-2.3111,-2.3111,-2.3111,-2.3111,-2.5313,-2.5332,-2.5379,-2.5426,-2.5423,-2.5466,-2.5511,-2.5511,-2.5511,-2.5538,-2.559,-2.5665,-2.5693,-2.5693,-2.5693,-2.5693,-2.5693,-2.5702,-2.5697,-2.5687,-2.5655,-2.5599,-2.5598,-2.5552,-2.4641,-2.3173,-2.3008,-2.2105,-2.057,-2.0355,-2.033,-2.0296,-2.0301,-2.0302,-2.0302,-2.0238,-2.0203,-2.0197,-2.0135,-2.0107,-2.0088,-1.9297,-1.8582,-1.7919,-1.711,-1.6362,-1.5721,-1.5484,-1.5389,-1.5379,-1.5198,-1.5102,-1.5102,-1.5009,-1.4954,-1.5023,-1.5043,-1.5284,-1.5838,-1.6558,-1.6965,-1.6992,-1.7726,-1.8082,-1.7865,-1.7475,-1.7735,-1.887,-1.906,-1.9078,-1.9014,-1.9051,-1.9113,-1.9113,-1.9113,-1.9086,-1.9104,-1.9113,-1.9113,-1.9113,-1.9113,-1.9113,-1.9113,-1.9113,-1.9079,-1.9002,-1.8885,-1.8737,-1.8742,-1.8786,-1.9117,-1.977,-1.9529,-1.9819,-2.168,-2.2601,-2.3007,-2.3111,-2.3084,-2.3058,-2.3111,-2.3111,-2.3111,-2.3111,-2.3111,-2.3111,-2.3111,-2.3111,-2.3111,-2.3111,-2.3111,-2.3111,-2.3111,-2.3111,-2.3111,-2.5332,-2.5389,-2.5398,-2.5444,-2.5484,-2.5482,-2.5511,-2.5511,-2.5511,-2.5511,-2.5531,-2.5644,-2.5693,-2.5693,-2.5693,-2.5693,-2.5693,-2.5702,-2.5697,-2.5697,-2.5685,-2.5651,-2.5605,-2.5598,-2.469,-2.3183,-2.3013,-2.2119,-2.0467,-2.0405,-2.0351,-2.0302,-2.0301,-2.0302,-2.0294,-2.0238,-2.0201,-2.0201,-2.0199,-2.0164,-2.005,-1.9316,-1.8858,-1.878,-1.7928,-1.745,-1.725,-1.6659,-1.6287,-1.621,-1.5551,-1.5121,-1.5102,-1.5085,-1.5549,-1.6552,-1.6672,-1.6689,-1.6746,-1.7379,-1.779,-1.7853,-1.8489,-1.8924,-1.8897,-1.8877,-1.8888,-1.9078,-1.9113,-1.9113,-1.9113,-1.9113,-1.9113,-1.9113,-1.9113,-1.9113,-1.9113,-1.9113,-1.9113,-1.9113,-1.9113,-1.9113,-1.9113,-1.9203,-1.9135,-1.9031,-1.9023,-1.9096,-1.9509,-1.9594,-2.0056,-2.1149,-2.107,-2.0982,-2.1917,-2.2628,-2.304,-2.3111,-2.3111,-2.3111,-2.3111,-2.3111,-2.3111,-2.3111,-2.3111,-2.3111,-2.3111,-2.3111,-2.3111,-2.3111,-2.3111,-2.3111,-2.3111,-2.3111,-2.3111,-2.5322,-2.5361,-2.539,-2.5426,-2.5435,-2.5472,-2.5511,-2.5511,-2.5511,-2.5511,-2.5517,-2.556,-2.5619,-2.5693,-2.5693,-2.5693,-2.5693,-2.5693,-2.5699,-2.5699,-2.5697,-2.5701,-2.5654,-2.5651,-2.4748,-2.3166,-2.3049,-2.2172,-2.0779,-2.0487,-2.0396,-2.0301,-2.0296,-2.0299,-2.0292,-2.0238,-2.0201,-2.0201,-2.0207,-2.0182,-2.0126,-1.9802,-1.9382,-1.8913,-1.8552,-1.8094,-1.7641,-1.7259,-1.7106,-1.7089,-1.6753,-1.6112,-1.515,-1.5102,-1.5767,-1.7159,-1.7582,-1.7671,-1.7526,-1.8209,-1.8603,-1.8623,-1.8897,-1.9113,-1.9113,-1.9113,-1.9113,-1.9113,-1.9113,-1.9113,-1.9113,-1.9113,-1.9113,-1.9113,-1.9113,-1.9113,-1.9113,-1.9113,-1.9113,-1.9113,-1.9113,-1.9122,-1.9265,-1.994,-2.0179,-1.9812,-1.9786,-2.0137,-2.0435,-2.041,-2.0833,-2.165,-2.158,-2.1706,-2.2435,-2.2874,-2.3093,-2.3111,-2.3111,-2.3111,-2.3111,-2.3111,-2.3111,-2.3111,-2.3111,-2.3111,-2.3111,-2.3111,-2.3111,-2.3111,-2.3111,-2.3111,-2.3111,-2.3111,-2.3111,-2.5303,-2.5322,-2.538,-2.5388,-2.5398,-2.5464,-2.5511,-2.5511,-2.5511,-2.5511,-2.5511,-2.5511,-2.5568,-2.5671,-2.5681,-2.5693,-2.5693,-2.5693,-2.5692,-2.5694,-2.5701,-2.5697,-2.5697,-2.5687,-2.4926,-2.3618,-2.3199,-2.2223,-2.0757,-2.0524,-2.0451,-2.0361,-2.0318,-2.0295,-2.0294,-2.0254,-2.0229,-2.023,-2.0204,-2.0198,-2.0182,-2.0155,-1.984,-1.9305,-1.923,-1.8915,-1.8312,-1.8091,-1.7957,-1.7957,-1.7737,-1.7059,-1.5902,-1.5797,-1.6536,-1.8066,-1.8517,-1.8608,-1.8436,-1.8938,-1.9202,-1.9175,-1.917,-1.9153,-1.9137,-1.9129,-1.9113,-1.9113,-1.9113,-1.9113,-1.9113,-1.9113,-1.9113,-1.9113,-1.9113,-1.9113,-1.9113,-1.9113,-1.9113,-1.9113,-1.9331,-1.9531,-1.9882,-2.0829,-2.1339,-2.0669,-2.0782,-2.1185,-2.1264,-2.1225,-2.143,-2.2145,-2.2119,-2.2321,-2.297,-2.3102,-2.3111,-2.3111,-2.3111,-2.3111,-2.3111,-2.3111,-2.3111,-2.3111,-2.3111,-2.3111,-2.3111,-2.3111,-2.3111,-2.3111,-2.3111,-2.3111,-2.3111,-2.3111,-2.3111,-2.5303,-2.5293,-2.536,-2.5395,-2.5403,-2.5466,-2.5511,-2.5511,-2.5511,-2.5511,-2.5511,-2.5511,-2.5538,-2.5608,-2.5661,-2.5693,-2.5693,-2.5693,-2.5693,-2.5693,-2.5696,-2.5697,-2.5697,-2.5687,-2.5219,-2.4231,-2.354,-2.234,-2.0739,-2.0575,-2.0514,-2.0484,-2.0362,-2.0302,-2.0292,-2.0294,-2.0285,-2.0285,-2.0238,-2.0203,-2.0198,-2.0202,-2.0136,-1.9993,-2.0031,-1.9955,-1.984,-1.9229,-1.8837,-1.8855,-1.8129,-1.7594,-1.7498,-1.7489,-1.8244,-1.9659,-1.9725,-1.9573,-1.9471,-1.9462,-1.9448,-1.938,-1.9311,-1.9276,-1.926,-1.9163,-1.9113,-1.9113,-1.9113,-1.9113,-1.9205,-1.915,-1.9122,-1.9113,-1.9113,-1.9113,-1.9113,-1.9177,-1.9122,-1.9221,-1.9766,-2.0463,-2.1233,-2.1897,-2.1944,-2.1482,-2.121,-2.1404,-2.194,-2.2018,-2.2274,-2.2724,-2.2953,-2.3049,-2.3111,-2.3111,-2.3111,-2.3111,-2.3111,-2.3111,-2.3111,-2.3111,-2.3111,-2.3111,-2.3111,-2.3111,-2.3111,-2.3111,-2.3111,-2.3111,-2.3111,-2.3111,-2.3111,-2.3111,-2.3111,-2.5303,-2.5313,-2.537,-2.5396,-2.5394,-2.543,-2.5456,-2.5511,-2.5511,-2.5511,-2.5511,-2.5511,-2.5511,-2.5538,-2.5613,-2.5654,-2.5693,-2.5693,-2.5693,-2.5693,-2.5692,-2.5698,-2.5699,-2.5697,-2.5238,-2.4456,-2.4056,-2.3072,-2.1588,-2.1405,-2.1074,-2.0568,-2.0451,-2.0386,-2.0314,-2.0295,-2.0289,-2.0292,-2.0275,-2.0248,-2.0204,-2.0209,-2.0201,-2.0183,-2.0117,-2.0108,-2.0108,-1.9811,-1.9678,-1.9678,-1.9362,-1.92,-1.92,-1.9209,-1.9439,-1.9993,-1.9928,-1.9738,-1.9568,-1.9559,-1.9546,-1.9467,-1.9357,-1.9298,-1.9266,-1.9179,-1.9113,-1.9113,-1.9113,-1.9331,-1.9847,-1.9531,-1.9122,-1.9113,-1.9122,-1.9167,-1.9205,-1.9522,-1.9685,-1.9422,-2.0219,-2.1314,-2.1986,-2.2726,-2.2953,-2.2399,-2.2515,-2.2754,-2.2882,-2.2888,-2.2867,-2.303,-2.3111,-2.3111,-2.3111,-2.3111,-2.3111,-2.3111,-2.3111,-2.3111,-2.3111,-2.3111,-2.3111,-2.3111,-2.3111,-2.3111,-2.3111,-2.3111,-2.3111,-2.3111,-2.3111,-2.3111,-2.3111,-2.3111,-2.3111,-2.5303,-2.5313,-2.537,-2.5397,-2.5394,-2.5393,-2.5429,-2.5511,-2.5511,-2.5511,-2.5511,-2.5511,-2.5511,-2.5526,-2.5576,-2.5632,-2.5693,-2.5693,-2.5693,-2.5693,-2.5693,-2.5701,-2.5699,-2.5697,-2.5385,-2.4838,-2.4505,-2.3648,-2.2449,-2.2281,-2.1959,-2.1403,-2.1343,-2.1148,-2.0851,-2.0739,-2.063,-2.0378,-2.0291,-2.0257,-2.0222,-2.0197,-2.02,-2.0164,-2.0117,-2.0108,-2.0108,-2.0108,-2.0108,-2.0108,-2.0108,-2.0108,-2.0108,-2.0108,-2.0108,-2.0098,-2.002,-1.9892,-1.9701,-1.9723,-1.9684,-1.9596,-1.9484,-1.9405,-1.9381,-1.9209,-1.912,-1.9113,-1.914,-1.9685,-2.1124,-2.1079,-2.0336,-1.9757,-1.9712,-1.9739,-1.9567,-2.0201,-2.0454,-2.0508,-2.145,-2.2328,-2.2745,-2.337,-2.346,-2.3098,-2.3434,-2.3566,-2.349,-2.3345,-2.3217,-2.3119,-2.3111,-2.3111,-2.3111,-2.3111,-2.3111,-2.3111,-2.3111,-2.3111,-2.3111,-2.3111,-2.3111,-2.3111,-2.3111,-2.3111,-2.3111,-2.3111,-2.3111,-2.3111,-2.3111,-2.3111,-2.3111,-2.3111,-2.3111,-2.5303,-2.5313,-2.5361,-2.5388,-2.5387,-2.5385,-2.5439,-2.5493,-2.5484,-2.5493,-2.5501,-2.5511,-2.5511,-2.5511,-2.5563,-2.5625,-2.5674,-2.5693,-2.5693,-2.5693,-2.5693,-2.5693,-2.5701,-2.5699,-2.5687,-2.5541,-2.4829,-2.3999,-2.316,-2.3111,-2.3043,-2.3011,-2.2859,-2.2432,-2.1789,-2.1584,-2.1133,-2.0579,-2.0369,-2.0277,-2.0197,-2.0205,-2.017,-2.0126,-2.0108,-2.0108,-2.0108,-2.0108,-2.0108,-2.0108,-2.0108,-2.0108,-2.0108,-2.0108,-2.0108,-2.0108,-2.0088,-2.005,-2.0009,-1.9965,-1.9894,-1.9729,-1.9641,-1.956,-1.948,-1.9295,-1.912,-1.9113,-1.9531,-2.0508,-2.2989,-2.3397,-2.25,-2.0816,-2.0834,-2.0925,-2.0626,-2.1016,-2.1704,-2.2165,-2.2998,-2.3687,-2.3768,-2.3759,-2.3723,-2.3684,-2.3606,-2.3544,-2.3508,-2.3336,-2.3135,-2.3111,-2.3111,-2.3111,-2.3111,-2.3111,-2.3111,-2.3111,-2.3111,-2.3111,-2.3111,-2.3111,-2.3111,-2.3111,-2.3111,-2.3111,-2.3111,-2.3111,-2.3111,-2.3111,-2.3111,-2.3111,-2.3111,-2.3111,-2.3111,-2.5303,-2.5303,-2.5303,-2.5361,-2.5388,-2.5397,-2.5405,-2.5419,-2.5429,-2.5447,-2.5493,-2.5511,-2.5511,-2.5511,-2.553,-2.5566,-2.5625,-2.5674,-2.5693,-2.5693,-2.5693,-2.5693,-2.5701,-2.5693,-2.5697,-2.5658,-2.5434,-2.4838,-2.4136,-2.3989,-2.3724,-2.3214,-2.3134,-2.2976,-2.2682,-2.2017,-2.1461,-2.1185,-2.0588,-2.0267,-2.0212,-2.0205,-2.0189,-2.0164,-2.0126,-2.0108,-2.0108,-2.0108,-2.0108,-2.0108,-2.0108,-2.0108,-2.0108,-2.0108,-2.0108,-2.0108,-2.0108,-2.0098,-2.006,-2.0008,-1.9852,-1.9609,-1.9569,-1.9508,-1.9416,-1.9375,-1.9285,-1.9455,-2.0961,-2.2917,-2.3551,-2.3804,-2.3008,-2.1314,-2.1351,-2.1504,-2.1323,-2.1704,-2.2419,-2.317,-2.3614,-2.3786,-2.3804,-2.3804,-2.3804,-2.3792,-2.3701,-2.3611,-2.3539,-2.3351,-2.3184,-2.3111,-2.3111,-2.3111,-2.3111,-2.3111,-2.3111,-2.3111,-2.3111,-2.3111,-2.3111,-2.3111,-2.3111,-2.3111,-2.3111,-2.3111,-2.3111,-2.3111,-2.3111,-2.3111,-2.3111,-2.3111,-2.3111,-2.3111,-2.3111,-2.5303,-2.5303,-2.5303,-2.5332,-2.5398,-2.5398,-2.5396,-2.5383,-2.5392,-2.5439,-2.5493,-2.5511,-2.5511,-2.5511,-2.5511,-2.5543,-2.5595,-2.5664,-2.5693,-2.5693,-2.5693,-2.5693,-2.5693,-2.5698,-2.5701,-2.5697,-2.5697,-2.5434,-2.4907,-2.4868,-2.4614,-2.4163,-2.4067,-2.3888,-2.3588,-2.2983,-2.2421,-2.1737,-2.141,-2.0932,-2.0432,-2.0532,-2.0525,-2.0221,-2.0126,-2.0117,-2.0108,-2.0108,-2.0108,-2.0108,-2.0108,-2.0108,-2.0108,-2.0108,-2.0108,-2.0108,-2.0108,-2.0108,-2.0098,-2.0037,-1.9896,-1.9653,-1.9645,-1.9755,-1.981,-1.9924,-1.9943,-2.0483,-2.2233,-2.3804,-2.3786,-2.3804,-2.3315,-2.251,-2.2392,-2.2356,-2.2401,-2.2636,-2.3044,-2.3614,-2.3795,-2.3804,-2.3804,-2.3804,-2.3804,-2.3792,-2.3692,-2.3629,-2.3526,-2.3351,-2.3208,-2.3111,-2.3111,-2.3111,-2.3111,-2.3111,-2.3111,-2.3111,-2.3111,-2.3111,-2.3111,-2.3111,-2.3111,-2.3111,-2.3111,-2.3111,-2.3111,-2.3111,-2.3111,-2.3111,-2.3111,-2.3111,-2.3111,-2.3111,-2.3111,-2.5303,-2.5303,-2.5303,-2.5322,-2.5379,-2.5389,-2.5397,-2.5393,-2.5383,-2.5419,-2.5484,-2.5492,-2.5511,-2.5511,-2.5511,-2.5528,-2.5592,-2.5664,-2.5693,-2.5693,-2.5693,-2.5693,-2.5693,-2.5702,-2.5697,-2.5699,-2.5697,-2.5668,-2.5541,-2.5561,-2.5697,-2.5482,-2.5395,-2.5258,-2.4539,-2.4355,-2.3414,-2.2343,-2.2526,-2.1934,-2.0624,-2.1164,-2.1148,-2.0327,-2.0279,-2.0232,-2.0108,-2.0108,-2.0108,-2.0108,-2.0108,-2.0108,-2.0108,-2.0108,-2.0108,-2.0108,-2.0108,-2.0108,-2.0089,-2.0047,-1.9951,-1.983,-1.9817,-2.009,-2.0535,-2.0871,-2.1178,-2.1603,-2.3031,-2.3899,-2.3878,-2.3867,-2.3785,-2.3798,-2.3553,-2.356,-2.3741,-2.3696,-2.3714,-2.375,-2.3804,-2.3804,-2.3804,-2.3804,-2.3804,-2.3783,-2.3651,-2.358,-2.3471,-2.3336,-2.316,-2.3111,-2.3111,-2.3111,-2.3111,-2.3111,-2.3111,-2.3111,-2.3111,-2.3111,-2.3111,-2.3111,-2.3111,-2.3111,-2.3111,-2.3111,-2.3111,-2.3111,-2.3111,-2.3111,-2.3111,-2.3111,-2.3111,-2.3111,-2.3111,-2.5303,-2.5303,-2.5303,-2.5313,-2.5322,-2.5322,-2.5361,-2.5397,-2.5395,-2.5422,-2.5439,-2.5484,-2.5511,-2.5511,-2.5511,-2.5511,-2.5543,-2.5604,-2.5673,-2.5693,-2.5693,-2.5693,-2.5693,-2.5693,-2.57,-2.5699,-2.5697,-2.5697,-2.5697,-2.5697,-2.5697,-2.5697,-2.5687,-2.5609,-2.5305,-2.467,-2.4144,-2.3583,-2.3116,-2.2772,-2.2252,-2.2257,-2.1986,-2.1168,-2.1072,-2.0728,-2.0193,-2.0108,-2.0108,-2.0108,-2.0108,-2.0108,-2.0108,-2.0108,-2.0108,-2.0108,-2.0108,-2.0108,-2.0089,-2.0037,-1.9928,-1.9782,-1.9864,-2.0087,-2.0685,-2.1701,-2.214,-2.2511,-2.3529,-2.4311,-2.4116,-2.4087,-2.4105,-2.4025,-2.3876,-2.3804,-2.3804,-2.3804,-2.3804,-2.3804,-2.3804,-2.3804,-2.3804,-2.3804,-2.3804,-2.3795,-2.3714,-2.3562,-2.3467,-2.3345,-2.3184,-2.3111,-2.3111,-2.3111,-2.3111,-2.3111,-2.3111,-2.3111,-2.3111,-2.3111,-2.3111,-2.3111,-2.3111,-2.3111,-2.3111,-2.3111,-2.3111,-2.3111,-2.3111,-2.3111,-2.3111,-2.3111,-2.3111,-2.3111,-2.3111,-2.5303,-2.5303,-2.5303,-2.5303,-2.5303,-2.5303,-2.5341,-2.5379,-2.5387,-2.5394,-2.5411,-2.5474,-2.5511,-2.5511,-2.5511,-2.5511,-2.5517,-2.5544,-2.5613,-2.5693,-2.5693,-2.5693,-2.5693,-2.5693,-2.5701,-2.5694,-2.5699,-2.5697,-2.5697,-2.5697,-2.5697,-2.5697,-2.5697,-2.5697,-2.5639,-2.5208,-2.4667,-2.4362,-2.4066,-2.3761,-2.2934,-2.3182,-2.2829,-2.2144,-2.1914,-2.1502,-2.0786,-2.0652,-2.0509,-2.0222,-2.0108,-2.0108,-2.0108,-2.0108,-2.0108,-2.0108,-2.0108,-2.0108,-2.0089,-2.0028,-1.9951,-1.9924,-2.0057,-2.0606,-2.1293,-2.2355,-2.2944,-2.3354,-2.397,-2.4174,-2.4136,-2.4106,-2.4057,-2.3958,-2.3876,-2.3804,-2.3804,-2.3804,-2.3804,-2.3804,-2.3804,-2.3804,-2.3804,-2.3804,-2.3804,-2.3795,-2.3759,-2.3615,-2.3481,-2.3374,-2.3265,-2.316,-2.3111,-2.3111,-2.3111,-2.3111,-2.3111,-2.3111,-2.3111,-2.3111,-2.3111,-2.3111,-2.3111,-2.3111,-2.3111,-2.3111,-2.3111,-2.3111,-2.3111,-2.3111,-2.3111,-2.3111,-2.3111,-2.3111,-2.3111,-2.5303,-2.5303,-2.5303,-2.5303,-2.5303,-2.5303,-2.5332,-2.5379,-2.5397,-2.5386,-2.5411,-2.5466,-2.5493,-2.5511,-2.5511,-2.5511,-2.5511,-2.5507,-2.5585,-2.5664,-2.5693,-2.5693,-2.5693,-2.5701,-2.5698,-2.5697,-2.5701,-2.5699,-2.5697,-2.5697,-2.5697,-2.5697,-2.5697,-2.5697,-2.5687,-2.5617,-2.5208,-2.4784,-2.5075,-2.4656,-2.3748,-2.3889,-2.3725,-2.2948,-2.2515,-2.22,-2.1693,-2.1483,-2.1158,-2.0298,-2.0146,-2.0108,-2.0108,-2.0108,-2.0108,-2.0108,-2.0108,-2.0108,-2.0098,-2.0028,-2.0079,-2.0216,-2.07,-2.1404,-2.209,-2.2862,-2.3445,-2.4095,-2.406,-2.4088,-2.401,-2.3928,-2.3928,-2.3928,-2.3878,-2.3816,-2.3825,-2.3825,-2.3804,-2.3804,-2.3804,-2.3804,-2.3804,-2.3804,-2.3804,-2.3804,-2.3756,-2.3667,-2.3526,-2.3421,-2.328,-2.3135,-2.3111,-2.3111,-2.3111,-2.3111,-2.3111,-2.3111,-2.3111,-2.3111,-2.3111,-2.3111,-2.3111,-2.3111,-2.3111,-2.3111,-2.3111,-2.3111,-2.3111,-2.3111,-2.3111,-2.3111,-2.3111,-2.3111,-2.3111,-2.5303,-2.5303,-2.5303,-2.5303,-2.5303,-2.5303,-2.5313,-2.5332,-2.5379,-2.5387,-2.5395,-2.5421,-2.5456,-2.5511,-2.5511,-2.5511,-2.5511,-2.5526,-2.5581,-2.5684,-2.5693,-2.5693,-2.5693,-2.5698,-2.5702,-2.5701,-2.5699,-2.5697,-2.5697,-2.5697,-2.5697,-2.5697,-2.5697,-2.5697,-2.5697,-2.5687,-2.5618,-2.5375,-2.5533,-2.5327,-2.4865,-2.4768,-2.4553,-2.3703,-2.3059,-2.2601,-2.2429,-2.2343,-2.1932,-2.1177,-2.0489,-2.0108,-2.0108,-2.0108,-2.0108,-2.0108,-2.0108,-2.0108,-2.0117,-2.0145,-2.0302,-2.0901,-2.1199,-2.1659,-2.3022,-2.3143,-2.364,-2.4258,-2.4476,-2.4302,-2.395,-2.3987,-2.4018,-2.4057,-2.3928,-2.3846,-2.3976,-2.3887,-2.3825,-2.3804,-2.3804,-2.3804,-2.3804,-2.3804,-2.3804,-2.3804,-2.3762,-2.3685,-2.3594,-2.3453,-2.3313,-2.3144,-2.3111,-2.3111,-2.3111,-2.3111,-2.3111,-2.3111,-2.3111,-2.3111,-2.3111,-2.3111,-2.3111,-2.3111,-2.3111,-2.3111,-2.3111,-2.3111,-2.3111,-2.3111,-2.3111,-2.3111,-2.3111,-2.3111,-2.3111,-2.5303,-2.5303,-2.5303,-2.5303,-2.5303,-2.5303,-2.5303,-2.5313,-2.537,-2.5388,-2.5395,-2.5393,-2.5448,-2.5492,-2.5511,-2.5511,-2.5511,-2.5511,-2.5568,-2.5644,-2.5674,-2.5693,-2.5693,-2.5699,-2.5693,-2.5699,-2.5697,-2.5697,-2.5697,-2.5697,-2.5697,-2.5697,-2.5697,-2.5697,-2.5697,-2.5697,-2.5664,-2.559,-2.5607,-2.5521,-2.5369,-2.5299,-2.5139,-2.4594,-2.4024,-2.3661,-2.3269,-2.3221,-2.2763,-2.1894,-2.0843,-2.0127,-2.0117,-2.0117,-2.0117,-2.0108,-2.0108,-2.0365,-2.0528,-2.0679,-2.0959,-2.1718,-2.2054,-2.2659,-2.3403,-2.3647,-2.4063,-2.4467,-2.4594,-2.4459,-2.391,-2.3958,-2.4086,-2.4008,-2.3919,-2.3855,-2.3926,-2.3876,-2.3804,-2.3804,-2.3804,-2.3804,-2.3804,-2.3804,-2.3804,-2.3804,-2.3804,-2.3728,-2.358,-2.3462,-2.3345,-2.3193,-2.3144,-2.3111,-2.3111,-2.3111,-2.3111,-2.3111,-2.3111,-2.3111,-2.3111,-2.3111,-2.3111,-2.3111,-2.3111,-2.3111,-2.3111,-2.3111,-2.3111,-2.3111,-2.3111,-2.3111,-2.3111,-2.3111,-2.3111,-2.5303,-2.5303,-2.5303,-2.5303,-2.5303,-2.5303,-2.5303,-2.5303,-2.5361,-2.5388,-2.5395,-2.5393,-2.5439,-2.5493,-2.5511,-2.5511,-2.5511,-2.5511,-2.5554,-2.5619,-2.5677,-2.5693,-2.5693,-2.5702,-2.5696,-2.5699,-2.5697,-2.5697,-2.5697,-2.5697,-2.5697,-2.5697,-2.5697,-2.5697,-2.5697,-2.5697,-2.5666,-2.5605,-2.5611,-2.5536,-2.5424,-2.5346,-2.5236,-2.5102,-2.5,-2.4675,-2.4205,-2.4033,-2.3699,-2.2811,-2.1559,-2.0852,-2.0499,-2.0489,-2.0232,-2.0251,-2.0432,-2.0872,-2.1187,-2.1422,-2.1785,-2.2542,-2.3113,-2.3554,-2.3817,-2.42,-2.4495,-2.4617,-2.4642,-2.451,-2.4011,-2.4023,-2.4034,-2.3937,-2.3858,-2.3816,-2.3816,-2.3837,-2.3804,-2.3804,-2.3804,-2.3804,-2.3804,-2.3804,-2.3804,-2.3804,-2.3804,-2.375,-2.3603,-2.3462,-2.3345,-2.3217,-2.3135,-2.3111,-2.3111,-2.3111,-2.3111,-2.3111,-2.3111,-2.3111,-2.3111,-2.3111,-2.3111,-2.3111,-2.3111,-2.3111,-2.3111,-2.3111,-2.3111,-2.3111,-2.3111,-2.3111,-2.3111,-2.3111,-2.3111,-2.5303,-2.5303,-2.5303,-2.5303,-2.5303,-2.5303,-2.5303,-2.5322,-2.537,-2.5388,-2.5395,-2.5393,-2.5439,-2.5493,-2.5511,-2.5511,-2.5511,-2.5511,-2.5536,-2.5609,-2.5673,-2.5693,-2.5693,-2.5692,-2.5697,-2.5701,-2.5697,-2.5697,-2.5697,-2.5697,-2.5697,-2.5697,-2.5697,-2.5697,-2.5697,-2.5697,-2.5666,-2.5605,-2.5598,-2.5521,-2.5422,-2.5366,-2.5303,-2.5227,-2.5203,-2.5086,-2.5019,-2.4914,-2.4568,-2.3833,-2.4121,-2.3451,-2.2543,-2.2199,-2.1617,-2.1015,-2.1397,-2.1827,-2.176,-2.2051,-2.2659,-2.3269,-2.3619,-2.3964,-2.4319,-2.4585,-2.4679,-2.4682,-2.4682,-2.4626,-2.4561,-2.4312,-2.4167,-2.4122,-2.3998,-2.3876,-2.3955,-2.3905,-2.3804,-2.3804,-2.3804,-2.3804,-2.3804,-2.3804,-2.3804,-2.3804,-2.3804,-2.3719,-2.354,-2.3453,-2.3369,-2.3241,-2.3111,-2.3111,-2.3111,-2.3111,-2.3111,-2.3111,-2.3111,-2.3111,-2.3111,-2.3111,-2.3111,-2.3111,-2.3111,-2.3111,-2.3111,-2.3111,-2.3111,-2.3111,-2.3111,-2.3111,-2.3111,-2.3111,-2.3111,-2.5303,-2.5303,-2.5303,-2.5303,-2.5303,-2.5303,-2.5303,-2.5303,-2.5361,-2.5388,-2.5395,-2.5403,-2.5448,-2.5493,-2.5511,-2.5511,-2.5511,-2.5521,-2.555,-2.5608,-2.564,-2.5669,-2.5693,-2.5693,-2.5698,-2.5693,-2.5701,-2.5699,-2.5697,-2.5697,-2.5697,-2.5697,-2.5697,-2.5697,-2.5697,-2.5697,-2.5664,-2.5619,-2.5598,-2.5526,-2.5418,-2.5359,-2.5263,-2.523,-2.5216,-2.5203,-2.521,-2.521,-2.5029,-2.474,-2.4962,-2.4685,-2.4197,-2.3815,-2.3567,-2.282,-2.2658,-2.2725,-2.2647,-2.3071,-2.3514,-2.4172,-2.4242,-2.435,-2.4591,-2.4689,-2.4682,-2.4682,-2.4682,-2.4682,-2.4667,-2.4436,-2.4302,-2.4181,-2.4036,-2.3976,-2.3926,-2.3846,-2.3825,-2.3804,-2.3804,-2.3804,-2.3804,-2.3804,-2.3804,-2.3804,-2.3804,-2.3676,-2.3531,-2.3467,-2.3415,-2.3241,-2.3111,-2.3111,-2.3111,-2.3111,-2.3111,-2.3111,-2.3111,-2.3111,-2.3111,-2.3111,-2.3111,-2.3111,-2.3111,-2.3111,-2.3111,-2.3111,-2.3111,-2.3111,-2.3111,-2.3111,-2.3111,-2.3111,-2.3111,-2.5303,-2.5303,-2.5303,-2.5303,-2.5303,-2.5303,-2.5303,-2.5313,-2.5379,-2.5397,-2.5405,-2.5422,-2.5447,-2.5493,-2.5511,-2.5511,-2.5511,-2.5511,-2.554,-2.5561,-2.5591,-2.563,-2.5684,-2.5693,-2.5701,-2.5701,-2.5694,-2.5694,-2.5699,-2.5697,-2.5697,-2.5697,-2.5697,-2.5697,-2.5697,-2.5697,-2.5654,-2.5632,-2.5619,-2.5552,-2.5427,-2.5293,-2.5221,-2.5208,-2.5208,-2.5205,-2.5201,-2.521,-2.521,-2.5134,-2.5182,-2.5172,-2.5201,-2.5201,-2.5201,-2.4981,-2.3833,-2.3632,-2.364,-2.4052,-2.4287,-2.4712,-2.478,-2.4755,-2.4704,-2.4682,-2.4682,-2.4682,-2.4682,-2.4682,-2.4664,-2.4564,-2.4392,-2.4266,-2.4143,-2.4045,-2.3937,-2.3858,-2.3825,-2.3804,-2.3804,-2.3804,-2.3804,-2.3804,-2.3804,-2.3804,-2.3804,-2.3692,-2.3558,-2.3513,-2.3415,-2.3217,-2.3111,-2.3111,-2.3111,-2.3111,-2.3111,-2.3111,-2.3111,-2.3111,-2.3111,-2.3111,-2.3111,-2.3111,-2.3111,-2.3111,-2.3111,-2.3111,-2.3111,-2.3111,-2.3111,-2.3111,-2.3111,-2.3111,-2.3111,-2.5303,-2.5303,-2.5303,-2.5303,-2.5303,-2.5303,-2.5303,-2.5303,-2.5369,-2.5387,-2.5395,-2.5468,-2.5484,-2.5501,-2.5511,-2.5511,-2.5511,-2.5511,-2.5511,-2.5534,-2.5575,-2.5632,-2.5693,-2.5693,-2.5693,-2.5701,-2.5696,-2.5696,-2.5699,-2.5697,-2.5697,-2.5697,-2.5697,-2.5697,-2.5697,-2.5697,-2.5697,-2.5693,-2.5691,-2.5622,-2.5486,-2.5348,-2.5264,-2.5221,-2.5209,-2.5216,-2.5201,-2.521,-2.521,-2.521,-2.521,-2.521,-2.521,-2.521,-2.521,-2.5182,-2.4933,-2.4618,-2.4215,-2.4462,-2.4762,-2.4883,-2.4828,-2.4774,-2.4713,-2.4682,-2.4682,-2.4682,-2.4682,-2.4682,-2.4664,-2.4579,-2.4475,-2.4371,-2.4238,-2.4162,-2.4036,-2.3928,-2.3876,-2.3837,-2.3837,-2.3816,-2.3804,-2.3804,-2.3804,-2.3804,-2.3774,-2.3671,-2.354,-2.3481,-2.3392,-2.3184,-2.3111,-2.3111,-2.3111,-2.3111,-2.3111,-2.3111,-2.3111,-2.3111,-2.3111,-2.3111,-2.3111,-2.3111,-2.3111,-2.3111,-2.3111,-2.3111,-2.3111,-2.3111,-2.3111,-2.3111,-2.3111,-2.3111,-2.3111,-2.5303,-2.5303,-2.5303,-2.5303,-2.5303,-2.5303,-2.5303,-2.5322,-2.5369,-2.5387,-2.5405,-2.5476,-2.5511,-2.5511,-2.5511,-2.5511,-2.5511,-2.5511,-2.5511,-2.5511,-2.5548,-2.5601,-2.5674,-2.5693,-2.5693,-2.5694,-2.5701,-2.5701,-2.5697,-2.5697,-2.5697,-2.5697,-2.5697,-2.5697,-2.5697,-2.5697,-2.5697,-2.5683,-2.5664,-2.5609,-2.5541,-2.5425,-2.5312,-2.5265,-2.5214,-2.5208,-2.5212,-2.521,-2.521,-2.521,-2.521,-2.521,-2.521,-2.521,-2.521,-2.521,-2.5201,-2.4991,-2.4759,-2.4948,-2.4971,-2.4921,-2.4837,-2.4774,-2.4713,-2.4682,-2.4682,-2.4682,-2.4682,-2.4682,-2.4682,-2.4636,-2.4572,-2.4467,-2.4347,-2.4293,-2.42,-2.4065,-2.3967,-2.3928,-2.3869,-2.3837,-2.3804,-2.3804,-2.3804,-2.3804,-2.3762,-2.3676,-2.3491,-2.3333,-2.3232,-2.3135,-2.3111,-2.3111,-2.3111,-2.3111,-2.3111,-2.3111,-2.3111,-2.3111,-2.3111,-2.3111,-2.3111,-2.3111,-2.3111,-2.3111,-2.3111,-2.3111,-2.3111,-2.3111,-2.3111,-2.3111,-2.3111,-2.3111,-2.3111,-2.5273,-2.5303,-2.5303,-2.5303,-2.5303,-2.5303,-2.5303,-2.5303,-2.5378,-2.5387,-2.5405,-2.5458,-2.5474,-2.5492,-2.5511,-2.5511,-2.5511,-2.5511,-2.5511,-2.5511,-2.5524,-2.5574,-2.5644,-2.5684,-2.5702,-2.5701,-2.5699,-2.5697,-2.5697,-2.5697,-2.5697,-2.5697,-2.5697,-2.5697,-2.5697,-2.5697,-2.5697,-2.5695,-2.5632,-2.5605,-2.558,-2.5486,-2.5393,-2.5319,-2.5255,-2.5212,-2.5212,-2.521,-2.521,-2.521,-2.521,-2.521,-2.521,-2.521,-2.521,-2.521,-2.521,-2.5191,-2.5094,-2.5125,-2.5051,-2.493,-2.4823,-2.4744,-2.4713,-2.4682,-2.4682,-2.4682,-2.4682,-2.4682,-2.4692,-2.4679,-2.4615,-2.4538,-2.4452,-2.4409,-2.433,-2.4182,-2.3998,-2.3878,-2.3828,-2.3816,-2.3804,-2.3804,-2.3804,-2.3804,-2.375,-2.366,-2.3472,-2.3247,-2.316,-2.3111,-2.3111,-2.3111,-2.3111,-2.3111,-2.3111,-2.3111,-2.3111,-2.3111,-2.3111,-2.3111,-2.3111,-2.3111,-2.3111,-2.3111,-2.3111,-2.3111,-2.3111,-2.3111,-2.3111,-2.3111,-2.3111,-2.3111,-2.3111,-2.5182,-2.5303,-2.5303,-2.5303,-2.5303,-2.5303,-2.5303,-2.5303,-2.5369,-2.5387,-2.5387,-2.5404,-2.5456,-2.5493,-2.5511,-2.5511,-2.5511,-2.5511,-2.5511,-2.5511,-2.5519,-2.5549,-2.5605,-2.5657,-2.5693,-2.5701,-2.5694,-2.5697,-2.5697,-2.5697,-2.5697,-2.5697,-2.5697,-2.5697,-2.5697,-2.5697,-2.5697,-2.5693,-2.5645,-2.5609,-2.5598,-2.5532,-2.5441,-2.5352,-2.5301,-2.5274,-2.5212,-2.5212,-2.521,-2.521,-2.521,-2.521,-2.521,-2.521,-2.521,-2.521,-2.521,-2.521,-2.5199,-2.5177,-2.5088,-2.4934,-2.4799,-2.4713,-2.4698,-2.4682,-2.4682,-2.4682,-2.4682,-2.4682,-2.4657,-2.4614,-2.458,-2.4549,-2.4495,-2.4409,-2.433,-2.4229,-2.4067,-2.3869,-2.3807,-2.3795,-2.3804,-2.3804,-2.3804,-2.3804,-2.3697,-2.3611,-2.3421,-2.3223,-2.316,-2.3111,-2.3111,-2.3111,-2.3111,-2.3111,-2.3111,-2.3111,-2.3111,-2.3111,-2.3111,-2.3111,-2.3111,-2.3111,-2.3111,-2.3111,-2.3111,-2.3111,-2.3111,-2.3111,-2.3111,-2.3111,-2.3111,-2.3111,-2.3111,-2.5171,-2.5303,-2.5303,-2.5303,-2.5303,-2.5303,-2.5303,-2.5313,-2.537,-2.5387,-2.5386,-2.5403,-2.5448,-2.5493,-2.5511,-2.5511,-2.5511,-2.5511,-2.5511,-2.5511,-2.5521,-2.553,-2.5567,-2.5605,-2.5646,-2.5689,-2.5702,-2.5697,-2.5697,-2.5699,-2.5697,-2.5697,-2.5697,-2.5697,-2.5697,-2.5697,-2.5697,-2.5695,-2.5679,-2.5654,-2.5655,-2.5611,-2.5537,-2.5504,-2.5381,-2.5336,-2.5284,-2.5271,-2.5238,-2.5203,-2.521,-2.521,-2.521,-2.521,-2.521,-2.521,-2.521,-2.521,-2.5201,-2.5189,-2.5113,-2.4934,-2.4794,-2.4682,-2.4682,-2.4682,-2.4682,-2.4682,-2.4682,-2.4682,-2.4686,-2.459,-2.4522,-2.4524,-2.4495,-2.4418,-2.433,-2.4238,-2.4154,-2.3959,-2.3858,-2.3804,-2.3804,-2.3804,-2.3804,-2.3792,-2.3656,-2.3528,-2.3375,-2.3232,-2.3135,-2.3111,-2.3111,-2.3111,-2.3111,-2.3111,-2.3111,-2.3111,-2.3111,-2.3111,-2.3111,-2.3111,-2.3111,-2.3111,-2.3111,-2.3111,-2.3111,-2.3111,-2.3111,-2.3111,-2.3111,-2.3111,-2.3111,-2.3111,-2.3111,-2.516,-2.5234,-2.5293,-2.5303,-2.5303,-2.5303,-2.5303,-2.5313,-2.537,-2.5396,-2.5392,-2.5393,-2.5439,-2.5493,-2.5511,-2.5511,-2.5511,-2.5511,-2.5511,-2.5511,-2.5511,-2.5511,-2.551,-2.5537,-2.5603,-2.5673,-2.5699,-2.5692,-2.5693,-2.5701,-2.5699,-2.5699,-2.5697,-2.5697,-2.5697,-2.5697,-2.5697,-2.5697,-2.5697,-2.5697,-2.5693,-2.5671,-2.5593,-2.5556,-2.5461,-2.5381,-2.5321,-2.5292,-2.5268,-2.5224,-2.521,-2.521,-2.521,-2.521,-2.521,-2.521,-2.521,-2.521,-2.5189,-2.5113,-2.5057,-2.4902,-2.4789,-2.4713,-2.4682,-2.4682,-2.4682,-2.4682,-2.4682,-2.4682,-2.4692,-2.462,-2.4546,-2.4538,-2.4426,-2.4348,-2.4312,-2.4238,-2.4173,-2.4067,-2.3948,-2.3804,-2.3804,-2.3804,-2.3771,-2.375,-2.3616,-2.3495,-2.3357,-2.3232,-2.3135,-2.3111,-2.3111,-2.3111,-2.3111,-2.3111,-2.3111,-2.3111,-2.3111,-2.3111,-2.3111,-2.3111,-2.3111,-2.3111,-2.3111,-2.3111,-2.3111,-2.3111,-2.3111,-2.3111,-2.3111,-2.3111,-2.3111,-2.3111,-2.3111,-2.5094,-2.5117,-2.5234,-2.5303,-2.5303,-2.5303,-2.5303,-2.5313,-2.537,-2.5387,-2.5393,-2.5394,-2.5422,-2.5493,-2.5503,-2.5511,-2.5511,-2.5511,-2.5511,-2.5511,-2.5511,-2.5511,-2.5511,-2.5527,-2.5562,-2.5671,-2.5701,-2.5693,-2.5699,-2.5697,-2.5694,-2.5699,-2.5697,-2.5697,-2.5697,-2.5697,-2.5697,-2.5697,-2.5697,-2.5697,-2.5697,-2.5693,-2.5629,-2.556,-2.5503,-2.5447,-2.5383,-2.5313,-2.5291,-2.5236,-2.5212,-2.521,-2.521,-2.521,-2.521,-2.521,-2.521,-2.521,-2.5189,-2.5032,-2.4938,-2.4888,-2.4789,-2.4698,-2.4682,-2.4682,-2.4682,-2.4682,-2.4682,-2.4682,-2.4682,-2.466,-2.4589,-2.4479,-2.4348,-2.421,-2.4173,-2.4135,-2.4048,-2.4008,-2.3908,-2.3804,-2.3804,-2.3804,-2.3759,-2.3703,-2.3589,-2.3453,-2.3336,-2.3241,-2.3111,-2.3111,-2.3111,-2.3111,-2.3111,-2.3111,-2.3111,-2.3111,-2.3111,-2.3111,-2.3111,-2.3111,-2.3111,-2.3111,-2.3111,-2.3111,-2.3111,-2.3111,-2.3111,-2.3111,-2.3111,-2.3111,-2.3111,-2.3111,-2.3111,-2.5031,-2.5096,-2.5243,-2.5303,-2.5303,-2.5303,-2.5303,-2.5303,-2.5313,-2.5351,-2.5387,-2.5396,-2.5414,-2.5448,-2.5484,-2.5511,-2.5511,-2.5511,-2.5511,-2.5511,-2.5511,-2.5511,-2.5511,-2.5519,-2.5546,-2.5579,-2.5626,-2.5699,-2.57,-2.5699,-2.5694,-2.5699,-2.5697,-2.5697,-2.5697,-2.5697,-2.5697,-2.5697,-2.5697,-2.5697,-2.5697,-2.5697,-2.5676,-2.5615,-2.5572,-2.5511,-2.5434,-2.5377,-2.5322,-2.526,-2.5236,-2.5212,-2.521,-2.521,-2.521,-2.521,-2.521,-2.521,-2.5156,-2.5044,-2.4915,-2.487,-2.4794,-2.4698,-2.4682,-2.4682,-2.4682,-2.4682,-2.4682,-2.4682,-2.4682,-2.4568,-2.4466,-2.433,-2.4182,-2.4008,-2.3928,-2.3928,-2.3878,-2.3878,-2.3816,-2.3804,-2.3804,-2.3774,-2.375,-2.3687,-2.3557,-2.3439,-2.3336,-2.3217,-2.3111,-2.3111,-2.3111,-2.3111,-2.3111,-2.3111,-2.3111,-2.3111,-2.3111,-2.3111,-2.3111,-2.3111,-2.3111,-2.3111,-2.3111,-2.3111,-2.3111,-2.3111,-2.3111,-2.3111,-2.3086,-2.3086,-2.3086,-2.3086,-2.3111,-2.4915,-2.5037,-2.5175,-2.5225,-2.5234,-2.5293,-2.5303,-2.5303,-2.5303,-2.5332,-2.5389,-2.5397,-2.5395,-2.5411,-2.5439,-2.5484,-2.5511,-2.5511,-2.5511,-2.5511,-2.5511,-2.5511,-2.5511,-2.5521,-2.5557,-2.5576,-2.563,-2.5695,-2.5701,-2.57,-2.5696,-2.5699,-2.5697,-2.5697,-2.5697,-2.5697,-2.5697,-2.5697,-2.5697,-2.5697,-2.5697,-2.5695,-2.5698,-2.5655,-2.5604,-2.5568,-2.5509,-2.5443,-2.5387,-2.5312,-2.526,-2.5214,-2.5212,-2.521,-2.521,-2.521,-2.521,-2.521,-2.5156,-2.5009,-2.4915,-2.4902,-2.4779,-2.4698,-2.4682,-2.4682,-2.4682,-2.4682,-2.4682,-2.4682,-2.466,-2.4518,-2.443,-2.4312,-2.4163,-2.3989,-2.3816,-2.3816,-2.3816,-2.3816,-2.3795,-2.3804,-2.3804,-2.3774,-2.3732,-2.3643,-2.3547,-2.3428,-2.3298,-2.3184,-2.3111,-2.3111,-2.3111,-2.3111,-2.3111,-2.3111,-2.3111,-2.3111,-2.3111,-2.3111,-2.3111,-2.3111,-2.3111,-2.3111,-2.3111,-2.3111,-2.3111,-2.3111,-2.3095,-2.3086,-2.3052,-2.3052,-2.3061,-2.3061,-2.3036,-2.4779,-2.491,-2.5046,-2.5098,-2.5107,-2.5212,-2.5264,-2.5293,-2.5293,-2.5332,-2.5398,-2.5389,-2.5396,-2.5393,-2.5411,-2.5456,-2.5484,-2.5511,-2.5511,-2.5511,-2.5511,-2.5511,-2.5511,-2.5521,-2.5559,-2.5637,-2.5699,-2.5693,-2.5693,-2.5698,-2.5694,-2.5699,-2.5697,-2.5697,-2.5697,-2.5697,-2.5697,-2.5697,-2.5697,-2.5697,-2.5697,-2.5697,-2.5671,-2.5625,-2.5586,-2.556,-2.5524,-2.5497,-2.5414,-2.5341,-2.5301,-2.5258,-2.5224,-2.521,-2.521,-2.521,-2.521,-2.521,-2.5168,-2.5,-2.4915,-2.4888,-2.477,-2.4704,-2.4682,-2.4682,-2.4682,-2.4682,-2.4682,-2.4682,-2.466,-2.4613,-2.4547,-2.4418,-2.4266,-2.4077,-2.3867,-2.3804,-2.3804,-2.3804,-2.3804,-2.3804,-2.3804,-2.3774,-2.3741,-2.3594,-2.3519,-2.341,-2.3279,-2.316,-2.3111,-2.3111,-2.3111,-2.3111,-2.3111,-2.3111,-2.3111,-2.3111,-2.3111,-2.3111,-2.3111,-2.3111,-2.3111,-2.3111,-2.3111,-2.3111,-2.3111,-2.3095,-2.3095,-2.3086,-2.301,-2.302,-2.3029,-2.297,-2.2944,-2.4729,-2.4766,-2.4918,-2.4959,-2.4952,-2.5006,-2.5068,-2.5169,-2.5263,-2.5313,-2.5332,-2.5378,-2.5387,-2.5394,-2.5448,-2.5474,-2.5493,-2.5511,-2.5511,-2.5511,-2.5511,-2.5511,-2.5511,-2.5521,-2.554,-2.5594,-2.565,-2.5692,-2.5699,-2.5693,-2.5693,-2.5697,-2.5697,-2.5697,-2.5697,-2.5697,-2.5697,-2.5697,-2.5697,-2.5697,-2.5697,-2.5697,-2.5645,-2.5585,-2.5589,-2.5561,-2.5517,-2.5512,-2.5439,-2.5378,-2.5322,-2.527,-2.5222,-2.521,-2.521,-2.521,-2.521,-2.521,-2.5158,-2.5,-2.4902,-2.4874,-2.4779,-2.4704,-2.4682,-2.4682,-2.4682,-2.4682,-2.4682,-2.4682,-2.4682,-2.4651,-2.4538,-2.4383,-2.4247,-2.4077,-2.3887,-2.3804,-2.3804,-2.3804,-2.3804,-2.3804,-2.3804,-2.3804,-2.3738,-2.3589,-2.3457,-2.3364,-2.3265,-2.3146,-2.3111,-2.3111,-2.3111,-2.3111,-2.3111,-2.3111,-2.3111,-2.3111,-2.3111,-2.3111,-2.3111,-2.3111,-2.3111,-2.3111,-2.3111,-2.3111,-2.3111,-2.3095,-2.3103,-2.3035,-2.2984,-2.2986,-2.2971,-2.2911,-2.2842,-2.4336,-2.47,-2.4793,-2.4822,-2.4817,-2.4827,-2.4902,-2.5024,-2.516,-2.5243,-2.5303,-2.536,-2.5387,-2.5395,-2.543,-2.5474,-2.5511,-2.5511,-2.5511,-2.5511,-2.5511,-2.5511,-2.5511,-2.5517,-2.5544,-2.5591,-2.5649,-2.57,-2.5697,-2.5693,-2.5697,-2.5697,-2.5697,-2.5697,-2.5697,-2.5697,-2.5697,-2.5697,-2.5697,-2.5697,-2.5697,-2.5697,-2.5636,-2.5609,-2.5624,-2.5577,-2.5505,-2.5507,-2.5453,-2.5369,-2.5302,-2.528,-2.5222,-2.521,-2.521,-2.521,-2.521,-2.521,-2.5168,-2.5,-2.4929,-2.4861,-2.4779,-2.4713,-2.4682,-2.4682,-2.4682,-2.4682,-2.4682,-2.4682,-2.4682,-2.4667,-2.4504,-2.4321,-2.4201,-2.4066,-2.3937,-2.3825,-2.3804,-2.3804,-2.3804,-2.3804,-2.3804,-2.3804,-2.3738,-2.3589,-2.3443,-2.3358,-2.3241,-2.3137,-2.3111,-2.3111,-2.3111,-2.3111,-2.3111,-2.3111,-2.3111,-2.3111,-2.3111,-2.3111,-2.3111,-2.3111,-2.3111,-2.3111,-2.3111,-2.3111,-2.3111,-2.3095,-2.3095,-2.3001,-2.2909,-2.2902,-2.2885,-2.2825,-2.2799,-2.3673,-2.4548,-2.4651,-2.4698,-2.47,-2.4675,-2.4764,-2.4883,-2.5024,-2.516,-2.5293,-2.536,-2.5397,-2.5395,-2.543,-2.5447,-2.5493,-2.5511,-2.5511,-2.5511,-2.5511,-2.5511,-2.5511,-2.5519,-2.5548,-2.5637,-2.5693,-2.5699,-2.5692,-2.5698,-2.5698,-2.5699,-2.5697,-2.5697,-2.5697,-2.5697,-2.5697,-2.5697,-2.5697,-2.5697,-2.5697,-2.5697,-2.5701,-2.5684,-2.5668,-2.5612,-2.5522,-2.5473,-2.5449,-2.5351,-2.5291,-2.5269,-2.5235,-2.521,-2.521,-2.521,-2.521,-2.521,-2.5156,-2.5,-2.4925,-2.4856,-2.4779,-2.4713,-2.4682,-2.4682,-2.4682,-2.4682,-2.4682,-2.4642,-2.4642,-2.4561,-2.4418,-2.4284,-2.4181,-2.4027,-2.3878,-2.3795,-2.3804,-2.3804,-2.3804,-2.3804,-2.3804,-2.3804,-2.3738,-2.3566,-2.3478,-2.3378,-2.3241,-2.3119,-2.3111,-2.3111,-2.3111,-2.3111,-2.3111,-2.3111,-2.3111,-2.3111,-2.3111,-2.3111,-2.3111,-2.3111,-2.3111,-2.3111,-2.3111,-2.3111,-2.3111,-2.307,-2.3011,-2.2952,-2.2893,-2.2825,-2.2764,-2.2694,-2.2624,-2.2792,-2.3612,-2.4275,-2.4546,-2.4546,-2.4551,-2.4638,-2.4749,-2.4911,-2.5089,-2.5293,-2.5351,-2.5396,-2.5396,-2.544,-2.5474,-2.5484,-2.5493,-2.5511,-2.5511,-2.5511,-2.5511,-2.5511,-2.5511,-2.5567,-2.5615,-2.5661,-2.5693,-2.5692,-2.5702,-2.5692,-2.5702,-2.5697,-2.5699,-2.5697,-2.5697,-2.5697,-2.5697,-2.5697,-2.5697,-2.5697,-2.5693,-2.5696,-2.5662,-2.5618,-2.5571,-2.5496,-2.5486,-2.5406,-2.5322,-2.5312,-2.526,-2.5212,-2.521,-2.521,-2.521,-2.521,-2.521,-2.5146,-2.5022,-2.4934,-2.4884,-2.4807,-2.4729,-2.4682,-2.4682,-2.4682,-2.4682,-2.4682,-2.4626,-2.4536,-2.4426,-2.4348,-2.4257,-2.4161,-2.3978,-2.3807,-2.3816,-2.3804,-2.3804,-2.3804,-2.3804,-2.3804,-2.3771,-2.3682,-2.3616,-2.3525,-2.3415,-2.3241,-2.3111,-2.3111,-2.3111,-2.3111,-2.3111,-2.3111,-2.3111,-2.3111,-2.3111,-2.3111,-2.3111,-2.3111,-2.3111,-2.3111,-2.3111,-2.3111,-2.3086,-2.3036,-2.2927,-2.2876,-2.2816,-2.2642,-2.2509,-2.2516,-2.2479,-2.2398,-2.1915,-2.2748,-2.3572,-2.4157,-2.4462,-2.4509,-2.4582,-2.4698,-2.4779,-2.4977,-2.5222,-2.5332,-2.5397,-2.5387,-2.5441,-2.5456,-2.5456,-2.5456,-2.5484,-2.5493,-2.5511,-2.5511,-2.5511,-2.5511,-2.5519,-2.5566,-2.5654,-2.5693,-2.5693,-2.5693,-2.5693,-2.5693,-2.5698,-2.5702,-2.5699,-2.5697,-2.5697,-2.5697,-2.5697,-2.5697,-2.5697,-2.5695,-2.5693,-2.5654,-2.5626,-2.5566,-2.5508,-2.5486,-2.5395,-2.5303,-2.5262,-2.5238,-2.5212,-2.521,-2.521,-2.521,-2.521,-2.521,-2.5146,-2.5066,-2.4957,-2.4912,-2.487,-2.4799,-2.4768,-2.4768,-2.4698,-2.4682,-2.4682,-2.4642,-2.4329,-2.4173,-2.4182,-2.4113,-2.4094,-2.4016,-2.3867,-2.3795,-2.3804,-2.3804,-2.3804,-2.3804,-2.3804,-2.3804,-2.3716,-2.3625,-2.3546,-2.3388,-2.3232,-2.3111,-2.3111,-2.3111,-2.3111,-2.3111,-2.3111,-2.3111,-2.3111,-2.3111,-2.3111,-2.3086,-2.3086,-2.3086,-2.3111,-2.3052,-2.3028,-2.307,-2.2995,-2.2816,-2.2669,-2.2616,-2.2366,-2.2116,-2.2158,-2.22,-2.2052,-2.1056,-2.1922,-2.285,-2.3628,-2.4304,-2.4462,-2.4566,-2.467,-2.4707,-2.4828,-2.5046,-2.5253,-2.5351,-2.5389,-2.5387,-2.5394,-2.5393,-2.5411,-2.5447,-2.5484,-2.5511,-2.5511,-2.5511,-2.5511,-2.5511,-2.5557,-2.5644,-2.5684,-2.5693,-2.5693,-2.5693,-2.5693,-2.5702,-2.5697,-2.5701,-2.5697,-2.5697,-2.5697,-2.5697,-2.5697,-2.5697,-2.5697,-2.5695,-2.5697,-2.5695,-2.5671,-2.5579,-2.5469,-2.5381,-2.5311,-2.5232,-2.5225,-2.5201,-2.521,-2.521,-2.521,-2.521,-2.521,-2.5177,-2.5129,-2.5063,-2.5019,-2.4951,-2.4884,-2.4856,-2.4798,-2.4713,-2.4682,-2.4682,-2.4536,-2.422,-2.3979,-2.4007,-2.4005,-2.4005,-2.4005,-2.3905,-2.3804,-2.3804,-2.3804,-2.3804,-2.3804,-2.3804,-2.3804,-2.3747,-2.3625,-2.351,-2.3344,-2.3198,-2.3146,-2.3111,-2.3111,-2.3111,-2.3111,-2.3111,-2.3111,-2.3111,-2.3111,-2.3111,-2.3086,-2.3061,-2.3061,-2.3003,-2.291,-2.2893,-2.2961,-2.2842,-2.2642,-2.2537,-2.2385,-2.1965,-2.1726,-2.189,-2.1894,-2.1639,-2.0254,-2.1142,-2.2581,-2.3314,-2.3572,-2.4202,-2.4498,-2.4558,-2.4654,-2.4725,-2.4832,-2.5046,-2.5233,-2.5379,-2.5387,-2.5394,-2.5393,-2.5393,-2.5429,-2.5484,-2.5511,-2.5511,-2.5511,-2.5511,-2.5511,-2.5546,-2.5611,-2.5684,-2.5684,-2.5693,-2.5692,-2.5697,-2.57,-2.5697,-2.5699,-2.5697,-2.5697,-2.5697,-2.5697,-2.5697,-2.5697,-2.5697,-2.5697,-2.5697,-2.5697,-2.5661,-2.5584,-2.5465,-2.5377,-2.5301,-2.5233,-2.5214,-2.521,-2.521,-2.521,-2.521,-2.521,-2.521,-2.5187,-2.5151,-2.5098,-2.5122,-2.5022,-2.4902,-2.4851,-2.4774,-2.4719,-2.4698,-2.4642,-2.4502,-2.4229,-2.395,-2.3867,-2.3876,-2.3876,-2.3876,-2.3825,-2.3804,-2.3804,-2.3804,-2.3804,-2.3804,-2.3804,-2.3783,-2.371,-2.3616,-2.3519,-2.3342,-2.3163,-2.3128,-2.3111,-2.3111,-2.3111,-2.3111,-2.3111,-2.3111,-2.3111,-2.3111,-2.3086,-2.3036,-2.2986,-2.2961,-2.2902,-2.2686,-2.2756,-2.2825,-2.2677,-2.2356,-2.2292,-2.2088,-2.1576,-2.1332,-2.1526,-2.1579,-2.1355]}]]